GFSGBSN_sfc_30mbdewp_000.txt.gz
Dewpoint
56 58 56 55 56 56 55 53 51 50 51 50 50 50 50 50 50 50 50 51 51 52 53 54 54 55 53 47 43 48 48 46 47 51 50 44 49 48 46 45 43 41 38 40 40 40 40
55 56 57 55 55 56 54 55 54 51 50 50 51 51 50 51 50 50 51 50 51 51 52 54 54 54 48 40 44 44 44 44 42 48 50 45 48 47 43 44 43 42 41 40 39 41 41
53 55 55 55 55 55 54 54 54 52 50 50 51 51 51 51 52 51 50 50 51 51 52 53 53 50 45 40 42 42 43 42 43 42 46 47 46 50 45 45 46 42 41 41 40 41 40
53 55 55 55 55 55 55 54 54 53 51 50 51 52 52 52 52 51 51 51 51 52 52 52 51 49 39 44 44 43 42 42 44 42 45 47 47 50 51 46 45 43 42 37 38 40 40
53 55 55 54 55 55 55 55 55 54 53 51 50 51 52 53 53 53 53 53 53 52 52 51 47 45 38 45 42 43 42 39 43 43 42 47 48 49 49 44 42 43 37 37 35 40 38
53 55 54 54 54 55 55 55 55 54 54 52 51 52 52 53 52 52 53 53 53 51 50 48 46 41 40 39 41 41 42 40 42 44 44 46 45 45 46 43 36 37 36 35 35 35 34
53 53 53 54 54 55 55 55 55 53 54 52 51 52 53 53 53 52 52 50 45 44 45 38 38 35 38 39 44 42 42 40 41 42 39 41 39 38 41 44 38 34 35 35 34 34 33
53 53 54 53 53 54 55 54 54 53 52 51 51 52 53 53 52 52 52 47 44 43 39 41 40 38 41 41 39 39 42 37 37 36 41 36 36 41 45 43 40 36 34 34 33 34 33
53 53 53 53 55 54 55 55 54 53 51 51 51 52 53 53 52 50 49 48 49 47 38 39 40 39 38 39 38 38 40 36 35 34 38 35 37 41 44 41 40 36 34 32 32 35 35
53 54 54 55 54 54 55 56 55 54 53 52 52 52 53 52 48 50 48 49 48 46 31 33 38 38 40 40 36 38 40 35 36 33 38 32 37 43 42 41 40 34 37 36 37 38 33
54 54 54 54 54 54 55 55 56 55 55 53 52 52 53 52 49 47 49 49 47 43 21 32 36 38 37 34 33 37 41 34 33 36 36 33 39 39 40 40 39 35 39 38 38 37 35
52 52 54 55 55 54 54 55 55 55 55 54 53 52 52 50 49 50 50 48 43 29 20 33 37 35 36 34 32 38 39 35 38 35 36 32 45 42 41 41 41 39 37 36 34 34 31
52 52 53 54 55 54 54 54 55 55 55 55 54 52 50 48 44 52 50 43 29 24 33 31 33 37 33 30 29 36 34 33 34 31 30 33 35 45 43 42 39 38 37 34 32 31 28
53 51 53 54 54 54 54 54 55 56 55 55 55 52 50 49 49 53 46 36 25 31 31 35 35 35 31 30 29 34 31 27 34 37 29 29 32 42 43 40 38 37 35 29 25 25 25
51 52 52 53 53 54 54 54 55 55 55 55 53 49 48 49 52 49 39 28 29 34 34 34 33 31 28 29 28 33 27 26 34 35 30 31 33 42 43 41 39 39 36 32 27 27 24
48 50 51 52 53 54 55 55 55 56 55 54 47 45 45 48 52 46 34 32 34 38 36 33 24 27 24 25 30 32 25 24 31 36 38 32 32 38 38 42 39 39 38 32 30 25 23
47 49 53 51 53 54 55 55 55 55 55 53 46 42 47 52 50 40 31 33 38 40 37 25 24 24 25 25 33 27 24 30 31 34 37 35 32 31 37 38 37 35 37 36 31 27 23
48 49 53 53 53 54 55 54 55 55 53 48 45 40 51 51 39 38 34 37 41 41 39 26 27 26 23 27 30 29 25 32 28 38 35 37 29 33 32 31 34 35 33 33 30 27 25
47 47 50 53 53 54 54 54 54 54 51 45 41 44 51 47 35 36 39 39 39 40 36 29 32 32 30 28 30 33 31 28 34 37 36 33 29 29 31 32 29 34 33 35 30 26 25
47 48 48 52 53 53 54 53 54 54 53 44 42 40 45 46 44 40 38 37 39 41 35 38 35 37 33 30 30 30 32 37 41 36 39 34 31 25 26 28 31 31 30 33 33 29 26
48 47 47 49 53 53 54 53 53 53 53 45 41 40 42 37 39 40 41 40 38 39 41 43 37 36 31 30 34 34 35 39 39 41 40 36 29 30 29 29 29 30 31 29 29 30 26
46 47 47 47 52 53 53 53 53 53 53 45 38 39 40 40 41 41 40 39 37 42 40 39 41 36 35 32 33 35 38 38 38 40 39 36 30 26 26 30 28 27 29 31 31 30 27
44 46 47 48 49 53 53 52 52 52 50 45 43 42 38 35 34 39 39 40 38 40 42 42 41 37 35 35 35 39 40 39 38 38 38 34 30 27 25 25 25 26 28 28 28 27 26
42 46 46 47 49 53 53 52 51 52 50 44 42 41 37 30 33 33 36 41 42 41 41 39 35 38 35 35 36 37 38 36 36 35 37 34 29 28 26 23 23 26 28 28 28 28 28
42 44 46 48 48 54 53 52 51 51 52 47 44 42 38 32 31 32 35 41 38 37 35 32 33 34 34 31 34 33 31 36 32 30 31 34 36 32 26 29 22 22 27 25 27 28 28
41 44 44 45 46 53 52 51 50 51 52 48 44 43 38 31 28 32 32 40 39 37 30 31 34 35 34 31 36 34 33 35 33 33 29 35 40 36 30 20 19 23 29 29 28 19 29
41 43 43 46 46 51 52 50 50 51 52 47 44 44 40 33 33 32 31 36 39 38 31 31 33 35 39 32 32 32 32 29 30 31 34 30 30 33 29 30 23 28 30 33 22 25 33
40 42 44 45 46 49 51 50 50 51 52 48 46 45 43 37 38 40 37 31 35 38 35 30 35 36 39 36 32 31 31 26 25 27 30 31 26 26 31 32 29 31 31 28 32 35 33
39 40 43 45 45 47 51 50 50 52 52 49 46 45 45 40 40 43 43 42 39 36 35 32 37 34 40 37 33 32 28 27 26 24 28 25 29 28 27 27 33 33 33 34 34 32 32

GFSGBSN_sfc_30mbdewp_003.txt.gz
Dewpoint
54 55 57 57 55 55 56 55 54 52 51 50 50 51 51 50 51 50 50 51 51 51 53 54 55 55 52 46 43 48 48 45 46 51 49 46 39 41 45 43 43 40 38 37 37 36 38
55 54 55 56 56 54 55 54 55 54 52 51 50 51 51 51 51 51 51 50 51 52 52 53 54 54 48 40 42 43 45 44 43 46 48 47 41 39 41 45 42 42 39 38 37 37 38
55 53 54 56 56 55 55 54 54 56 53 51 50 50 52 51 52 52 52 51 51 51 52 52 53 50 44 39 40 41 41 40 40 40 42 46 45 42 42 43 43 43 39 39 37 37 36
54 53 54 55 56 56 56 55 55 55 53 52 50 51 52 52 53 53 52 52 51 52 52 52 52 47 42 41 42 41 40 39 40 40 40 42 45 42 44 49 47 41 43 39 38 38 37
52 54 54 56 55 56 56 55 56 55 54 53 52 51 52 53 53 53 53 53 53 53 52 52 48 45 38 44 41 40 40 37 37 41 40 41 45 43 44 45 43 44 39 39 37 37 37
52 53 55 55 55 54 54 55 55 56 55 55 53 52 52 53 53 54 54 53 53 53 50 49 47 42 40 38 39 40 40 39 36 37 39 39 42 41 41 42 36 38 39 37 38 35 37
53 53 54 54 54 55 54 55 55 55 55 55 54 53 53 53 53 52 51 49 45 44 46 41 40 36 37 38 41 41 38 39 37 35 35 38 37 36 35 40 42 39 40 35 37 35 35
54 54 54 54 54 54 54 55 55 55 54 54 53 52 53 53 52 53 50 45 43 45 40 42 39 39 38 40 37 39 39 36 34 32 32 35 35 34 34 37 43 40 37 34 35 34 33
54 54 54 54 54 54 55 55 55 55 54 53 52 52 52 52 52 52 48 44 48 46 39 38 42 39 37 40 36 36 38 36 31 30 29 31 34 34 32 35 42 38 38 37 34 34 33
55 54 54 54 54 53 54 54 55 55 55 53 52 51 51 52 48 46 45 48 50 48 32 34 38 40 39 42 37 37 38 35 32 30 29 30 32 36 32 36 39 39 40 33 33 33 30
51 53 52 52 53 53 53 54 55 55 55 54 53 51 52 51 48 47 48 50 49 43 21 33 38 40 40 38 31 31 36 36 31 30 33 30 34 37 34 35 41 41 41 34 36 35 37
51 50 54 52 51 54 53 53 54 55 55 55 53 52 52 50 48 48 48 48 44 30 22 32 36 36 35 38 32 33 33 36 32 31 36 29 37 37 37 40 42 43 39 39 36 34 29
47 48 51 53 51 52 53 53 54 55 55 55 54 53 50 45 43 49 48 42 29 24 33 32 33 36 33 33 32 33 33 33 32 29 31 33 33 38 41 39 43 42 39 33 29 29 25
46 49 49 48 53 50 52 53 54 55 55 55 55 53 50 45 49 50 45 35 25 28 30 37 35 35 32 31 28 29 32 32 31 33 32 28 26 35 38 41 39 40 38 26 22 23 23
45 48 45 47 48 52 52 54 54 55 55 55 55 52 49 48 50 49 40 28 29 31 36 34 35 30 31 31 21 22 30 33 27 32 32 29 30 39 42 43 40 38 37 32 27 26 24
44 49 48 47 52 53 52 54 54 55 56 54 48 45 45 47 50 47 36 31 35 37 37 36 29 29 27 28 22 25 28 30 25 29 36 35 30 38 44 43 42 41 36 31 29 23 21
44 47 48 47 49 53 53 53 54 55 56 53 46 42 45 48 50 41 31 33 36 39 39 32 25 23 23 21 23 24 24 22 24 27 36 39 35 34 42 39 38 39 37 34 28 27 22
44 45 48 47 48 49 54 53 54 55 55 50 45 38 50 51 39 38 34 36 39 39 41 34 24 22 20 20 23 25 21 22 23 28 36 39 37 33 35 34 38 40 37 32 28 27 25
43 45 47 47 46 48 55 54 54 55 52 47 42 39 51 47 35 35 36 37 39 38 38 32 26 25 22 22 22 25 25 23 29 28 38 37 35 32 34 34 36 36 34 34 32 28 25
42 44 48 48 47 48 54 54 54 55 51 45 40 39 43 45 42 39 36 36 37 40 38 31 28 29 28 25 25 26 28 26 32 29 39 37 33 29 26 28 34 35 35 32 30 27 25
41 43 45 47 47 49 53 54 54 55 53 47 40 40 41 37 38 39 40 38 36 38 39 33 36 32 30 24 26 30 27 30 30 35 34 38 31 29 27 28 31 31 33 34 33 32 27
40 42 43 46 45 46 51 54 53 54 54 46 39 34 42 42 39 39 39 37 37 38 38 37 40 34 33 28 24 26 27 30 35 36 36 37 33 30 29 30 29 29 30 32 32 32 31
39 41 43 44 46 47 49 53 53 53 52 46 45 43 39 36 38 37 39 38 38 39 41 39 41 39 33 32 31 33 31 35 37 35 38 37 35 29 26 29 29 27 28 29 30 30 29
38 40 42 44 44 46 48 53 52 53 51 46 43 42 37 30 28 32 36 41 40 40 38 42 43 42 40 37 36 37 37 36 38 38 37 36 34 30 29 26 24 26 28 29 29 30 31
37 39 41 44 43 45 47 52 52 52 53 47 44 42 38 32 30 31 36 41 41 42 41 39 41 41 39 37 35 37 37 36 33 32 38 38 35 32 30 31 31 28 25 27 28 28 29
37 39 40 43 43 45 47 48 52 52 52 49 45 45 41 35 28 33 37 41 38 37 36 36 37 36 34 35 36 34 31 35 32 34 36 39 38 36 32 24 24 23 29 28 29 24 29
35 38 40 43 42 44 45 47 52 51 51 49 47 45 42 37 34 33 34 38 43 37 35 34 35 35 41 34 35 33 33 36 33 33 33 36 37 35 34 32 30 28 30 31 22 28 30
34 38 39 42 42 43 46 47 52 51 51 49 47 45 42 39 38 38 36 37 41 40 34 34 37 38 41 36 34 32 31 31 32 35 34 33 32 34 35 33 28 31 32 28 34 34 31
34 38 39 41 43 43 45 47 52 51 51 50 46 45 45 43 42 43 42 42 42 42 36 36 38 39 42 39 34 32 30 26 28 28 30 32 31 28 30 31 33 33 34 34 35 33 33

GFSGBSN_sfc_30mbdewp_006.txt.gz
Dewpoint
52 55 56 55 56 57 56 56 57 55 54 52 51 51 51 51 51 51 51 50 51 51 53 53 55 56 52 45 44 50 48 47 47 51 50 47 44 40 40 43 43 41 41 39 38 38 37
51 54 56 55 55 56 56 54 56 56 55 54 52 51 51 52 51 52 52 51 51 52 52 53 54 55 49 39 41 42 47 45 43 43 48 47 45 42 37 40 42 43 42 42 40 37 37
53 52 54 55 55 56 56 56 55 55 55 55 53 51 51 52 52 52 53 53 51 51 51 52 53 51 45 40 40 40 42 42 41 40 39 43 44 44 39 37 43 43 43 42 41 39 36
54 53 52 54 54 56 56 56 56 55 54 55 53 52 51 53 53 53 53 53 53 52 52 52 52 48 41 43 43 40 39 39 39 38 38 40 40 43 42 42 43 43 43 41 41 39 38
54 53 52 53 54 55 56 56 56 56 54 54 53 53 52 52 53 54 54 53 53 53 52 52 49 46 37 42 41 41 40 38 37 37 39 38 38 41 43 39 39 41 37 40 41 41 37
56 53 54 54 55 55 55 56 56 56 56 55 55 55 53 52 53 53 53 53 53 53 52 48 45 42 41 37 40 40 40 39 37 35 35 38 37 37 39 37 31 35 39 37 39 40 38
54 56 54 55 55 55 54 55 55 56 56 56 56 55 53 53 53 53 52 48 45 44 47 39 39 37 37 39 40 38 39 38 37 36 33 35 35 34 35 37 37 36 36 39 38 40 37
51 54 55 55 55 55 55 54 55 55 55 56 55 54 53 53 53 52 50 43 44 45 40 45 41 40 39 40 36 37 39 36 35 33 33 32 33 34 34 34 37 36 37 39 38 38 38
46 50 55 56 54 54 55 54 54 54 55 55 54 54 52 52 52 51 48 45 48 46 39 40 43 40 39 39 36 35 38 36 33 32 31 30 30 34 32 31 32 34 36 39 38 37 37
44 45 50 51 54 53 52 53 53 54 54 55 54 53 52 52 47 46 46 49 49 47 33 34 37 41 41 42 38 38 37 36 33 30 30 30 32 29 32 30 31 31 36 39 40 38 34
43 45 45 49 50 51 53 52 52 53 53 54 53 53 52 49 48 45 48 50 48 45 22 35 38 41 41 39 37 36 39 36 32 30 28 30 28 28 27 32 32 32 35 39 40 40 37
42 45 44 49 49 49 53 52 51 53 53 54 54 53 52 51 48 49 50 48 43 31 21 32 38 37 37 38 37 38 36 37 35 33 29 29 32 31 31 32 36 35 35 38 43 39 34
42 43 45 46 48 48 49 52 51 52 54 55 54 53 51 47 43 50 48 43 30 24 32 32 33 35 33 35 36 36 32 32 29 27 28 34 33 34 38 35 36 37 35 31 31 30 29
41 43 45 46 47 48 48 53 51 52 54 55 55 53 50 45 50 48 44 36 25 25 29 36 35 35 32 35 35 35 32 30 31 31 30 25 22 33 35 35 34 36 36 32 27 29 25
41 43 44 47 48 46 49 53 52 52 54 55 55 52 49 48 49 46 39 28 27 31 35 35 34 31 31 34 34 32 30 32 30 30 29 29 27 33 32 34 40 37 33 35 37 24 25
41 43 44 45 48 46 49 51 53 53 55 55 50 48 47 49 50 45 36 30 33 36 37 37 30 30 27 30 27 26 25 27 29 32 33 32 29 34 37 39 40 40 38 34 37 22 23
40 41 43 45 48 47 47 47 53 56 55 53 47 43 46 51 49 41 31 32 33 36 39 35 31 28 26 27 26 20 21 25 29 30 34 35 32 34 37 38 36 40 38 40 39 28 23
38 41 42 45 48 47 48 48 50 54 55 50 46 39 47 50 39 39 34 35 39 38 40 39 36 33 22 26 24 21 24 28 28 28 30 37 33 31 33 39 41 41 39 39 28 27 26
36 39 42 45 46 47 47 50 51 54 52 48 42 43 50 47 34 35 37 37 38 39 40 38 33 25 23 20 19 20 27 27 26 35 34 37 32 30 31 38 41 40 40 38 36 31 26
33 37 41 43 45 47 47 47 53 55 51 47 43 38 43 44 41 38 36 36 34 39 38 38 34 28 24 22 20 30 24 27 30 29 40 43 37 32 31 33 38 37 38 37 34 29 26
33 36 39 42 44 45 47 49 50 55 52 47 43 39 41 36 37 39 39 38 35 35 39 39 33 28 29 25 23 22 28 26 30 29 37 38 35 36 30 35 36 36 36 35 32 30 28
32 35 38 40 43 44 45 46 48 54 52 46 40 37 42 41 37 38 38 37 36 37 39 36 33 35 36 27 24 24 25 27 26 33 32 35 34 35 28 30 32 33 35 35 34 32 32
31 33 38 40 42 44 44 47 48 54 50 46 46 44 40 36 38 38 38 38 38 39 39 40 38 33 37 32 31 27 29 29 33 34 35 35 36 32 26 29 29 27 30 33 34 34 33
32 32 37 39 41 42 43 47 48 54 51 47 45 44 39 35 30 34 37 37 39 40 38 41 41 39 41 40 39 38 37 37 35 36 36 36 36 33 27 27 24 27 28 29 31 31 31
31 31 36 39 40 43 42 45 46 47 53 47 44 44 42 37 35 31 29 37 41 42 42 41 43 41 44 40 37 36 37 37 35 34 37 37 36 33 31 28 30 30 25 27 28 28 30
31 31 36 38 40 43 41 44 47 48 53 50 45 47 43 38 35 33 35 39 38 38 39 41 39 39 43 39 37 33 31 34 33 35 38 39 38 37 32 27 25 25 29 28 30 27 29
31 31 35 38 40 42 41 44 46 48 52 50 47 47 44 39 39 35 32 38 42 39 37 37 38 38 42 36 35 33 34 36 33 33 35 37 37 34 34 31 31 30 30 29 23 28 30
31 32 34 37 40 41 41 43 46 47 52 50 47 47 45 41 40 38 36 38 42 41 36 36 38 39 39 36 37 36 32 36 36 35 36 35 33 33 35 32 28 31 31 27 33 32 31
31 32 34 37 39 41 42 43 46 47 51 50 46 46 48 44 43 43 42 42 43 44 41 39 39 39 41 39 38 35 30 28 33 33 37 34 36 34 34 33 34 33 34 34 35 33 33

GFSGBSN_sfc_30mbdewp_009.txt.gz
Dewpoint
54 53 53 53 56 55 56 57 56 57 56 54 53 52 51 52 52 51 52 51 51 51 52 53 54 56 53 48 46 51 48 48 49 51 51 50 47 45 40 41 44 43 43 44 43 43 41
56 56 54 53 54 56 55 56 56 56 56 55 54 53 51 51 52 52 52 52 51 51 52 52 54 54 50 40 44 47 47 45 44 49 50 50 47 46 43 39 38 42 42 42 42 42 40
55 58 55 54 54 56 55 56 56 55 55 55 55 54 52 51 52 52 53 53 53 52 51 52 52 51 47 42 43 43 47 45 43 40 39 46 48 45 44 41 42 43 42 42 44 42 42
51 54 58 55 54 54 55 56 56 56 55 54 55 54 53 52 52 53 53 53 53 53 52 52 52 50 43 44 46 44 42 39 40 40 39 39 40 39 43 43 41 40 41 39 41 43 42
44 49 53 57 54 54 55 56 56 56 56 55 55 54 53 53 53 54 54 54 53 53 53 52 49 47 39 44 43 43 42 38 38 38 38 38 38 37 40 39 37 39 34 38 40 42 41
44 45 51 53 56 54 54 55 56 56 55 55 55 55 54 53 53 53 53 52 52 52 52 50 48 42 42 38 40 42 41 40 38 37 36 38 37 35 36 38 30 31 33 34 38 40 41
41 43 46 49 55 55 54 54 55 55 55 55 55 55 55 53 53 53 52 48 43 44 48 41 40 37 36 40 40 40 40 39 39 37 34 35 35 32 34 35 36 33 32 34 36 39 39
41 41 41 46 50 52 56 54 53 54 54 54 54 55 55 53 53 53 50 44 43 44 40 44 44 42 40 40 38 38 40 37 36 33 35 33 31 34 35 35 35 35 35 34 35 39 41
37 41 43 43 46 48 52 55 53 53 54 54 54 54 54 53 53 51 48 44 47 45 38 40 43 43 42 41 38 37 39 37 35 34 34 31 30 33 34 33 33 34 35 34 34 37 40
39 38 42 42 45 45 51 53 54 52 52 52 53 54 53 53 48 48 45 48 48 44 34 33 37 41 42 42 38 40 39 36 35 33 33 32 32 30 31 32 32 30 33 33 34 34 33
38 39 41 42 43 44 50 50 52 54 52 52 54 54 53 48 44 45 48 50 48 45 15 33 37 41 41 39 38 39 40 39 35 33 33 31 30 30 29 30 33 30 31 31 33 35 35
34 39 41 42 44 44 48 48 51 52 53 52 54 54 53 48 48 50 49 47 43 30 19 33 38 36 37 40 38 38 37 39 40 37 35 32 31 31 30 30 29 33 34 34 35 34 30
34 38 41 42 44 44 47 47 51 50 54 52 54 53 52 48 45 50 47 42 31 23 29 32 33 35 34 34 36 35 36 35 33 28 28 32 33 34 37 33 33 33 30 26 26 26 26
34 39 42 42 44 46 47 46 50 51 53 54 55 53 50 47 50 48 44 36 23 25 27 36 35 33 32 33 35 34 33 32 36 32 28 24 22 30 36 33 29 32 29 25 20 20 22
35 38 42 41 43 44 47 47 46 48 53 55 54 51 48 50 49 46 37 27 25 27 34 35 35 31 31 34 33 34 33 31 31 33 25 27 26 31 32 33 32 28 29 31 32 33 30
32 36 39 41 45 46 46 46 46 49 53 55 51 48 46 50 48 43 35 27 30 34 38 37 30 32 26 29 31 32 31 33 31 32 30 30 25 29 34 33 34 28 33 29 31 26 26
32 33 35 42 44 46 46 46 48 51 50 54 48 43 48 50 48 40 31 31 32 36 37 35 33 32 29 29 30 29 25 27 31 30 31 33 30 26 33 33 31 33 33 33 33 31 29
31 33 33 40 42 46 46 48 47 47 48 52 46 39 49 49 38 37 34 33 35 36 38 38 38 35 32 28 28 26 23 21 32 31 30 35 32 27 28 37 35 36 36 31 26 27 33
32 34 33 38 41 45 44 45 45 48 52 48 43 43 49 46 33 34 36 36 35 36 37 39 37 35 33 29 30 26 25 28 32 34 35 36 30 25 30 36 39 35 37 37 33 35 33
33 33 32 36 40 44 44 46 45 48 53 48 43 38 43 44 42 37 35 35 36 39 38 40 39 37 33 29 28 25 23 28 31 32 37 38 33 31 30 33 36 36 35 37 37 33 25
33 31 32 34 39 42 44 45 46 47 52 46 43 39 40 35 37 39 37 37 36 34 39 40 37 36 33 25 23 24 28 28 33 38 38 35 30 32 33 35 36 36 36 37 33 34 23
33 31 32 33 39 40 44 44 46 47 50 46 41 40 41 39 38 38 38 38 37 36 38 38 37 34 33 30 26 24 26 28 28 37 35 36 32 36 36 38 38 36 38 38 35 32 31
33 31 32 32 37 40 43 43 44 47 51 46 46 45 41 40 38 37 36 36 36 38 39 39 39 38 36 34 36 30 35 28 28 33 34 36 35 35 29 34 36 33 34 35 34 34 33
33 31 32 32 37 39 42 43 44 46 48 48 46 45 39 37 37 37 37 38 38 39 37 40 41 38 39 43 41 39 38 34 33 36 37 35 35 33 28 27 22 26 28 34 34 33 34
34 31 32 32 37 39 41 43 44 46 47 47 46 45 41 38 38 38 36 33 39 40 41 41 41 40 44 42 38 37 37 35 36 36 37 38 35 33 30 28 29 26 26 28 30 30 32
35 32 31 31 37 39 40 43 44 46 46 49 46 48 43 38 37 39 36 38 35 36 38 40 42 42 45 40 38 32 31 34 34 35 39 38 38 35 31 27 25 25 28 29 29 27 30
35 34 31 31 35 38 40 42 44 46 46 49 47 48 45 39 40 40 37 37 40 40 37 39 40 40 43 38 35 33 32 35 31 32 35 36 36 32 32 31 30 31 29 29 25 26 31
35 35 32 32 34 37 40 42 43 46 47 48 47 48 45 41 40 38 37 39 41 40 36 39 39 40 40 37 36 36 35 35 35 35 36 33 34 34 34 31 27 32 29 22 30 32 34
35 34 33 32 33 36 39 41 42 46 47 48 46 47 48 44 43 44 42 41 42 43 42 42 40 40 40 38 38 38 32 35 35 32 37 34 35 34 34 31 34 34 33 35 33 33 34

GFSGBSN_sfc_30mbdewp_012.txt.gz
Dewpoint
52 54 57 56 54 54 55 56 57 56 55 56 54 53 52 51 52 52 52 52 51 52 52 53 54 56 53 48 47 49 49 51 53 54 53 51 48 45 40 41 42 42 42 44 46 46 45
47 49 51 55 58 55 54 55 56 56 56 56 55 54 53 52 52 52 52 53 52 51 52 52 53 54 49 39 45 45 49 46 48 50 50 51 48 47 44 41 40 40 39 41 43 43 43
43 45 46 50 54 57 55 55 56 56 56 55 56 55 54 53 52 52 52 53 53 52 52 51 52 51 48 42 44 45 44 46 45 43 44 50 50 47 45 42 42 42 39 41 41 42 43
44 44 44 45 50 54 57 55 56 56 56 56 55 56 55 53 52 53 52 54 53 54 53 52 52 50 41 45 46 45 44 42 41 41 40 40 39 39 40 43 41 40 39 37 39 41 43
40 43 43 44 45 50 55 57 55 55 55 55 56 55 55 54 53 53 54 54 53 53 53 52 49 46 37 44 44 44 44 41 38 38 38 38 37 37 37 39 37 38 34 34 36 38 42
37 38 38 43 43 44 49 51 56 55 54 55 55 56 55 54 54 54 53 53 52 52 52 51 48 43 43 38 40 42 42 41 38 37 36 37 37 35 36 36 29 31 31 33 32 39 40
38 36 40 39 42 43 44 49 52 55 54 54 54 55 55 55 53 53 52 48 42 42 48 43 41 40 35 41 41 41 41 39 39 37 34 35 35 30 32 34 36 35 33 31 33 35 35
35 35 39 41 41 43 43 46 50 53 54 53 52 53 54 55 53 53 49 43 41 42 38 44 45 42 41 42 38 39 41 38 37 35 35 34 31 32 33 33 34 33 32 33 34 34 34
33 32 35 41 40 40 44 45 46 52 54 52 51 52 54 54 53 52 48 45 46 44 38 39 43 43 43 42 39 39 39 38 36 33 32 31 29 31 33 34 33 33 32 30 30 34 34
34 33 32 39 40 43 43 44 45 50 52 54 52 52 53 53 49 49 47 47 46 45 31 32 37 41 43 43 39 40 39 37 37 33 33 32 33 31 31 32 33 30 33 34 33 33 29
35 35 34 38 42 42 43 44 45 49 49 54 52 52 54 50 44 46 45 48 47 43 8 31 37 42 42 39 39 39 40 38 36 35 34 31 32 32 30 29 33 31 32 31 31 31 31
34 34 37 39 44 42 42 45 46 48 50 53 55 53 53 48 48 48 49 48 44 28 9 32 38 37 37 39 38 38 39 40 42 37 35 32 34 32 31 30 29 34 33 32 31 31 26
35 32 33 37 40 44 44 45 46 47 49 52 53 54 50 48 46 50 48 42 28 18 28 31 33 36 34 34 35 36 36 35 32 29 28 32 33 34 35 31 32 30 28 22 23 23 21
34 35 34 35 39 43 43 46 47 47 48 51 51 54 49 47 50 48 43 35 20 22 28 34 33 34 31 32 34 33 34 31 36 34 29 27 24 32 33 31 29 30 28 21 17 20 18
35 34 32 33 36 41 43 47 46 47 46 50 51 52 48 49 49 46 38 26 19 24 33 32 32 31 32 33 32 33 33 31 31 34 27 26 24 31 31 32 30 29 27 27 25 26 25
36 34 32 34 34 41 43 45 47 47 47 50 47 48 46 50 48 43 34 26 27 34 37 35 30 32 27 30 30 30 30 31 32 34 33 27 24 29 30 33 32 29 30 26 26 19 19
35 35 34 32 34 38 43 45 46 48 47 49 46 41 47 49 46 39 30 30 31 39 37 35 34 33 31 28 29 29 28 30 33 31 34 30 29 29 31 29 28 30 27 27 24 25 26
35 34 35 32 34 38 41 46 44 47 47 46 46 35 48 49 37 36 33 34 34 34 38 36 36 36 34 30 30 28 27 25 33 31 30 31 31 26 26 30 35 31 28 27 24 19 25
37 35 34 31 35 39 41 46 43 46 47 48 42 42 48 46 32 33 36 34 35 35 36 37 37 37 35 31 28 29 27 26 32 31 32 36 30 24 25 31 32 34 30 30 32 30 27
38 35 34 31 34 37 41 43 43 45 47 48 40 35 41 43 42 36 34 34 34 38 36 39 38 38 36 34 30 27 28 27 30 32 38 38 32 29 22 30 32 32 32 31 30 29 26
38 35 34 31 33 36 41 42 43 45 46 46 42 39 39 33 36 37 36 35 33 34 38 40 37 37 35 30 27 29 28 27 33 37 38 36 29 31 32 32 34 36 33 35 34 31 27
37 36 35 31 33 34 40 42 44 45 47 46 41 40 40 37 38 38 36 36 35 37 38 37 35 37 36 34 28 24 25 29 32 37 36 37 29 31 33 35 35 35 35 35 36 35 34
37 36 35 31 31 35 39 42 44 44 46 43 46 44 39 37 36 36 36 36 36 37 38 38 39 38 37 36 35 36 35 33 33 35 35 34 31 32 31 37 36 33 35 36 34 35 34
36 36 35 32 31 34 38 41 44 44 45 45 47 43 40 37 37 36 38 38 37 37 36 39 40 39 38 44 42 39 38 38 33 34 35 34 36 34 32 34 23 27 37 37 37 39 40
35 35 35 34 31 32 37 40 44 44 45 45 47 44 40 37 38 38 38 36 37 38 38 39 41 41 41 41 38 36 35 36 35 36 37 37 36 33 30 28 28 26 27 34 37 34 33
35 36 35 35 32 32 36 40 44 44 45 47 47 48 42 39 38 39 38 38 36 35 38 39 43 43 42 40 37 31 30 31 31 35 38 38 37 34 31 27 24 25 28 29 29 28 30
35 36 35 33 33 32 35 39 43 44 46 47 47 49 43 40 40 40 37 37 39 39 37 38 40 41 43 38 35 33 31 34 32 29 33 36 36 32 31 30 29 32 30 29 26 25 30
36 36 36 33 34 33 34 39 41 43 45 47 47 49 45 41 40 39 39 40 40 38 36 38 39 40 40 36 35 36 33 34 33 34 35 34 33 31 31 30 25 33 28 23 27 32 34
35 36 36 33 33 34 34 38 40 42 45 47 45 48 48 44 43 44 42 41 41 41 40 42 40 40 41 38 38 38 35 36 34 31 36 32 35 34 33 30 34 33 32 35 33 34 34

GFSGBSN_sfc_30mbdewp_015.txt.gz
Dewpoint
45 45 47 47 50 53 55 56 56 56 55 55 56 55 54 52 52 52 52 52 51 52 52 53 54 55 53 47 46 49 51 52 55 56 54 51 48 45 40 41 42 42 42 43 43 46 46
42 44 45 45 46 48 51 55 57 56 56 55 56 56 55 53 52 52 53 53 52 51 52 52 53 54 48 34 44 46 46 46 51 53 53 52 49 47 44 42 39 40 40 40 41 42 43
40 39 40 41 44 45 45 50 55 56 55 54 55 56 56 55 53 52 53 53 53 52 52 51 52 51 47 40 44 45 44 46 46 49 47 51 51 48 47 43 43 42 39 40 40 40 40
39 39 39 42 39 43 44 46 50 53 56 55 55 56 56 55 54 52 53 52 54 54 53 52 52 50 39 45 46 45 44 42 44 42 40 43 49 42 40 41 41 40 39 36 37 37 41
37 37 37 38 41 40 42 44 46 49 53 55 54 54 56 56 54 53 54 53 53 53 53 53 49 45 36 43 44 44 44 40 39 39 39 39 39 37 37 38 36 37 32 35 35 38 40
37 35 34 35 39 41 42 43 44 46 49 53 55 53 53 54 54 54 53 53 52 52 52 51 47 41 41 37 41 42 44 42 38 37 36 37 38 35 36 35 27 30 33 34 33 36 38
34 34 35 33 34 40 42 41 43 45 46 50 54 54 53 54 55 54 52 46 41 40 47 42 41 41 36 41 41 41 41 40 39 37 34 35 35 33 33 34 34 34 34 33 33 34 34
37 36 34 37 33 40 41 42 42 43 45 46 51 55 52 54 54 53 49 42 40 40 38 44 45 42 41 42 39 40 40 38 38 35 36 34 31 33 33 32 32 32 32 32 33 33 33
35 35 37 36 36 39 41 42 42 43 44 47 50 54 52 53 54 52 47 44 46 43 35 37 42 43 43 43 39 39 39 38 36 36 35 31 30 32 32 31 32 32 31 30 30 30 31
34 36 35 34 35 40 42 45 43 44 46 48 49 53 54 53 51 49 46 47 46 44 28 29 38 41 43 42 37 41 40 38 36 34 35 33 33 31 30 30 31 28 33 33 32 30 25
36 35 36 34 36 37 41 44 43 44 45 46 50 52 54 53 48 46 45 47 46 36 16 30 37 42 43 38 38 38 41 38 34 35 33 32 33 31 30 30 31 29 31 31 32 32 31
38 37 36 35 34 36 40 42 43 44 46 47 50 50 55 48 48 46 48 47 43 25 13 32 36 36 37 39 38 38 39 40 41 37 35 32 34 33 32 32 31 34 32 32 32 30 24
37 38 37 34 35 35 40 42 44 46 46 47 49 50 52 48 43 48 47 43 26 18 29 30 31 35 34 33 35 37 36 36 33 30 29 33 34 35 35 30 31 29 30 23 22 23 19
37 36 37 35 36 36 36 41 43 46 46 47 49 50 49 48 49 48 44 32 19 21 28 32 32 35 31 32 33 35 34 31 34 34 29 27 24 34 36 32 29 29 27 22 15 17 18
39 38 36 36 36 34 36 40 43 45 47 47 48 46 45 50 49 46 37 26 22 21 32 31 32 30 30 31 32 33 31 29 31 32 27 26 25 32 34 33 31 32 28 29 23 23 24
39 39 38 36 35 33 35 41 44 45 47 47 45 42 45 50 48 43 34 25 24 33 35 32 26 30 27 28 30 30 29 31 31 31 33 29 24 28 31 33 32 30 29 26 28 18 16
39 39 38 36 34 33 35 40 43 44 47 48 43 37 47 49 46 39 30 27 29 38 36 33 31 31 30 29 30 28 27 29 33 32 34 32 28 26 31 29 26 29 28 27 26 23 16
39 38 38 36 34 34 35 40 42 43 46 47 41 32 48 48 37 37 32 32 33 37 38 36 35 32 32 30 29 28 28 28 33 34 32 32 30 25 24 30 30 29 27 27 25 20 20
39 38 38 36 33 34 35 39 42 43 46 44 39 38 48 45 31 32 35 34 35 35 35 35 34 35 36 32 28 29 29 28 33 32 31 33 30 23 26 29 32 31 31 28 27 28 22
38 37 38 37 33 34 37 39 42 44 46 45 40 32 40 42 40 34 33 32 33 36 35 35 37 37 36 33 31 29 29 28 30 32 37 37 31 28 22 28 31 28 30 30 26 22 22
37 37 37 36 32 31 34 40 42 44 44 45 39 36 37 32 34 33 33 34 32 34 37 38 37 37 36 31 32 31 30 30 32 33 36 36 28 31 31 32 32 31 29 30 27 25 22
37 35 37 36 35 31 33 39 42 43 45 44 39 39 39 36 37 35 34 33 34 34 37 36 36 37 36 35 30 26 28 29 30 37 35 37 28 30 28 31 32 30 32 32 29 28 27
36 36 36 36 35 32 33 39 42 44 45 41 41 46 39 36 35 36 36 36 35 37 38 38 38 38 37 37 37 37 36 35 34 36 35 32 30 30 29 35 33 28 31 33 31 32 32
36 36 36 35 34 33 32 36 40 44 45 44 43 42 40 34 34 34 37 36 36 37 36 38 39 38 38 42 41 40 39 38 35 35 36 34 33 31 31 32 26 33 39 35 34 36 36
37 36 36 36 34 33 33 35 39 43 44 44 45 44 41 36 36 36 36 37 38 39 38 37 40 41 42 41 36 34 35 34 35 35 35 36 35 33 30 28 29 34 39 37 35 34 38
37 36 36 37 34 33 34 35 39 42 43 44 45 47 44 38 37 39 37 38 37 37 38 39 43 45 44 40 36 31 28 30 31 34 37 38 37 34 31 28 23 25 36 39 38 33 38
37 36 35 36 35 33 35 35 38 41 43 45 44 49 45 38 40 39 37 37 38 37 35 38 39 40 43 38 34 31 30 33 30 29 30 33 34 32 29 29 29 32 30 32 31 26 32
36 36 35 36 36 34 35 35 37 41 43 45 44 47 46 41 41 41 40 40 40 38 35 38 38 40 39 36 34 34 31 33 32 32 34 32 31 30 29 29 24 32 28 25 27 33 33
35 37 34 35 36 36 35 34 37 40 42 44 43 48 49 43 42 45 42 41 41 41 39 41 39 40 40 38 37 36 36 35 33 30 36 32 34 33 31 29 33 33 33 34 33 34 34

GFSGBSN_sfc_30mbdewp_018.txt.gz
Dewpoint
42 42 41 42 43 42 45 47 49 50 56 55 55 55 56 55 53 51 52 52 52 51 52 52 54 55 53 47 47 49 52 48 55 57 52 50 46 43 38 40 41 41 42 43 43 43 43
40 40 41 39 39 43 42 44 46 48 51 55 54 55 54 55 54 52 52 52 53 52 52 53 53 54 48 37 42 45 45 47 55 55 52 52 48 47 44 42 39 40 40 40 41 40 42
39 39 38 38 39 41 42 43 44 46 48 51 55 55 54 54 54 53 52 53 53 52 52 51 52 51 46 39 45 45 44 45 47 51 51 53 50 47 46 43 44 42 39 40 40 40 39
38 38 37 38 35 36 40 42 42 43 46 48 53 55 54 54 54 54 53 53 53 54 53 52 52 49 38 44 47 45 44 41 44 44 41 47 51 49 43 40 39 38 38 34 36 38 39
37 37 36 37 36 38 36 41 43 42 43 46 48 52 55 53 54 54 53 53 53 53 53 53 48 44 36 43 44 43 43 40 41 42 40 40 42 37 38 36 34 35 31 32 33 36 37
36 36 35 37 38 35 36 40 42 43 42 44 46 49 53 54 53 54 54 53 52 52 52 51 47 41 40 37 41 42 44 41 38 38 37 37 37 36 36 34 27 29 31 33 32 34 35
37 35 36 36 36 36 36 40 42 42 44 41 45 48 52 54 54 53 52 49 42 40 47 41 42 40 38 41 42 41 42 40 38 36 35 35 35 33 34 34 34 33 33 32 33 35 34
36 38 37 38 37 36 35 40 42 43 44 42 44 48 51 52 55 54 49 42 40 39 36 43 45 43 42 42 38 40 42 38 37 34 35 34 31 33 34 34 33 32 30 30 30 32 32
38 38 39 38 37 35 35 38 41 43 45 44 44 46 50 51 56 52 47 42 45 42 34 36 42 43 42 42 39 39 40 38 37 35 34 31 30 33 33 32 31 31 30 29 28 29 30
40 38 39 38 36 35 34 38 41 42 43 43 45 46 49 50 52 50 46 46 45 39 26 27 38 41 43 42 37 41 40 38 36 34 34 34 34 32 31 30 31 28 30 31 31 30 24
39 38 39 38 36 36 36 38 40 42 43 45 46 47 49 51 50 46 47 47 43 33 15 31 37 43 43 37 37 39 41 38 34 34 34 31 32 33 32 30 31 28 30 31 32 31 30
41 40 39 39 37 36 38 38 38 43 44 46 46 47 49 46 50 48 47 46 38 22 17 31 36 37 39 38 37 39 40 40 40 35 34 32 35 33 31 31 31 32 31 31 31 30 23
42 40 40 40 38 37 37 36 38 43 46 46 47 47 46 46 46 48 47 39 26 20 29 30 31 34 33 34 35 36 37 36 33 29 29 33 34 36 35 31 32 32 31 23 22 22 18
40 40 40 40 39 38 34 36 37 43 46 46 47 46 47 47 50 47 43 27 22 22 26 32 31 32 29 31 32 34 34 32 36 35 30 26 23 32 36 32 28 30 28 23 16 16 18
39 40 40 39 39 37 34 35 37 43 45 46 48 47 45 47 50 46 34 24 22 22 31 30 32 28 29 32 32 30 32 30 30 35 29 26 24 33 36 34 31 31 27 28 25 25 23
40 40 39 39 39 37 33 35 39 43 45 46 45 41 40 46 50 41 30 26 24 29 33 31 26 28 26 29 30 30 27 29 29 30 33 29 24 27 32 35 33 32 33 26 26 17 15
37 39 39 39 39 37 34 34 40 42 45 47 44 37 41 49 48 39 30 27 26 37 34 31 29 29 28 28 30 27 27 28 32 31 32 31 28 25 31 30 27 30 29 30 28 27 17
38 39 38 38 38 36 33 35 40 42 45 44 41 30 45 49 35 36 31 29 33 37 37 35 33 31 29 30 29 28 27 28 32 33 31 32 31 25 25 29 30 28 27 27 21 19 23
38 38 38 37 38 37 31 35 40 42 44 42 38 37 48 43 30 32 33 33 34 37 36 34 33 33 34 32 28 29 29 30 33 33 32 32 29 24 24 29 30 30 30 28 27 27 20
38 38 37 37 37 37 32 35 39 43 44 44 40 32 39 41 39 34 31 31 32 35 35 35 36 36 35 34 31 29 29 30 33 33 35 33 32 27 23 25 31 28 30 32 30 24 21
38 38 37 37 37 36 33 34 38 43 45 44 39 34 36 31 33 33 31 31 31 34 35 37 36 34 36 32 33 32 31 31 32 32 37 35 29 31 31 32 32 31 31 31 29 27 22
37 38 37 37 36 34 34 34 39 44 45 42 38 38 38 35 37 33 32 33 31 33 35 34 34 35 37 34 32 27 32 31 29 35 35 37 30 31 28 31 31 29 32 32 31 29 28
38 38 37 36 37 34 33 35 38 42 45 38 39 41 39 36 36 32 32 33 34 35 37 36 37 37 36 38 38 38 37 36 35 35 34 34 30 29 25 31 32 28 30 32 31 32 29
38 37 37 37 37 35 34 34 36 41 44 43 41 41 39 33 35 33 34 34 36 36 35 38 38 38 39 42 41 40 38 37 37 36 36 35 32 31 27 31 26 33 38 35 31 32 31
38 37 37 36 36 36 33 34 37 40 42 43 43 42 42 34 35 34 37 37 37 38 38 38 38 40 42 40 37 32 35 35 35 37 35 36 34 31 29 29 30 30 38 36 33 32 33
36 36 36 36 36 37 34 35 36 39 41 43 43 46 44 37 34 34 34 38 37 37 38 39 43 43 42 40 36 30 25 30 29 33 35 35 35 32 32 27 24 27 38 40 39 33 37
35 35 36 36 35 36 36 36 35 39 41 43 43 46 45 40 40 39 36 37 39 37 36 37 39 40 43 37 32 30 30 33 29 30 31 34 35 32 31 27 29 32 34 39 31 27 31
37 37 37 36 36 36 36 36 35 39 40 43 41 46 45 42 41 40 40 39 39 38 36 38 38 39 38 34 34 33 33 33 33 32 32 30 29 30 29 29 24 32 35 29 29 32 33
37 37 37 37 37 37 36 35 35 39 40 43 40 43 48 45 42 45 43 41 41 40 40 40 38 38 39 38 36 36 35 34 32 28 35 32 33 31 30 28 32 34 33 34 34 33 34

GFSGBSN_sfc_30mbdewp_021.txt.gz
Dewpoint
41 41 40 40 40 39 40 42 43 44 45 49 51 54 56 55 56 54 50 52 52 52 52 52 54 55 53 48 46 49 51 49 54 55 52 50 44 41 38 40 41 42 42 43 43 42 42
39 40 39 38 39 39 38 38 40 42 43 44 49 52 54 55 54 55 53 53 52 52 52 53 52 53 47 38 42 45 45 46 55 56 53 50 47 45 42 41 39 39 40 41 41 40 40
40 38 38 38 38 39 39 39 39 40 42 43 44 50 52 54 54 54 53 53 53 53 52 51 52 50 46 39 45 45 44 44 49 54 52 53 50 46 45 42 44 42 39 38 39 39 39
38 38 37 38 37 37 36 35 38 41 42 43 43 46 49 53 55 54 54 53 53 53 53 51 52 48 38 43 47 45 44 42 45 42 47 53 51 49 45 41 39 38 38 32 35 38 39
36 38 37 37 39 39 37 37 34 41 43 42 44 42 47 52 53 54 53 54 53 52 53 53 48 43 36 43 44 44 43 40 42 42 41 50 43 39 39 37 33 36 30 34 33 36 37
37 39 36 39 40 40 37 37 35 40 42 43 44 43 43 48 52 54 54 53 53 51 51 51 47 41 41 37 42 43 44 40 39 39 39 38 37 36 35 34 25 28 31 32 30 33 35
42 40 39 39 40 38 36 35 36 39 42 43 44 45 46 46 51 54 54 49 44 43 46 41 41 39 39 41 42 42 43 39 38 37 36 36 35 32 33 34 33 33 32 32 33 34 32
41 41 40 40 39 38 37 35 36 38 42 42 44 43 44 45 50 52 51 44 42 39 37 42 44 43 42 43 38 41 42 38 36 34 35 34 32 33 34 33 33 33 32 31 31 31 30
40 40 40 40 41 38 38 37 37 40 42 41 43 43 43 45 48 50 48 43 43 40 31 35 41 42 41 41 39 39 40 38 36 34 34 31 30 32 33 33 31 31 30 29 28 30 30
41 42 41 40 41 40 39 38 39 40 39 42 44 44 45 46 46 48 46 45 44 35 23 27 36 40 42 42 36 41 40 38 36 34 33 31 33 33 32 31 32 29 31 30 30 28 23
42 41 41 40 40 40 40 38 38 37 38 42 45 47 46 46 46 46 47 47 41 34 14 30 37 43 43 37 35 39 41 38 35 34 34 30 32 34 31 30 31 29 30 29 29 30 28
38 39 40 40 40 40 40 38 36 36 40 45 46 46 46 46 46 46 49 44 34 23 16 31 36 37 38 37 38 39 39 40 39 35 35 31 35 32 32 33 32 33 32 30 31 30 23
38 40 40 40 40 40 39 38 35 37 42 46 45 46 46 45 38 50 49 42 26 19 29 30 31 36 34 33 35 36 37 36 33 29 29 33 34 35 34 31 32 31 30 23 21 22 18
37 38 39 40 39 40 39 36 35 36 42 45 44 46 46 44 46 50 45 34 22 22 26 31 31 33 30 32 32 35 34 33 35 34 30 26 21 33 35 31 29 30 29 21 15 16 16
36 38 39 39 39 39 38 36 33 38 43 46 45 46 45 45 47 49 37 27 21 23 30 31 31 29 29 30 32 30 32 31 32 36 29 26 25 31 34 34 31 31 27 28 25 23 22
36 38 39 39 38 39 37 36 33 40 43 45 43 42 42 47 50 44 34 29 23 32 32 32 28 28 27 28 30 29 28 29 31 34 33 28 24 27 32 35 34 33 32 25 27 17 15
39 39 39 38 38 38 37 35 35 39 43 45 43 37 42 50 48 36 30 27 29 35 32 30 29 28 28 29 29 29 27 27 31 30 32 31 27 25 32 30 26 31 29 30 29 26 18
40 38 38 38 38 38 38 35 35 38 44 43 40 32 43 46 32 32 31 29 37 36 37 34 33 30 28 29 30 26 27 27 32 32 30 31 30 25 24 27 31 30 27 28 24 19 24
39 38 38 37 38 37 37 34 35 39 43 43 36 37 47 41 29 31 33 33 36 36 35 33 32 32 33 30 28 29 29 30 33 32 31 32 29 23 21 29 29 30 30 30 31 29 23
39 38 38 38 38 38 36 34 35 39 43 45 37 31 35 39 38 34 30 32 33 36 35 35 35 35 34 33 31 29 29 30 32 33 34 32 30 24 18 21 30 28 30 31 30 24 21
39 39 38 37 37 38 35 35 36 40 44 44 40 34 36 30 34 33 29 31 32 32 36 35 36 34 34 32 32 31 31 30 33 34 35 33 28 30 30 29 29 30 30 31 29 27 24
39 38 38 38 37 37 36 34 36 40 45 40 35 36 38 35 36 31 31 29 30 35 33 34 33 35 34 34 34 30 32 31 30 32 34 35 29 32 29 32 32 29 31 31 31 31 29
38 38 37 38 36 37 36 34 37 39 44 39 39 39 39 35 34 32 31 32 31 33 36 36 35 34 35 35 38 39 38 35 35 35 34 35 31 29 26 30 32 28 33 32 32 33 30
35 36 36 37 36 37 37 34 37 38 43 42 40 40 37 33 33 32 32 34 34 33 35 38 38 37 39 41 43 41 39 38 38 36 36 34 32 31 27 31 25 34 38 37 34 32 32
37 36 36 37 36 36 37 36 37 37 42 41 42 40 40 34 36 33 34 32 34 35 38 37 39 40 41 41 36 34 33 35 35 37 37 36 34 30 28 29 30 32 35 36 33 33 33
37 37 37 37 36 36 37 36 37 36 41 41 42 45 42 37 35 35 36 36 35 36 37 39 42 43 41 38 36 29 25 29 28 31 35 36 36 32 30 27 25 29 33 40 37 29 35
37 37 37 38 38 37 37 36 36 36 40 42 42 45 42 40 40 36 33 35 39 38 37 39 40 41 42 36 32 30 29 33 28 29 31 32 33 29 29 29 28 31 33 39 26 26 32
36 36 37 36 36 36 37 36 35 36 40 42 40 45 41 42 41 40 40 39 39 38 36 39 38 38 38 34 33 32 31 32 32 31 31 30 29 30 30 27 25 32 37 31 29 32 33
35 35 35 36 36 36 37 36 34 37 39 41 39 41 42 41 42 45 43 42 41 41 40 41 39 38 38 37 37 37 34 33 31 28 34 31 32 31 30 28 30 34 32 34 34 33 33

GFSGBSN_sfc_30mbdewp_024.txt.gz
Dewpoint
41 40 40 39 40 39 40 39 39 38 41 42 44 45 48 52 54 55 56 52 53 52 52 52 53 54 51 47 45 48 51 48 54 56 52 48 44 41 38 38 40 38 35 39 39 42 40
40 38 39 38 39 40 40 39 37 36 39 43 43 44 44 50 52 55 55 53 53 53 52 53 52 54 44 40 41 44 45 47 52 54 52 49 46 43 40 39 38 37 39 39 39 38 38
37 37 40 39 39 40 41 40 39 38 36 42 44 41 43 45 51 54 55 54 53 53 52 53 52 50 45 36 42 44 45 48 51 53 50 50 48 46 44 41 42 41 38 36 36 36 36
39 39 39 40 38 40 40 39 37 37 37 41 43 44 44 43 49 52 55 54 54 54 53 51 52 47 38 44 46 44 43 45 46 49 52 52 50 47 43 41 38 36 36 32 33 36 37
41 42 41 40 41 41 40 38 38 36 38 41 43 44 45 45 45 51 54 55 54 54 53 52 47 42 37 43 42 42 42 45 43 42 48 51 48 41 41 36 33 33 27 30 31 33 33
43 38 42 41 41 42 41 40 39 36 38 39 43 44 45 45 45 48 52 57 53 52 52 49 45 41 41 37 41 42 43 43 42 41 42 42 39 35 34 33 26 25 29 28 27 29 33
42 41 41 42 41 40 40 41 40 38 37 39 43 44 44 43 43 45 51 53 46 44 47 42 40 38 39 41 42 41 41 39 40 40 37 39 36 31 31 31 30 30 29 29 29 31 31
42 43 42 41 41 40 41 41 40 39 39 41 41 40 43 43 43 44 48 46 40 39 38 43 43 41 42 41 38 40 41 36 37 35 37 35 33 32 32 32 31 30 29 28 29 29 30
43 43 42 42 41 41 41 41 40 38 38 39 39 44 43 43 45 44 45 47 47 40 33 38 42 41 41 41 37 38 40 38 34 34 34 30 31 32 32 32 31 29 28 28 28 29 29
40 41 41 41 41 42 41 41 40 40 37 38 42 44 46 46 44 42 44 48 48 42 30 31 37 38 42 40 36 40 39 37 36 32 33 32 32 32 31 31 30 27 28 28 28 27 23
36 40 40 40 41 41 40 40 40 38 37 39 43 47 44 46 40 42 45 49 48 40 21 31 37 43 40 35 36 39 40 37 33 33 33 30 32 32 31 30 31 28 29 28 28 27 26
41 40 40 40 40 41 40 40 39 37 38 40 43 45 44 45 45 44 50 48 43 29 19 31 37 38 38 36 35 40 38 39 36 33 33 30 34 33 31 31 31 32 30 29 28 28 24
37 37 39 40 40 40 39 40 38 35 37 42 44 44 45 45 37 47 49 41 27 25 29 30 31 36 34 34 35 35 35 35 31 29 29 31 31 33 33 31 32 32 30 21 21 22 16
38 41 40 40 40 38 39 38 36 35 38 43 47 44 45 44 45 47 45 33 25 25 27 31 32 34 31 31 32 33 34 33 33 32 28 25 24 31 35 31 27 29 27 20 13 11 11
41 41 40 39 39 38 39 38 37 36 41 44 45 44 45 45 46 45 36 28 27 24 29 29 31 29 30 30 31 32 31 30 32 33 27 27 24 29 32 32 31 30 28 28 25 22 20
40 40 39 39 38 39 38 38 36 36 41 44 41 42 41 45 47 43 33 30 25 31 30 30 27 27 26 28 29 28 28 29 29 31 32 30 25 26 31 33 33 31 30 25 27 16 13
40 40 39 38 38 39 38 37 35 38 41 44 41 36 42 47 46 37 30 30 33 32 32 29 29 28 28 28 28 27 27 27 30 31 34 30 26 25 32 29 25 31 29 30 27 26 15
40 40 39 38 39 38 39 35 36 38 42 42 39 32 43 45 33 33 32 31 35 33 36 33 30 29 28 29 28 27 26 27 30 32 31 29 28 23 25 25 27 25 26 27 24 22 26
40 40 39 38 39 38 38 35 37 39 41 43 36 36 45 44 30 31 35 35 36 34 34 32 31 31 31 29 28 27 28 30 31 31 29 30 29 23 23 29 28 27 27 26 31 29 25
39 39 38 38 39 37 38 35 37 40 42 45 36 31 36 39 39 33 32 33 34 37 34 35 33 34 31 29 30 29 29 31 32 31 33 31 29 25 20 22 27 29 30 31 31 25 23
37 39 38 37 38 36 38 36 38 41 43 42 39 34 37 31 34 31 32 33 31 31 36 35 34 33 31 30 31 30 30 30 33 33 33 32 28 29 29 29 29 30 30 31 30 29 25
38 35 37 37 38 36 37 37 37 41 43 39 34 33 38 35 35 30 30 30 31 33 33 33 32 34 34 32 32 30 32 32 30 32 32 34 29 32 29 30 30 31 34 34 33 32 31
37 38 37 37 37 36 37 38 37 39 43 39 39 39 37 34 34 30 29 29 31 34 35 36 34 33 32 34 35 37 37 34 33 32 32 33 32 29 26 29 31 30 34 35 35 35 33
38 37 37 37 38 36 37 38 37 37 41 41 40 40 35 32 33 31 32 32 31 32 35 37 37 35 38 40 42 41 39 39 38 36 35 33 33 32 27 30 25 35 38 37 37 35 34
37 37 37 37 38 37 37 38 37 36 41 42 42 39 38 34 32 32 33 32 36 35 35 36 39 40 41 41 36 33 32 34 34 37 36 36 33 31 27 28 28 34 35 37 34 34 32
36 36 36 37 37 37 37 37 37 36 40 41 43 44 41 37 33 34 33 33 32 32 33 36 42 43 41 39 34 30 26 27 28 32 36 37 36 33 30 26 24 31 34 39 36 27 32
36 35 34 35 36 36 36 38 36 36 39 41 41 43 40 38 39 37 34 35 38 37 37 39 41 41 41 37 31 31 27 32 27 28 31 32 33 29 30 28 29 31 33 39 28 27 33
36 35 35 35 35 36 37 36 35 35 38 40 40 43 39 37 41 40 38 37 39 38 36 39 38 39 38 34 33 33 32 31 32 31 31 31 30 30 32 29 26 32 35 31 32 34 34
36 35 34 33 33 32 32 32 33 34 36 38 37 42 41 37 43 45 44 43 41 40 41 40 39 39 38 36 36 37 34 33 32 27 33 31 31 31 31 29 32 34 34 34 35 34 34

GFSGBSN_sfc_30mbdewp_027.txt.gz
Dewpoint
40 39 40 41 41 40 40 40 41 40 39 38 38 42 44 43 46 51 53 56 55 53 52 52 52 53 50 46 46 50 52 49 54 55 50 45 41 38 35 33 33 35 35 32 35 37 38
40 40 41 41 40 41 41 41 41 39 39 39 38 42 44 44 43 46 52 55 55 53 53 52 52 53 47 40 43 46 46 46 48 53 51 48 44 40 38 36 36 35 35 34 36 35 36
41 42 44 42 41 41 42 42 41 40 39 39 38 41 44 45 45 46 50 52 55 53 53 53 52 49 43 37 39 41 42 45 50 51 51 50 48 43 42 38 39 39 37 36 36 36 36
43 44 42 41 42 43 44 43 42 42 40 39 38 42 43 45 46 46 48 51 54 55 53 53 52 45 40 43 43 42 42 47 50 52 51 51 49 46 43 41 37 36 35 32 31 33 33
42 43 43 42 44 44 43 42 42 43 42 41 38 39 42 45 46 45 46 49 52 56 53 52 47 43 38 43 39 40 41 45 45 49 52 52 48 43 42 37 35 34 29 29 29 32 32
43 42 43 43 44 42 42 42 42 41 41 41 40 41 43 45 45 44 44 47 50 55 52 49 45 42 39 37 39 39 41 44 41 45 46 46 41 38 37 36 30 27 28 28 26 27 30
44 43 43 42 43 42 43 43 42 42 40 40 41 42 43 44 44 44 44 45 48 46 49 42 42 37 39 40 41 39 41 43 41 41 36 39 36 34 33 33 30 28 27 26 27 28 28
41 39 39 41 41 42 42 41 42 41 41 41 38 39 44 43 43 43 43 40 42 45 41 42 41 40 40 39 37 38 41 39 39 36 36 36 33 32 31 30 29 29 28 27 27 27 27
38 42 42 41 39 41 41 41 41 41 41 41 37 40 43 44 44 46 41 41 44 48 39 40 40 38 40 40 35 38 39 37 37 34 35 33 31 32 31 30 30 29 28 26 26 26 26
41 41 39 39 41 41 41 41 40 41 41 38 37 42 44 45 44 42 40 41 47 48 34 35 39 38 41 39 36 38 38 36 34 31 33 32 31 29 30 30 29 27 27 27 26 26 23
40 39 41 41 41 41 41 39 40 40 39 37 40 42 44 46 43 38 40 48 48 44 23 33 36 39 39 35 37 38 39 37 32 31 32 30 30 30 29 28 29 27 29 28 27 26 26
39 41 42 42 41 40 40 40 39 38 37 38 41 42 45 43 44 42 46 45 43 29 23 31 37 36 36 33 35 37 37 38 34 30 31 29 32 31 30 31 30 32 28 28 27 26 22
39 42 41 40 40 39 39 39 38 38 38 39 42 45 44 43 37 46 48 39 26 24 30 31 31 35 33 31 33 36 36 35 30 29 28 30 29 30 31 29 31 30 28 21 22 23 17
39 41 41 40 40 39 39 38 38 37 37 41 45 44 44 42 44 47 42 34 24 29 26 29 32 33 31 32 32 32 32 32 31 28 27 25 26 29 32 30 28 29 27 19 13 12 13
39 41 41 40 39 39 39 39 36 36 40 43 44 43 44 44 45 42 36 27 30 26 29 30 32 30 32 30 32 31 30 30 30 31 28 25 26 28 32 31 29 28 27 27 23 21 18
39 41 41 40 39 39 38 39 35 38 41 43 43 41 41 45 44 41 33 30 29 29 29 31 27 28 26 29 28 28 29 30 29 30 29 30 26 26 30 31 30 29 30 25 27 17 13
39 41 40 39 40 38 38 38 36 39 41 44 41 35 43 46 43 37 31 32 30 30 30 28 27 26 26 27 27 26 27 28 29 29 32 29 26 27 29 28 25 29 28 28 24 28 17
39 40 40 38 39 37 38 38 37 41 43 45 40 31 46 46 33 33 33 36 31 32 33 30 28 28 27 27 27 27 26 25 29 29 29 29 26 24 25 24 25 24 27 26 25 20 25
39 39 38 37 39 37 38 38 38 40 44 44 37 36 44 45 31 32 36 36 34 32 32 30 30 29 28 27 26 26 26 30 29 30 28 29 28 23 26 27 26 24 25 25 29 29 26
39 39 38 38 39 37 37 38 39 41 44 43 38 32 38 40 39 33 35 35 33 35 34 32 32 29 28 27 29 27 28 30 30 30 33 30 28 26 22 24 28 29 30 29 32 26 24
37 38 38 37 38 36 38 39 39 41 44 42 38 35 37 32 34 32 34 34 32 30 34 33 32 31 29 27 28 28 29 30 32 32 31 30 29 29 29 28 28 29 30 30 31 31 28
38 38 37 37 38 37 38 39 38 41 43 40 34 34 36 35 33 31 32 33 29 32 30 31 30 32 32 29 30 29 30 29 29 32 31 33 30 31 29 27 28 29 30 33 35 34 34
37 37 38 37 38 38 38 38 38 39 43 39 40 40 37 35 30 28 29 30 31 31 35 35 32 32 31 33 35 34 35 35 33 32 31 33 32 30 25 29 30 30 35 35 36 37 35
37 36 36 37 38 37 37 38 38 38 42 42 40 40 36 31 30 28 30 30 30 31 33 35 34 33 38 40 40 40 38 37 37 36 33 31 33 32 27 29 25 32 35 36 37 37 32
36 36 35 35 36 36 36 38 37 37 40 41 42 40 37 34 30 30 31 30 30 33 33 34 38 39 41 40 36 31 33 34 34 37 36 34 32 30 27 25 25 30 33 33 36 35 33
37 36 35 36 37 37 38 38 36 36 39 41 43 43 40 35 32 32 30 31 31 32 34 35 40 42 40 37 35 28 28 26 28 33 36 36 36 33 30 26 23 29 32 35 37 31 33
37 36 35 35 34 33 34 34 35 35 37 39 41 42 39 36 39 37 31 32 33 33 34 37 40 40 41 36 32 28 27 30 26 26 30 33 33 30 30 28 28 29 32 39 31 29 34
37 36 36 35 34 34 33 33 33 34 35 37 38 42 38 36 37 39 37 36 38 37 33 40 38 39 38 35 32 30 30 30 29 28 30 30 30 29 31 29 26 32 33 32 34 35 34
37 36 36 35 35 34 34 33 33 34 33 35 35 40 40 37 38 45 44 43 42 41 40 40 39 38 37 35 35 35 34 32 29 26 32 29 29 31 31 29 32 35 35 36 36 35 34

GFSGBSN_sfc_30mbdewp_030.txt.gz
Dewpoint
42 43 42 43 43 42 41 43 43 42 42 42 41 41 40 41 45 45 45 49 53 56 55 53 52 53 50 46 45 54 54 55 56 56 52 48 41 39 36 33 35 34 35 33 34 34 35
44 44 45 44 42 42 44 46 45 43 43 43 42 41 39 43 45 45 45 48 52 55 56 53 52 53 49 40 44 47 46 46 49 54 52 49 41 39 36 34 32 33 34 35 34 33 35
46 43 43 44 44 43 45 43 45 45 44 44 42 42 40 41 42 45 46 47 50 53 57 53 53 50 41 41 39 42 44 44 47 50 51 51 47 43 41 37 39 37 37 37 36 35 35
47 43 44 44 46 46 43 45 44 44 44 43 43 42 40 40 43 45 46 45 47 51 53 53 53 47 40 43 43 41 40 42 47 50 51 52 48 46 44 41 38 37 37 35 33 35 35
42 44 43 41 42 43 43 44 44 43 43 42 42 42 42 42 44 45 46 45 45 47 50 55 49 46 38 43 40 42 39 43 46 52 52 51 48 44 42 38 36 34 32 31 31 33 31
46 42 40 42 43 43 42 42 42 42 42 42 42 42 41 43 44 45 45 44 45 47 53 53 46 43 40 38 38 39 39 44 43 50 50 48 42 40 39 37 31 31 31 31 29 31 31
41 41 42 41 42 41 41 42 42 42 42 42 42 42 39 43 44 44 43 42 42 45 49 42 42 37 37 40 40 38 40 43 41 44 39 44 39 36 36 37 35 34 29 26 27 27 27
42 42 41 42 42 42 42 42 42 41 41 42 43 42 39 44 43 45 44 37 38 44 41 45 43 38 39 40 37 38 42 40 40 39 38 37 35 35 37 35 32 29 28 27 28 27 26
41 40 42 43 43 42 41 41 41 40 41 41 41 39 41 44 45 44 41 39 45 44 37 41 43 39 39 38 37 38 41 39 37 36 36 31 31 33 32 31 29 29 28 28 26 27 27
42 41 43 42 42 41 41 40 41 41 39 38 38 40 42 44 43 42 40 42 46 44 30 37 39 38 40 39 36 39 40 38 37 35 36 34 33 29 30 31 30 28 28 28 27 26 23
41 41 42 42 41 40 40 40 40 39 39 39 40 41 43 44 43 39 41 46 45 41 21 37 38 40 40 36 37 38 39 36 33 33 33 31 30 31 29 29 29 27 30 28 27 26 25
40 40 42 42 41 40 40 40 40 39 38 39 41 42 44 44 43 42 46 45 39 24 21 33 37 37 37 36 36 37 37 37 35 31 31 31 31 31 30 30 31 31 28 28 28 27 22
39 40 42 42 41 40 40 39 39 36 38 40 41 43 44 43 40 46 45 40 23 20 34 31 34 35 33 33 35 35 35 34 31 29 29 30 30 31 31 30 31 31 27 23 23 22 17
39 40 42 42 40 40 39 39 39 36 38 43 43 44 43 44 45 44 42 29 20 31 31 30 33 33 30 31 33 34 34 32 32 29 28 26 24 30 31 29 29 29 27 22 16 18 18
39 40 42 41 39 39 38 39 36 37 43 44 45 43 44 45 47 43 38 20 23 29 28 31 33 30 31 30 32 32 32 30 30 31 27 26 25 29 31 30 29 28 27 27 24 21 19
39 41 40 40 39 39 38 40 37 39 44 47 44 40 43 46 44 40 34 30 32 29 30 31 29 29 28 29 29 30 30 30 28 30 29 29 25 28 31 29 29 28 29 25 26 17 15
40 40 38 39 40 39 38 39 38 41 45 46 40 36 44 45 43 37 29 31 32 31 31 28 27 26 27 27 27 27 27 28 29 29 30 29 26 27 29 28 27 28 27 28 26 26 20
40 39 38 38 40 37 38 39 39 41 46 45 39 32 45 44 33 35 32 35 35 32 31 28 27 26 26 27 27 25 26 27 30 30 28 29 25 25 26 26 29 28 27 26 22 20 23
40 38 39 37 40 37 38 40 39 41 45 44 37 35 42 44 30 32 35 36 36 32 30 30 28 28 27 26 26 27 27 28 29 29 29 29 26 23 26 26 25 24 25 27 27 27 24
39 38 38 38 39 38 39 40 41 41 44 44 39 32 38 42 40 34 35 35 34 35 33 31 29 29 27 27 29 27 29 30 29 30 31 30 28 26 24 27 30 28 29 28 28 27 25
38 37 38 38 39 38 39 40 41 42 44 42 38 35 37 34 35 33 35 35 31 30 33 33 31 29 28 26 28 27 29 31 30 32 30 30 28 28 28 28 28 28 29 29 30 31 28
38 37 37 37 38 38 37 40 39 42 44 40 36 34 37 35 33 32 34 35 30 30 31 30 30 31 30 27 30 27 28 29 30 31 31 31 29 31 27 28 28 28 29 30 33 35 34
37 37 36 35 36 37 37 40 38 40 42 39 40 40 38 34 32 29 30 29 30 32 35 34 32 31 33 35 36 35 35 35 34 31 31 33 32 29 23 28 29 29 31 35 36 37 37
37 37 36 36 37 38 38 39 38 37 41 42 41 40 36 31 30 30 29 29 31 33 32 34 34 35 39 40 40 39 37 36 36 35 34 32 33 31 26 29 25 31 35 36 36 35 38
37 37 36 36 35 35 36 36 36 37 38 41 42 40 37 34 31 30 30 29 32 34 33 34 38 40 40 39 35 33 33 35 34 36 36 34 34 30 26 26 25 26 34 32 34 34 35
39 37 36 36 35 35 34 34 34 35 37 38 42 42 39 35 34 37 30 31 30 31 33 36 42 43 40 38 33 26 27 30 31 33 37 37 35 32 30 25 22 30 32 35 37 33 36
40 36 37 36 36 35 34 34 34 34 36 36 40 40 39 35 39 39 32 32 32 32 36 38 40 40 41 36 31 28 27 30 26 30 31 33 34 30 30 28 28 29 34 38 31 30 35
41 36 36 36 36 36 35 35 34 34 35 36 36 41 37 35 37 39 40 36 34 37 34 40 38 38 37 34 33 30 28 30 30 29 31 29 29 29 31 28 26 33 34 32 34 35 36
41 36 36 34 37 35 35 34 35 32 34 35 33 37 39 36 37 40 41 45 42 42 41 40 39 38 39 37 35 35 33 32 30 27 32 28 31 32 31 30 33 36 35 36 36 35 35

GFSGBSN_sfc_30mbdewp_033.txt.gz
Dewpoint
46 47 44 44 44 43 45 46 47 45 46 45 44 44 43 41 40 42 44 46 46 51 53 56 55 53 52 47 45 54 57 55 55 56 53 51 47 42 38 38 38 36 36 36 36 35 35
46 48 45 45 45 47 46 44 45 46 46 46 44 43 43 43 42 40 42 45 47 50 52 54 55 53 50 41 45 52 53 55 55 54 53 52 46 42 38 38 34 33 35 36 36 36 36
45 42 48 43 44 42 43 44 45 45 45 44 43 43 43 43 41 41 43 46 46 47 50 52 56 52 44 41 41 47 46 46 49 54 51 52 50 43 42 38 40 37 35 37 37 37 36
44 46 40 42 42 42 43 42 42 44 44 44 43 43 43 43 43 43 44 46 46 45 48 50 55 49 42 43 43 40 41 43 44 51 53 52 48 45 43 41 38 35 36 34 35 34 36
47 43 43 43 43 43 43 43 43 43 43 43 43 43 43 43 42 44 45 44 44 45 46 50 52 47 39 44 42 41 39 40 46 50 52 52 49 45 42 38 35 35 32 33 34 34 34
41 44 43 42 45 44 44 43 42 42 42 42 42 43 43 43 43 44 45 44 44 44 46 49 49 42 42 39 40 42 40 41 47 51 50 48 45 42 41 38 31 31 32 32 31 31 32
43 43 42 44 44 43 42 41 41 41 41 41 42 43 42 41 43 44 44 42 37 42 42 44 41 40 39 40 39 41 39 43 48 48 42 44 39 37 38 38 35 34 33 30 29 29 26
44 43 42 44 43 42 41 40 41 41 42 41 40 40 40 42 44 45 46 38 37 41 34 42 42 41 40 39 37 39 41 40 42 39 39 40 36 39 38 37 37 35 30 28 28 28 27
43 42 41 43 43 42 41 41 41 41 40 39 40 39 41 43 44 44 41 39 45 42 33 41 43 41 39 39 37 37 42 40 40 39 37 34 32 38 36 33 32 29 29 28 28 28 27
42 40 42 43 43 41 41 41 40 40 39 38 39 41 42 43 42 42 39 43 43 40 28 36 41 41 39 39 37 39 42 39 37 36 36 33 32 29 31 31 31 28 29 28 28 26 23
40 39 43 43 42 41 41 39 40 41 37 39 41 41 42 43 42 40 43 44 41 38 19 37 40 41 40 38 38 39 41 36 35 35 35 34 32 30 28 30 31 29 29 28 28 26 25
40 39 42 42 42 40 40 38 41 38 37 41 42 43 44 43 44 43 45 41 37 23 16 33 39 37 37 37 37 38 38 37 35 34 34 31 32 31 31 30 31 30 28 27 28 26 20
40 42 42 42 41 39 38 39 40 38 39 43 44 46 45 45 41 46 44 38 16 17 30 30 35 36 35 34 35 36 35 33 30 30 30 31 30 31 32 30 31 30 25 21 20 21 14
39 42 41 39 40 40 38 38 39 39 43 46 47 47 45 45 47 45 42 32 13 27 30 37 34 34 33 33 34 35 34 31 33 30 28 25 22 29 31 30 29 29 25 19 11 18 20
39 40 41 39 41 40 37 39 39 42 45 47 46 44 44 47 46 43 36 20 23 31 34 35 33 29 32 32 33 33 32 30 31 31 26 26 25 31 30 30 29 30 26 27 24 22 19
39 40 40 38 40 39 38 39 39 43 46 45 40 40 41 46 43 39 33 30 30 36 35 31 29 30 29 30 30 31 30 31 29 31 31 30 25 31 31 30 30 27 29 24 25 13 11
39 38 40 37 40 40 38 40 40 42 47 46 39 36 40 46 44 37 29 30 35 36 33 29 29 29 28 29 30 29 28 30 30 29 30 28 26 27 30 27 27 27 26 26 25 24 18
41 38 38 39 39 40 39 40 40 43 46 44 38 32 40 45 32 34 31 32 39 35 34 30 27 28 27 28 29 26 28 27 29 30 28 28 27 25 26 28 30 28 27 26 22 16 24
40 37 38 39 39 40 38 40 39 43 45 44 37 36 42 42 31 32 36 37 38 32 31 30 27 28 29 27 24 25 28 28 30 30 29 29 25 22 25 26 28 27 28 27 26 26 23
40 37 37 37 37 37 38 40 40 42 45 43 39 31 36 41 39 35 35 34 33 34 32 30 28 28 27 28 28 27 29 29 30 32 32 29 28 23 21 26 28 25 28 28 27 26 24
39 38 37 36 37 38 38 40 40 43 44 41 37 35 37 33 33 35 36 35 31 30 32 33 30 27 28 27 27 28 31 30 30 32 30 30 25 27 27 28 28 27 27 28 28 28 27
40 38 37 36 37 38 40 39 39 42 43 40 35 34 35 36 34 32 34 33 32 34 33 31 31 33 31 30 30 27 30 30 29 31 29 31 26 30 27 28 29 28 29 29 29 30 30
41 38 37 37 36 35 36 37 37 39 41 40 39 40 38 34 32 32 32 32 32 33 34 34 33 34 34 37 37 35 34 34 32 30 30 31 30 27 22 25 28 27 29 30 33 35 35
40 39 37 37 36 35 35 35 35 37 39 41 41 40 36 32 30 32 30 31 34 33 33 36 37 35 39 40 40 37 36 35 35 33 32 33 31 30 25 29 23 30 35 34 34 36 37
39 39 38 37 37 36 35 35 35 35 37 38 42 39 36 33 35 31 30 33 34 34 35 37 38 40 40 39 35 33 33 34 35 35 34 34 33 29 26 26 26 29 35 32 34 32 36
38 41 36 37 37 36 35 35 35 35 36 36 42 41 38 34 34 38 34 31 30 33 33 36 42 42 40 38 33 27 27 29 30 33 37 34 35 32 30 25 21 29 32 35 38 32 35
39 42 37 37 37 37 35 35 34 34 35 36 39 39 39 35 38 38 36 33 32 32 35 38 39 40 40 35 31 28 27 31 29 30 31 33 33 29 29 28 28 30 33 38 30 28 35
38 41 37 36 37 37 36 35 33 35 33 34 35 39 35 34 36 38 41 41 36 36 35 39 36 38 36 33 32 31 28 29 30 32 32 29 30 29 31 29 24 31 36 33 33 36 36
38 41 38 35 35 37 34 36 35 33 34 34 33 37 39 35 36 39 39 40 42 42 40 40 38 38 39 36 36 34 32 32 32 27 32 30 30 30 31 29 30 36 35 36 35 35 35

GFSGBSN_sfc_30mbdewp_036.txt.gz
Dewpoint
45 45 46 47 43 43 44 42 44 46 45 45 46 46 44 44 44 44 42 41 42 45 47 51 54 55 52 45 43 48 55 55 55 55 51 49 46 44 40 39 39 37 37 37 37 37 36
46 45 47 43 43 42 45 45 44 43 43 44 45 44 45 44 44 44 42 41 43 47 47 51 52 56 47 38 45 49 55 55 53 54 52 51 48 45 39 38 38 36 37 36 37 36 37
46 45 45 44 42 46 46 45 44 44 43 43 44 44 44 44 44 44 43 43 44 46 46 47 50 53 45 38 43 48 54 54 55 54 51 53 52 43 41 38 38 37 35 36 36 36 36
45 44 44 43 45 45 45 43 42 42 42 43 43 43 43 43 43 42 44 45 44 45 46 46 47 51 41 43 44 43 44 46 51 54 52 52 52 45 43 41 38 36 36 32 34 34 35
43 44 42 41 45 44 43 42 41 41 41 42 42 42 43 43 43 43 44 45 45 45 44 45 46 48 38 46 42 41 41 42 43 51 53 52 49 44 41 37 34 35 31 32 33 35 34
44 42 43 44 44 44 42 42 41 41 42 42 42 42 42 42 42 44 44 45 43 43 44 45 45 41 42 40 42 41 41 40 47 50 50 48 47 43 40 36 30 30 31 32 31 32 31
44 43 42 44 44 44 42 42 41 41 41 41 40 40 41 41 44 45 45 42 34 38 42 35 40 40 40 41 43 41 40 39 50 47 43 44 41 38 39 38 35 33 33 32 32 30 27
44 42 40 44 44 43 42 42 41 41 41 41 39 39 41 42 44 44 44 38 37 39 34 36 39 41 41 40 39 41 40 42 43 41 43 40 37 40 41 41 39 37 32 31 29 29 28
41 39 40 44 43 43 42 41 40 41 42 38 39 41 42 43 43 44 41 39 43 41 33 35 38 41 38 38 38 39 40 41 41 39 39 36 36 40 40 38 36 31 29 28 28 28 27
40 39 40 43 42 42 40 39 39 42 39 39 40 41 42 43 41 42 39 44 43 40 29 33 38 43 39 39 36 41 42 40 39 38 36 35 31 38 38 36 31 28 29 29 28 26 23
40 40 42 42 41 41 40 38 39 39 40 42 42 43 45 45 42 40 42 45 41 39 18 35 40 42 41 38 38 40 42 38 36 36 34 32 32 30 31 32 31 29 29 28 27 26 25
40 41 41 39 41 41 39 37 40 40 43 46 47 46 46 45 43 44 44 42 38 24 19 31 38 38 37 37 38 41 39 36 38 35 32 31 33 31 30 31 30 30 27 27 28 26 19
41 40 40 41 40 42 37 39 39 42 45 47 47 45 45 45 41 46 44 36 17 17 28 30 35 36 35 35 37 38 35 33 34 32 31 31 30 31 31 30 31 27 24 17 17 20 13
40 40 41 37 40 41 38 39 40 42 46 47 45 46 47 46 46 44 41 32 16 24 26 35 35 35 34 33 36 37 33 32 33 30 28 27 26 29 31 30 28 28 25 16 8 14 18
39 38 40 39 38 41 39 40 40 44 47 47 43 42 44 47 45 42 35 23 23 28 32 35 32 32 31 33 35 34 32 30 31 30 26 24 25 31 30 31 29 29 26 27 24 22 19
41 39 38 40 39 41 39 40 40 44 47 46 39 40 42 46 44 40 33 29 30 34 36 32 29 30 29 31 32 31 30 30 29 31 31 28 26 30 31 30 31 28 29 24 23 8 7
41 38 38 39 39 38 38 40 39 43 47 46 38 34 39 45 44 37 29 30 35 37 34 30 31 28 29 28 29 27 27 30 29 29 30 29 26 28 29 27 27 28 26 26 24 21 15
40 38 38 37 36 38 38 40 39 43 46 43 37 28 40 44 33 32 32 34 38 37 37 32 29 29 27 30 27 27 26 28 31 30 28 28 27 25 28 29 29 28 27 25 21 15 24
41 38 38 37 39 38 40 40 40 42 45 42 35 35 42 42 32 33 36 37 38 35 32 30 28 28 29 28 26 26 28 29 31 30 29 28 24 21 23 25 29 28 28 27 26 25 21
41 38 38 37 36 36 38 39 39 41 45 41 37 29 34 39 38 35 34 34 32 33 32 29 29 28 27 26 26 28 28 30 32 31 33 30 26 21 18 23 26 25 27 28 26 24 23
41 39 37 37 37 36 36 37 38 41 44 39 36 34 36 31 33 35 35 34 32 32 33 31 27 27 29 28 28 29 30 29 31 33 32 28 25 27 26 27 28 27 26 27 27 26 24
41 40 38 37 37 36 36 36 37 40 42 39 35 35 37 35 35 33 33 32 32 34 33 32 31 30 30 31 31 29 29 29 28 30 30 30 27 29 26 27 29 27 27 27 27 28 28
40 41 37 37 37 36 36 36 36 38 40 39 40 40 38 33 32 32 31 31 32 33 34 36 34 34 34 37 37 35 32 30 30 29 30 29 28 26 22 25 28 26 28 29 30 30 30
39 41 37 38 37 36 36 35 35 36 37 40 40 40 36 30 31 31 30 34 33 34 33 37 37 33 39 40 39 36 36 33 32 31 32 31 29 28 23 27 23 31 32 33 32 33 35
38 39 38 37 38 37 36 35 35 35 36 36 42 38 37 31 35 33 34 34 34 35 36 36 38 40 40 39 35 31 32 33 34 34 32 34 31 28 25 25 28 32 31 34 32 32 35
37 40 42 36 38 38 37 36 34 34 34 36 41 41 38 33 33 37 37 33 32 32 33 36 42 41 39 37 33 28 27 28 31 34 36 34 35 31 29 25 22 29 32 35 37 31 36
38 39 42 36 38 37 37 36 34 34 34 35 36 39 38 34 37 38 36 33 33 34 33 38 39 39 39 34 31 28 26 31 29 29 31 32 32 29 28 27 28 30 31 38 30 28 35
39 38 41 37 35 37 37 35 36 35 34 34 33 39 36 34 34 37 39 41 38 36 33 38 35 37 35 33 31 30 28 28 30 33 32 29 30 30 31 28 24 31 37 34 34 36 36
38 38 39 40 37 36 37 36 37 36 33 35 32 35 39 35 33 38 38 39 40 42 40 39 37 37 38 34 34 34 31 32 31 27 32 29 30 29 31 29 31 33 35 36 35 35 34

GFSGBSN_sfc_30mbdewp_039.txt.gz
Dewpoint
44 47 46 44 42 44 46 47 46 45 45 44 43 44 44 45 44 44 46 44 43 41 42 46 49 52 53 44 41 45 52 54 55 55 52 50 46 43 40 40 39 38 37 38 38 37 37
46 45 43 45 42 46 46 46 44 42 43 41 42 43 44 44 44 45 44 43 44 41 44 47 49 51 49 38 42 43 44 54 54 54 51 50 46 44 41 39 39 38 37 37 37 36 36
47 44 46 44 43 46 46 43 42 42 42 42 42 43 42 43 44 44 44 43 44 43 45 46 47 49 47 40 43 45 50 54 55 54 51 51 49 44 42 38 38 38 35 36 36 36 36
45 46 44 42 43 45 44 44 43 42 42 41 42 42 42 42 43 44 43 44 45 45 45 45 46 47 43 46 44 42 52 53 56 55 52 53 52 45 42 41 38 36 36 33 34 36 36
45 45 44 42 45 45 45 44 43 42 41 42 42 41 41 42 43 43 44 43 44 44 45 45 44 44 41 45 42 40 42 48 51 53 53 51 49 44 41 37 35 34 31 33 33 34 34
45 44 42 42 45 45 44 44 42 42 42 43 42 41 40 40 42 45 45 45 45 43 43 44 44 42 44 40 39 40 41 43 48 51 50 48 47 42 40 36 30 31 31 31 31 31 32
44 44 43 41 44 44 43 42 42 39 43 43 40 39 40 41 43 44 45 41 35 37 40 32 36 38 41 42 41 40 40 42 48 47 43 46 41 37 38 38 34 32 32 31 32 31 29
43 42 41 42 43 42 42 41 38 40 43 40 39 40 42 42 43 43 44 38 37 39 32 37 38 40 43 42 39 40 40 41 44 41 43 41 38 41 41 40 38 37 34 33 31 30 28
43 40 43 41 42 42 42 41 37 39 42 42 42 42 42 43 44 44 41 39 41 41 32 34 34 39 41 40 38 40 39 43 42 41 40 37 38 42 39 40 38 37 33 31 29 29 27
42 41 40 42 40 42 42 37 41 42 42 45 46 46 45 44 43 42 38 41 42 41 28 32 35 40 43 39 37 40 40 42 40 39 38 36 36 40 40 38 37 31 29 29 27 27 25
40 41 41 42 39 42 40 39 42 43 45 46 46 45 46 46 42 40 42 44 41 38 14 35 37 45 41 36 38 39 44 39 37 38 37 34 34 38 37 36 32 30 29 28 27 25 24
40 41 42 40 38 41 40 40 42 43 46 47 46 47 45 42 43 44 43 42 38 25 18 31 39 39 36 37 39 42 42 39 39 34 33 34 33 32 31 32 31 30 27 26 28 24 17
40 41 40 41 39 41 40 39 42 43 46 47 46 47 46 45 40 44 41 36 23 19 30 30 33 35 34 35 38 38 35 35 35 31 31 31 30 31 32 29 30 27 24 15 11 15 10
41 40 39 39 39 40 39 40 40 43 46 48 45 46 46 45 46 42 40 28 20 27 27 35 35 34 33 35 37 36 34 33 32 32 31 27 26 29 31 30 28 27 25 13 2 9 17
41 40 40 39 38 38 39 40 40 44 47 48 43 42 44 44 45 43 35 24 25 28 31 35 33 32 32 35 36 36 33 33 31 30 26 24 26 31 31 31 29 29 25 26 22 20 19
41 40 39 38 39 40 40 40 41 45 46 47 38 40 40 46 45 40 31 30 31 35 33 31 29 31 29 32 33 33 31 32 30 31 30 27 25 30 30 31 30 28 28 23 22 9 2
41 39 39 39 39 39 40 40 41 44 46 45 38 32 39 44 43 37 29 31 36 37 36 30 30 29 29 29 30 29 28 29 29 30 30 28 27 29 30 28 27 28 27 25 24 19 12
42 39 39 39 38 37 38 39 40 43 46 43 36 29 39 43 36 34 33 35 37 36 37 30 30 29 28 28 27 26 27 28 31 30 28 28 27 26 26 28 29 28 26 26 16 16 23
41 40 39 39 38 37 38 38 39 42 45 41 35 35 40 42 32 33 35 37 37 36 33 29 28 28 29 27 25 26 28 29 31 29 28 27 23 21 23 25 28 27 28 26 24 23 20
41 41 39 38 39 38 37 38 38 41 44 40 35 27 32 36 37 34 33 33 32 34 30 29 29 29 27 27 27 28 27 31 32 30 32 29 25 20 16 21 25 25 27 27 25 24 21
41 42 39 38 39 37 37 37 38 40 43 38 35 34 35 31 32 34 34 33 32 32 33 30 27 27 27 28 29 28 29 30 32 35 32 28 25 26 26 26 27 26 26 27 26 25 23
40 42 39 38 38 38 37 37 37 38 42 39 34 35 37 34 34 33 32 32 32 33 33 29 27 30 30 30 30 29 29 28 28 30 30 28 26 28 24 27 28 26 27 27 28 28 27
38 41 41 38 38 38 37 36 36 37 38 39 40 40 37 33 32 31 30 31 32 33 35 37 34 34 35 36 36 33 31 30 29 29 29 28 27 24 21 24 28 25 27 27 28 29 27
38 40 42 38 38 39 38 36 36 36 37 38 40 39 35 30 32 31 32 34 32 33 33 36 37 34 39 40 37 36 34 32 31 30 31 29 28 26 22 26 21 25 31 29 29 30 31
38 39 42 38 38 39 38 37 35 35 36 35 41 38 36 30 33 33 35 34 34 35 35 35 38 39 40 38 33 30 31 31 32 32 33 32 29 26 24 24 25 30 31 32 33 31 34
38 38 40 41 38 39 38 37 36 35 35 34 40 41 37 33 32 36 37 35 32 32 33 37 41 41 39 36 33 27 26 28 30 33 34 34 33 28 28 24 22 32 33 36 35 29 36
40 39 40 42 38 36 38 38 34 36 34 34 34 37 37 33 35 37 36 34 34 34 32 37 39 37 37 33 30 28 27 31 29 29 31 31 32 28 27 26 28 30 30 38 30 29 36
39 39 39 41 40 38 37 37 36 37 35 34 32 39 34 33 33 35 38 39 40 36 33 37 34 36 35 31 30 29 28 30 30 31 31 30 29 29 30 27 24 31 37 33 34 36 36
40 39 39 39 42 40 37 35 37 37 36 35 32 34 37 33 31 36 36 33 33 40 40 39 35 36 35 33 32 34 31 32 29 27 33 30 31 30 30 29 31 33 34 36 36 35 34

GFSGBSN_sfc_30mbdewp_042.txt.gz
Dewpoint
46 47 45 47 46 46 46 46 46 44 44 42 43 42 43 43 43 44 45 45 45 45 44 42 44 46 52 45 41 45 51 53 51 53 53 50 46 43 41 40 39 38 37 38 39 38 38
48 45 46 45 44 44 46 46 45 45 44 43 42 42 43 43 42 43 44 44 44 44 44 43 46 49 48 40 44 44 43 52 49 54 53 50 47 44 41 40 38 39 38 38 38 37 36
44 46 46 46 44 45 46 46 45 45 43 42 42 42 42 42 42 42 43 44 44 44 44 44 46 48 46 42 46 47 45 52 51 55 52 51 48 44 41 38 40 37 36 36 36 36 36
44 45 44 44 44 46 46 45 45 44 42 44 43 43 42 42 42 43 43 43 44 45 45 44 46 46 40 47 49 49 49 53 54 55 51 51 49 44 41 40 38 37 35 33 34 36 36
44 44 43 44 43 44 44 43 44 42 40 42 44 44 41 41 40 43 44 44 44 44 45 45 43 40 39 46 46 45 43 53 54 54 53 49 48 44 42 37 35 35 31 32 33 36 35
44 43 42 43 43 42 43 43 42 40 39 42 43 39 39 41 42 45 45 45 44 43 43 43 42 37 42 40 42 41 45 51 49 49 48 46 45 41 40 35 28 31 31 32 31 31 34
44 43 42 44 42 42 42 42 38 39 42 44 44 42 41 42 43 44 44 41 35 34 40 31 34 37 42 45 45 42 42 47 49 48 42 44 42 37 37 38 33 33 32 31 32 31 30
43 42 43 41 44 42 43 40 39 43 43 44 45 46 46 43 43 44 44 37 35 38 31 37 36 37 41 45 38 41 43 43 44 41 43 41 37 39 40 38 36 35 33 32 32 30 28
43 42 43 42 40 39 43 39 42 43 44 46 46 46 47 46 44 44 41 38 41 40 31 34 35 39 41 43 40 40 40 44 42 41 40 36 40 42 40 39 37 37 35 33 31 29 27
42 41 42 41 42 39 43 40 42 44 46 47 47 47 45 46 43 43 38 41 43 39 24 28 33 39 42 42 39 41 41 43 41 39 39 36 42 40 39 38 39 34 30 30 28 27 26
42 41 41 40 42 41 42 39 43 43 46 47 47 47 46 46 42 39 42 43 42 38 2 31 36 46 43 37 40 39 45 40 39 39 38 35 39 39 37 38 38 34 29 28 27 26 24
42 42 41 40 40 39 39 40 42 44 46 48 46 47 45 42 43 44 44 41 38 24 18 31 39 37 39 38 39 41 43 41 39 38 37 36 35 35 35 35 35 30 27 26 27 24 18
41 42 41 40 39 39 40 41 41 45 46 48 45 46 46 45 41 43 40 35 23 18 30 30 32 37 35 36 37 38 38 37 35 31 30 34 34 31 32 33 31 27 27 22 11 14 12
41 42 41 40 40 39 40 40 41 44 46 48 47 45 45 45 45 42 39 29 19 26 27 35 35 34 35 35 36 37 36 34 32 33 31 28 27 30 31 29 28 27 24 16 5 5 15
41 42 41 40 40 38 39 40 41 44 46 47 44 41 43 43 46 44 36 25 26 28 32 35 34 33 33 35 35 36 34 32 32 30 27 26 27 31 31 31 29 27 25 25 21 19 17
41 42 40 40 40 39 39 40 41 44 45 47 38 39 39 44 45 39 32 31 34 35 34 31 29 31 30 33 33 33 31 33 30 31 29 27 26 30 30 30 30 28 28 22 20 9 2
41 42 40 40 40 39 39 39 40 43 45 45 37 31 37 43 41 37 30 32 35 37 34 30 29 29 31 31 31 31 28 31 30 30 30 27 27 29 30 28 27 27 26 24 22 19 9
41 42 40 40 40 39 39 39 40 43 45 42 35 30 38 43 34 35 32 34 37 36 36 29 29 29 28 28 27 27 26 28 30 30 27 28 28 25 26 28 29 28 27 24 15 15 21
41 42 41 39 40 39 38 39 39 42 45 41 35 34 38 40 30 32 34 35 37 34 31 28 28 28 29 26 25 27 27 29 31 29 27 26 23 21 24 25 28 27 27 25 23 22 20
40 42 42 40 39 39 38 38 38 40 43 38 33 26 32 35 36 34 32 32 31 34 30 30 29 28 27 26 28 27 27 32 31 30 32 28 24 20 15 20 25 25 27 26 24 22 20
40 40 42 40 39 39 38 38 38 39 42 37 35 32 34 31 32 33 33 33 32 31 32 30 28 27 28 26 29 28 29 31 33 35 31 28 25 25 25 25 26 26 26 27 25 25 21
40 40 42 40 40 39 39 37 37 38 41 38 34 35 36 34 34 32 31 31 32 33 32 29 28 32 31 28 28 27 29 29 29 30 30 28 27 28 24 27 27 26 27 27 27 26 26
40 39 41 40 39 39 39 38 37 37 38 39 39 40 37 33 31 31 30 31 31 33 35 36 33 33 33 35 36 32 31 30 29 29 29 27 27 23 21 24 27 24 27 27 27 28 27
40 39 40 43 39 38 38 38 37 36 37 39 40 39 35 30 31 31 32 33 33 33 32 36 36 34 38 40 37 34 32 31 30 30 30 28 26 25 21 24 18 21 31 29 27 28 28
40 39 40 42 39 38 38 38 37 36 37 34 40 38 36 30 32 32 35 34 34 35 35 35 38 39 40 37 32 30 31 30 31 31 32 30 29 24 22 23 23 29 31 31 30 31 32
39 39 39 40 42 38 37 38 37 37 36 33 39 39 37 33 30 35 34 36 32 32 33 37 41 41 38 35 32 26 25 27 30 33 34 33 30 25 27 22 21 31 33 36 35 33 35
40 40 39 39 40 39 37 37 38 36 38 33 33 36 36 33 35 35 33 35 35 33 31 37 38 37 36 32 29 28 27 30 28 29 30 31 32 27 24 25 26 31 32 37 31 29 35
40 40 40 39 39 42 40 38 36 38 38 34 32 36 31 31 31 34 36 37 38 36 32 36 35 35 34 30 29 28 27 30 30 31 31 29 27 26 26 26 22 34 36 35 35 36 36
40 41 40 40 39 40 43 38 37 36 37 37 32 34 37 30 27 34 34 35 36 35 38 39 33 34 34 31 31 32 30 31 29 28 33 29 30 29 30 27 30 34 36 35 36 35 34

GFSGBSN_sfc_30mbdewp_045.txt.gz
Dewpoint
44 44 46 47 45 45 46 47 47 45 46 45 43 44 43 42 43 43 43 44 44 45 45 45 44 43 45 45 44 47 47 46 52 51 51 49 48 45 42 40 39 38 38 38 38 38 38
47 45 46 45 46 43 46 46 45 45 45 45 44 45 44 44 43 43 43 43 44 44 44 44 44 45 44 39 47 50 46 48 50 50 51 49 47 45 42 41 38 39 38 37 38 37 37
45 46 43 44 43 43 46 44 44 45 44 41 41 44 45 44 43 42 43 43 43 44 44 44 44 46 43 42 46 51 46 50 50 51 51 50 46 43 41 38 39 39 37 37 37 37 36
45 44 43 44 44 43 43 45 44 44 41 40 41 44 45 41 41 41 43 44 43 44 44 44 44 44 38 46 50 49 49 50 50 54 53 52 47 43 40 39 38 36 35 32 34 36 36
44 44 42 43 42 43 42 45 44 40 43 45 45 45 43 40 42 42 44 44 45 45 45 44 41 40 36 49 46 47 50 47 50 53 53 52 47 44 41 37 35 35 30 32 32 36 35
44 43 42 44 43 41 41 45 41 42 44 44 46 47 46 44 42 43 45 45 44 43 43 44 41 36 39 41 45 44 46 49 50 51 47 46 44 41 40 35 28 31 30 32 29 31 35
44 43 42 43 43 41 42 44 42 44 44 45 46 46 46 47 43 43 44 40 32 33 38 30 32 32 40 45 46 44 45 51 46 45 41 43 38 34 38 36 32 33 31 31 32 31 30
43 43 43 41 43 41 42 43 41 44 44 46 46 47 47 46 45 44 44 35 34 37 29 36 36 35 37 40 41 42 46 46 46 40 43 41 35 37 39 37 33 33 31 31 32 30 29
43 42 43 42 41 39 42 40 42 44 45 47 46 46 46 46 45 43 40 38 41 39 29 33 37 38 38 44 41 40 44 46 42 38 35 37 38 39 38 37 35 34 32 32 31 29 27
44 42 42 41 41 40 40 41 43 44 46 47 47 47 46 46 41 42 38 42 42 39 20 26 33 39 41 43 40 42 43 43 41 36 36 35 43 39 38 36 37 34 32 31 28 28 25
43 42 42 42 40 40 41 43 42 45 46 47 46 46 45 45 41 39 43 43 41 37 10 27 36 44 44 40 39 40 45 42 39 37 38 35 39 39 37 37 38 34 30 28 27 26 25
43 43 42 41 41 40 40 40 42 45 46 47 48 46 46 44 42 43 43 40 36 21 16 31 37 38 38 38 40 42 42 41 40 37 37 36 36 38 38 36 38 30 27 26 25 24 23
42 42 42 42 41 40 40 40 41 45 45 47 48 46 44 44 40 43 41 35 21 19 29 30 32 36 36 36 37 38 38 37 35 31 31 35 35 32 38 35 32 29 31 23 14 17 18
42 42 42 42 41 40 40 40 41 44 45 46 47 44 44 44 44 45 40 28 20 28 28 36 37 36 34 36 36 37 36 34 32 34 31 29 27 33 31 32 34 27 27 21 11 6 12
42 43 42 41 41 40 40 40 41 43 45 47 44 41 42 42 45 45 36 27 26 28 33 35 33 31 33 35 35 36 33 32 31 31 28 27 28 31 31 31 30 28 26 23 20 19 16
42 42 42 41 41 40 40 40 40 42 45 46 38 36 38 43 45 40 33 31 34 35 34 31 29 30 28 32 33 33 33 32 30 30 29 28 27 30 30 30 29 27 27 23 20 9 5
42 42 43 41 41 41 40 40 40 42 44 44 36 32 36 43 41 35 30 32 34 37 34 29 29 30 30 30 32 31 28 32 31 30 29 28 28 29 30 28 27 26 25 23 21 17 3
42 41 42 41 41 41 40 39 40 41 44 41 34 30 38 42 33 35 34 35 37 35 34 30 29 29 29 29 28 28 26 30 31 30 27 28 28 27 27 28 29 28 26 22 16 16 20
41 41 42 41 41 40 40 39 39 40 43 40 33 32 36 38 28 30 33 33 36 32 30 28 27 28 29 27 26 27 27 30 31 29 27 27 24 23 25 26 28 27 27 24 21 21 18
41 41 42 41 40 41 40 39 39 39 42 37 33 24 31 35 35 33 32 32 30 34 30 29 28 28 27 26 28 27 27 32 31 31 32 27 23 19 13 19 26 25 27 24 24 21 19
41 41 41 44 40 40 40 39 38 39 41 37 34 32 34 30 31 33 32 32 31 30 32 30 27 26 27 26 28 27 30 32 33 35 30 27 24 25 24 25 26 25 26 26 24 24 20
41 41 40 43 40 40 40 39 38 38 40 37 33 32 35 33 33 31 31 31 32 33 34 29 27 31 30 26 25 27 29 29 29 31 29 28 27 27 24 27 27 26 27 27 26 26 25
41 40 40 41 40 40 39 39 37 37 37 38 39 39 36 32 31 30 30 31 32 33 35 36 34 32 32 34 36 33 30 30 30 29 28 27 27 23 20 24 26 23 27 27 27 28 26
41 40 40 40 42 40 39 39 37 37 36 38 39 38 34 30 31 31 32 34 34 34 32 36 36 33 37 37 34 32 31 30 30 30 29 27 26 23 21 23 17 20 29 29 27 27 29
41 40 39 40 42 41 39 38 39 37 37 34 39 37 35 29 31 31 33 35 34 34 35 35 38 39 39 36 31 29 30 29 31 32 30 29 28 24 21 22 21 28 30 28 27 31 30
41 40 40 39 40 42 39 38 38 38 38 33 36 37 37 32 29 33 32 34 32 31 33 37 41 40 37 34 31 27 25 26 28 31 34 31 29 25 24 20 19 26 33 34 35 32 35
41 41 40 40 39 39 41 39 38 38 38 33 32 36 33 30 31 33 33 34 37 32 31 36 38 37 35 32 30 28 26 29 27 27 28 31 30 26 24 21 24 27 34 37 30 31 34
42 41 40 41 40 40 40 42 39 37 37 35 32 35 29 28 28 32 35 35 37 36 31 35 35 34 33 30 29 28 27 30 29 30 28 28 27 26 26 23 19 33 36 32 37 35 35
43 41 42 40 41 39 39 41 44 37 36 37 33 34 37 30 26 31 28 29 32 32 34 38 33 33 33 30 30 29 29 30 29 27 32 28 27 26 25 25 28 36 39 39 37 35 35

GFSGBSN_sfc_30mbdewp_048.txt.gz
Dewpoint
46 47 46 45 45 45 45 44 45 45 45 45 44 42 44 45 45 44 44 43 43 44 45 46 46 46 43 37 39 47 49 47 54 51 48 46 46 46 40 39 38 34 35 34 35 38 38
45 47 43 45 45 43 43 43 46 46 45 43 42 41 44 46 45 44 43 43 43 43 44 45 45 46 41 35 40 49 49 47 49 50 48 47 43 45 41 40 37 36 35 35 35 37 37
45 45 46 44 45 43 46 42 47 43 42 43 46 46 46 45 42 41 42 42 43 44 43 44 44 43 39 34 46 50 50 46 49 48 47 49 45 44 42 40 40 38 35 33 36 34 33
46 44 44 44 44 43 42 42 47 42 44 46 47 47 47 46 41 41 42 44 45 45 44 43 45 42 34 39 45 50 51 47 51 48 49 50 47 42 40 40 39 35 33 30 29 34 36
46 45 43 45 42 43 43 43 44 44 45 46 47 47 46 47 44 42 43 45 45 44 44 43 40 39 32 45 45 49 49 44 48 48 51 51 46 41 40 35 33 31 22 24 28 35 31
46 43 43 43 41 41 42 44 44 44 45 46 46 46 47 47 47 42 44 45 44 43 43 41 37 36 35 38 45 46 48 48 46 46 48 46 44 38 36 32 22 25 23 27 23 31 35
44 44 43 43 42 41 41 42 44 45 46 47 46 46 46 46 46 43 44 39 33 34 37 29 31 33 38 44 45 44 47 49 46 46 38 42 40 36 34 32 29 28 26 22 27 30 30
44 44 44 43 42 41 42 44 45 45 47 47 46 46 46 46 46 46 43 35 34 36 29 36 34 33 38 42 41 43 48 45 42 36 39 40 36 34 35 35 33 29 25 24 32 31 30
44 43 43 43 42 42 40 43 44 45 47 47 46 47 46 46 45 43 39 39 42 39 29 31 34 35 41 43 39 41 46 44 39 37 39 36 35 35 37 35 31 31 27 30 28 30 28
44 43 44 43 42 41 40 41 43 45 47 46 48 47 45 45 40 42 39 44 42 39 25 28 35 39 42 43 40 44 47 45 38 36 37 37 40 35 32 32 30 30 35 33 31 30 23
44 43 43 43 42 41 41 41 42 44 46 46 48 46 45 45 41 39 43 43 41 37 18 29 36 43 43 39 39 44 48 46 36 37 38 35 39 37 33 32 33 32 32 31 29 29 28
44 43 44 43 42 42 41 41 41 43 46 46 46 47 45 43 41 43 43 41 37 27 18 30 37 37 36 40 40 42 43 42 42 38 38 37 42 40 38 39 36 29 28 28 28 27 27
43 43 43 42 42 42 41 41 41 42 45 46 47 47 44 44 37 44 43 37 28 21 30 30 33 36 37 37 37 38 38 37 34 32 32 35 35 38 38 35 36 34 32 28 27 26 23
43 43 43 42 42 42 41 41 41 42 44 45 47 45 44 43 45 45 42 31 23 28 30 36 36 35 34 37 36 37 36 32 33 34 33 31 28 34 37 36 34 35 35 27 18 12 13
43 43 43 43 42 42 41 41 41 41 45 46 45 42 43 43 45 46 37 29 28 30 34 35 32 30 33 33 35 36 34 32 32 33 30 30 29 31 31 31 32 32 31 24 21 19 18
43 42 43 42 42 42 41 41 41 41 45 46 41 39 39 44 45 41 36 31 34 36 35 32 28 30 27 30 31 33 34 33 30 31 29 29 28 30 30 30 29 29 27 25 25 17 14
43 42 42 42 42 41 41 41 41 41 44 44 39 37 39 43 44 39 31 33 34 36 35 30 30 29 29 30 31 30 30 32 31 29 29 29 29 30 31 29 27 27 26 24 22 19 10
42 42 42 43 42 42 41 41 40 41 43 43 39 35 41 44 37 37 35 36 37 35 33 30 31 31 29 30 29 28 28 30 31 29 26 29 30 28 28 28 29 28 26 22 20 20 21
42 41 41 44 41 41 40 40 40 40 43 42 36 35 40 42 32 34 34 33 36 31 30 28 28 29 29 28 27 27 27 31 31 29 27 28 27 25 26 27 29 28 27 25 23 24 22
42 42 41 43 40 40 41 40 39 39 41 39 37 30 37 38 36 34 32 32 30 34 30 29 28 28 27 26 28 27 27 32 32 32 31 28 25 23 17 23 28 27 27 26 25 23 19
41 41 41 42 42 40 40 40 39 38 40 38 36 33 34 34 34 33 33 33 31 29 32 30 27 26 26 25 27 26 30 31 33 34 30 29 25 25 25 27 27 27 27 26 25 25 22
41 41 41 41 42 40 40 40 38 38 39 38 34 33 34 33 33 32 32 32 32 33 34 28 26 30 29 25 24 26 29 29 28 31 29 30 28 28 25 27 27 27 27 27 27 26 25
41 41 40 40 42 41 40 40 39 38 37 37 39 39 37 33 31 31 31 32 32 33 36 36 31 31 30 33 35 32 30 30 30 29 28 28 29 26 23 24 26 24 26 26 27 27 26
41 41 40 40 40 43 40 39 39 38 36 39 37 38 35 30 31 31 32 34 34 35 32 36 36 32 34 34 33 31 31 31 31 30 29 27 28 27 24 25 19 23 29 28 27 26 28
41 41 39 40 40 41 41 39 39 39 39 34 38 36 34 29 30 30 33 34 35 35 35 35 38 39 38 36 30 28 28 29 30 32 29 29 28 26 22 21 21 23 29 29 28 28 28
41 41 41 41 40 39 42 42 39 38 39 34 36 38 35 29 27 32 31 33 34 32 34 37 40 40 38 35 31 26 23 25 27 30 34 30 29 25 24 21 18 27 33 33 33 32 35
42 42 42 41 41 41 40 42 42 39 38 35 34 37 34 29 27 31 30 33 36 34 32 37 38 37 36 33 30 28 25 28 26 26 29 29 29 26 23 22 22 25 34 36 30 33 37
42 43 42 42 42 42 40 40 42 43 39 37 36 36 31 27 25 28 34 30 32 37 33 36 36 35 34 32 30 30 28 29 28 27 28 26 26 26 26 23 20 28 34 31 36 36 36
42 43 43 43 41 41 40 39 39 42 38 38 35 36 37 31 28 29 27 26 26 26 31 35 37 34 35 32 32 31 29 30 30 27 32 27 27 25 25 23 27 34 38 39 39 36 35

GFSGBSN_sfc_30mbdewp_051.txt.gz
Dewpoint
46 46 46 45 46 46 45 45 45 48 45 43 43 46 47 46 46 46 45 44 43 44 44 45 46 47 44 38 32 45 53 53 54 52 45 44 39 43 38 36 34 33 30 31 33 37 36
47 46 45 45 46 44 45 44 44 47 44 45 46 47 48 47 48 45 43 43 43 43 44 44 45 46 41 35 34 36 49 48 53 51 42 43 39 41 39 36 34 34 33 33 32 36 37
46 47 45 44 43 44 46 44 46 45 45 46 47 47 47 47 47 44 42 42 43 44 44 43 44 42 38 34 37 46 51 47 48 50 41 41 39 41 40 38 37 36 31 32 31 33 34
46 45 44 45 44 43 44 45 45 45 46 47 47 47 46 47 47 44 42 43 44 45 44 44 44 40 35 35 36 44 51 47 47 51 43 44 43 39 40 39 38 33 33 30 30 33 32
45 45 44 44 43 43 43 43 44 46 46 47 47 46 46 46 47 45 43 44 45 44 45 42 39 38 31 37 39 40 48 43 49 51 44 47 47 41 39 35 33 33 24 26 24 28 31
45 45 44 44 44 42 42 45 45 46 46 47 47 46 47 46 47 45 43 45 44 44 42 38 36 35 32 33 40 46 50 47 49 45 48 47 44 39 35 30 24 24 23 20 19 30 29
45 45 45 44 43 42 42 43 44 45 47 47 47 47 46 47 46 43 43 39 35 34 36 31 30 32 35 42 46 46 48 48 45 41 38 44 38 34 32 28 23 22 22 17 21 30 30
45 45 45 44 43 43 42 42 43 45 46 47 47 47 46 45 46 45 40 33 34 37 28 33 31 32 36 43 42 46 50 45 38 35 39 40 36 34 31 29 27 26 22 21 27 29 28
45 44 44 44 44 43 42 42 43 45 46 47 47 46 46 46 44 40 37 39 41 38 29 30 34 36 40 42 40 43 46 43 34 35 36 35 36 37 34 29 27 25 23 20 24 30 29
45 44 44 44 43 43 42 42 42 43 45 47 46 48 46 45 41 40 37 42 41 39 29 30 36 38 43 44 40 46 47 43 39 36 36 35 41 37 33 30 27 24 28 27 30 27 17
45 44 44 44 43 43 42 42 42 42 44 46 47 47 46 45 39 37 40 41 41 38 18 33 36 44 44 40 41 41 47 42 37 37 38 34 38 36 32 31 28 29 33 32 31 28 28
44 44 44 44 43 43 42 42 42 42 43 45 46 47 46 43 40 40 42 41 38 28 20 31 37 37 37 40 41 42 44 43 41 36 37 37 40 39 36 35 33 33 31 31 30 29 26
44 44 44 44 43 43 43 42 42 42 43 45 46 48 45 42 38 43 43 39 30 23 33 31 34 35 37 36 39 38 37 37 34 31 31 33 33 39 39 34 33 32 31 28 27 28 22
44 44 43 44 43 43 43 43 42 42 43 45 46 46 44 41 43 44 43 35 24 30 32 37 37 34 35 34 36 37 35 33 36 34 33 30 27 33 38 36 34 33 31 26 19 20 21
43 43 43 43 43 43 43 43 42 43 44 45 46 42 43 43 44 44 40 29 29 32 35 33 31 29 32 32 36 36 34 31 32 32 31 30 29 36 37 38 37 34 32 26 20 17 15
43 43 43 44 43 43 43 42 42 42 44 45 41 39 40 44 45 42 37 31 34 36 36 31 27 29 26 29 31 32 33 32 31 32 30 30 29 31 30 32 30 35 33 30 29 21 14
43 42 43 44 43 43 42 42 42 41 44 45 41 38 41 42 45 40 33 33 33 34 33 30 28 26 27 28 29 28 30 32 30 29 30 30 28 30 31 30 28 27 27 26 26 21 16
43 42 42 43 42 42 42 42 41 41 42 42 41 39 42 45 40 40 35 33 35 32 32 30 31 29 28 29 28 27 29 30 30 28 27 30 30 28 29 29 29 28 26 25 23 23 21
42 42 42 43 44 41 42 42 41 40 40 41 36 35 42 43 35 34 34 32 33 29 28 28 28 29 30 27 26 27 28 32 31 29 28 28 30 26 26 28 29 28 28 25 23 25 26
42 42 42 42 44 41 42 41 41 40 40 41 36 35 39 38 37 32 30 29 29 34 29 29 28 28 28 26 27 28 28 32 32 31 30 27 27 27 22 25 29 28 28 27 26 25 21
42 42 42 42 43 42 42 41 40 40 40 41 35 34 34 35 34 33 33 31 29 28 31 29 27 26 26 25 25 26 29 30 31 31 30 29 26 26 25 26 29 29 27 27 27 26 22
41 42 41 41 42 42 41 41 40 40 39 35 34 33 34 33 33 32 32 31 30 31 31 27 26 26 25 23 23 24 27 27 27 30 28 30 28 29 26 26 26 27 26 27 27 27 24
41 42 40 41 41 43 41 40 40 40 35 33 35 38 37 33 32 31 30 31 32 33 35 34 29 27 26 29 31 31 28 28 28 28 27 29 30 27 24 25 25 23 24 25 26 27 26
41 41 40 40 41 41 42 40 40 40 38 33 35 38 35 29 31 31 32 33 33 34 31 34 34 30 33 34 32 30 30 30 29 28 28 28 28 27 25 26 19 25 29 27 25 25 26
42 42 41 41 40 41 40 42 41 39 40 34 34 34 34 23 27 29 32 33 35 34 34 33 37 36 34 34 30 28 28 27 28 29 28 27 25 25 23 21 21 19 26 28 28 29 27
42 42 42 41 42 42 41 41 42 41 39 36 35 35 33 27 25 30 30 32 33 31 33 36 40 39 39 34 30 27 23 23 25 29 31 28 27 25 25 21 18 28 30 31 31 30 30
42 42 42 42 42 42 42 41 41 42 40 37 35 36 31 26 21 28 24 31 36 36 33 36 38 37 38 33 28 26 25 25 24 23 27 26 26 25 23 22 22 23 34 34 30 34 36
43 42 43 43 43 42 41 40 40 41 41 39 36 37 31 26 24 23 22 25 24 32 35 37 36 36 36 30 28 26 24 26 26 25 25 25 24 24 24 24 20 27 35 31 35 36 35
44 43 43 44 42 41 40 40 40 40 42 40 35 37 36 32 26 30 28 27 25 22 24 32 36 35 33 31 28 27 25 28 25 24 28 25 25 24 24 24 26 30 34 38 39 37 36

GFSGBSN_sfc_30mbdewp_054.txt.gz
Dewpoint
47 46 47 45 46 43 45 45 44 48 45 46 47 48 48 48 48 48 48 44 44 43 44 44 45 46 44 39 37 35 49 44 53 53 47 46 38 43 40 39 36 36 33 32 32 37 36
47 47 46 45 45 44 45 45 46 45 46 47 47 47 47 47 47 48 46 42 43 43 44 44 44 45 42 36 36 36 46 50 51 52 48 45 38 41 39 35 35 35 34 32 33 37 36
47 46 46 45 44 44 43 45 45 46 47 46 47 47 45 46 47 47 43 43 43 44 44 44 44 42 38 35 35 46 45 48 51 51 48 44 39 39 41 38 36 35 32 33 32 35 35
47 47 46 45 44 43 43 44 47 46 46 47 47 47 46 47 47 47 43 43 44 45 45 44 44 40 34 36 38 40 50 48 50 52 46 42 40 39 41 40 37 35 34 30 32 33 34
47 46 46 45 45 44 43 44 45 45 46 47 47 47 45 47 47 47 43 44 45 45 45 43 40 39 31 36 35 36 45 47 46 51 50 42 43 41 41 37 35 33 30 30 30 31 32
47 46 46 45 45 44 43 43 45 45 46 46 47 47 46 46 46 45 43 44 43 44 44 39 37 34 33 33 34 36 48 49 46 48 45 43 43 39 38 37 30 30 29 29 27 28 31
46 46 46 45 45 44 43 42 44 45 46 46 47 47 46 45 45 45 45 42 36 35 36 35 33 31 34 37 43 44 49 46 47 45 40 42 38 36 36 35 31 28 28 26 25 30 28
46 46 45 45 44 44 44 42 42 44 45 46 47 46 47 46 45 45 44 33 36 37 32 31 31 31 38 42 40 42 48 43 45 38 39 39 35 35 35 33 29 26 25 24 24 30 29
46 45 45 45 44 44 44 43 43 43 43 45 47 46 47 46 45 44 37 38 41 38 33 33 37 37 39 41 39 41 45 44 40 34 37 34 34 34 32 31 27 26 25 21 24 29 29
45 45 45 45 44 44 44 43 43 43 43 44 46 46 47 46 44 38 37 41 40 40 30 31 35 39 42 39 36 46 47 45 38 33 35 36 39 37 37 33 28 24 25 25 28 28 21
45 45 45 45 45 44 45 45 44 43 43 44 46 46 47 47 43 36 39 41 39 40 17 33 34 45 43 39 40 41 47 41 36 38 38 35 37 37 37 34 30 26 30 31 30 29 29
45 45 45 45 45 45 44 44 44 43 43 43 45 46 48 45 43 38 41 42 40 29 21 31 37 38 38 39 39 41 43 43 39 37 36 37 40 40 40 39 34 34 32 31 31 29 26
45 44 44 45 45 44 44 44 44 43 43 44 45 47 47 42 41 43 44 40 30 23 34 32 35 36 37 36 36 38 39 38 35 31 32 33 34 38 40 37 36 32 31 27 25 25 23
45 44 44 45 45 44 44 44 44 43 43 45 46 47 44 41 44 44 44 36 23 29 32 37 36 34 34 36 37 36 36 35 36 36 33 30 27 34 38 35 33 32 31 27 19 22 22
44 44 44 44 45 44 44 43 44 43 44 45 46 45 42 45 44 44 40 28 28 32 34 33 33 29 30 34 34 35 36 35 37 36 32 30 29 36 38 38 36 34 32 26 24 15 18
44 44 44 44 45 44 43 43 43 42 43 45 43 41 41 45 45 43 37 31 33 36 35 31 26 29 25 30 31 31 32 32 31 32 32 31 28 35 37 39 36 35 35 30 28 18 14
43 43 43 44 45 43 43 43 43 41 42 44 44 39 43 44 45 42 31 33 33 33 32 30 28 26 26 27 29 28 30 31 31 29 30 33 30 32 34 34 32 33 33 32 29 24 21
43 43 43 43 45 43 43 43 43 41 42 41 42 37 43 46 41 41 36 33 33 31 32 30 30 29 27 27 26 27 29 30 30 29 29 31 30 29 30 29 30 29 29 28 29 27 21
43 43 43 43 44 42 43 42 42 41 41 42 37 35 43 44 37 34 33 32 33 30 28 28 28 29 30 27 26 27 29 32 31 30 29 30 30 26 26 28 29 28 28 27 25 25 24
43 43 43 42 43 43 42 41 41 41 41 43 37 35 38 41 37 34 30 29 29 33 30 28 28 29 28 27 27 27 30 31 32 31 29 29 28 28 22 26 30 27 28 28 26 22 22
42 42 42 42 42 43 42 41 41 42 42 41 35 34 34 33 35 33 32 32 28 28 31 29 27 27 27 25 25 26 30 31 32 30 30 31 25 24 26 27 30 30 28 28 26 26 23
42 42 41 41 42 42 43 41 41 41 40 34 33 32 34 32 33 32 32 31 30 30 31 27 27 25 25 23 24 24 28 29 29 30 29 32 27 28 24 25 26 26 27 27 28 28 27
42 42 41 41 41 41 42 42 41 40 38 33 33 35 36 31 31 31 33 33 32 32 34 33 32 27 26 32 32 30 28 28 28 29 28 30 28 26 24 25 25 21 25 27 27 28 28
42 42 40 41 41 42 41 42 42 40 40 34 33 35 32 28 29 31 30 32 33 35 35 33 34 31 33 34 32 30 29 28 28 28 28 28 30 29 26 25 15 21 29 28 26 27 28
42 42 42 42 42 43 42 41 42 42 39 37 34 32 30 23 19 24 29 31 33 35 34 34 38 35 33 32 29 27 28 27 27 28 28 28 28 26 23 22 21 21 27 28 25 26 26
42 42 42 42 42 43 43 41 41 42 40 38 36 36 30 27 22 20 22 28 31 33 34 36 40 39 39 35 30 27 25 25 26 29 31 28 28 24 24 19 19 30 29 31 30 30 29
43 42 42 43 43 42 42 41 41 41 41 39 36 37 32 26 23 23 25 27 34 35 35 36 38 37 38 33 28 25 26 26 24 24 28 27 26 25 22 22 22 28 33 33 30 32 35
43 42 43 44 43 41 41 40 41 41 41 41 37 38 33 27 26 25 24 22 23 27 32 34 35 37 36 31 28 27 25 28 24 24 25 25 24 25 24 25 20 33 35 32 35 36 36
44 43 43 44 43 41 40 40 42 42 41 41 36 38 36 33 29 31 30 29 27 24 24 26 33 35 38 33 30 28 25 25 25 24 27 25 26 24 24 25 28 29 34 38 37 36 36

GFSGBSN_sfc_30mbdewp_057.txt.gz
Dewpoint
48 47 47 46 46 45 44 46 47 47 47 47 48 48 47 46 46 47 47 47 44 44 43 45 45 45 44 38 38 41 40 45 45 51 50 48 44 46 42 43 42 40 36 38 37 36 38
48 47 47 46 46 45 44 44 46 47 47 47 48 47 46 46 46 47 46 43 43 44 44 45 44 45 41 34 37 39 38 42 49 51 50 47 38 45 43 41 39 38 38 35 34 36 35
48 47 47 47 46 45 44 44 45 46 46 47 47 47 45 47 47 47 45 42 43 45 44 44 44 43 39 35 37 41 46 42 46 51 48 47 41 43 41 38 38 36 36 36 37 36 35
48 47 46 45 45 45 44 42 44 46 47 48 47 47 45 47 47 47 44 44 44 45 45 45 44 41 36 37 39 39 44 46 48 51 48 48 45 40 41 40 37 35 35 34 34 35 35
47 47 47 47 45 45 44 43 43 46 47 48 47 47 46 45 46 46 43 44 45 45 45 44 41 40 34 40 35 38 41 43 47 50 51 46 45 40 41 37 35 35 31 33 30 34 35
47 47 46 45 45 45 44 43 42 44 46 47 47 46 47 46 45 44 44 45 43 45 44 42 39 36 35 35 39 41 46 47 48 49 49 45 41 39 39 36 30 31 30 32 29 31 33
47 46 46 46 45 45 44 43 43 43 45 46 47 46 47 46 46 46 46 43 35 36 37 34 35 33 35 40 42 43 45 45 48 46 39 40 37 35 37 37 33 32 30 30 31 30 30
47 46 46 46 45 45 45 45 43 43 43 44 46 46 47 47 46 46 43 36 38 37 33 33 35 33 41 42 37 43 46 43 42 38 41 39 34 37 38 38 36 30 29 28 27 30 30
47 46 46 46 46 46 45 44 46 44 44 44 44 46 46 48 46 43 39 40 42 40 34 35 38 38 39 40 37 39 45 43 38 38 36 33 34 37 36 35 34 29 26 26 26 29 29
46 46 46 46 46 45 45 45 44 44 44 44 43 46 46 48 43 40 37 41 42 40 29 32 34 40 41 37 37 45 47 43 41 37 35 36 37 34 33 33 31 27 27 26 28 27 24
46 46 46 46 46 44 45 45 45 44 44 44 44 45 46 48 41 38 40 41 41 39 15 32 35 44 40 35 39 39 47 45 38 36 36 36 36 36 34 33 34 28 30 30 29 27 27
46 45 45 46 45 45 45 45 45 45 44 44 44 45 47 46 44 41 42 43 40 27 20 32 35 34 35 36 40 39 43 45 39 37 36 37 39 40 39 40 38 34 32 31 31 30 24
46 45 45 45 46 45 45 45 44 45 43 43 45 47 47 45 41 43 45 41 27 22 33 33 35 37 36 36 37 39 37 36 34 32 31 35 34 38 41 36 37 33 28 25 23 24 20
45 45 45 45 46 45 44 44 44 44 44 45 46 48 45 42 43 45 43 34 22 29 31 36 36 36 34 37 36 37 35 33 36 34 31 29 28 36 39 37 36 32 27 21 14 19 22
44 45 45 45 46 45 44 44 44 45 44 45 46 45 43 45 44 44 39 25 26 29 33 34 33 31 32 35 35 37 35 35 36 36 30 29 28 36 39 39 38 33 31 27 23 19 20
44 44 44 44 45 45 44 44 43 44 44 45 43 42 43 45 45 42 34 30 32 35 36 32 28 28 26 32 32 33 33 35 36 37 37 35 27 35 37 39 37 35 35 28 28 19 15
44 44 44 44 44 44 44 43 43 43 44 45 43 39 43 46 45 39 30 32 34 36 33 30 29 26 26 28 30 29 30 31 32 31 32 33 30 32 36 34 34 33 33 32 29 25 21
43 43 44 44 44 44 44 43 42 42 44 42 39 35 43 46 39 37 32 35 34 32 32 32 31 30 27 28 26 29 30 30 30 30 31 32 31 29 31 34 36 33 32 31 28 26 20
43 43 43 43 43 44 43 42 42 42 42 41 37 36 43 44 34 33 33 33 34 32 28 28 29 29 30 27 26 28 31 32 31 31 29 31 29 26 28 29 30 33 33 32 28 26 23
43 43 43 43 43 43 43 42 42 42 42 42 37 31 33 40 37 34 32 30 31 32 30 28 29 29 28 27 27 28 30 31 32 30 30 30 29 27 21 25 29 27 29 28 28 24 23
42 42 42 42 43 43 43 43 42 43 43 40 34 32 33 29 34 33 33 32 30 30 31 29 27 27 28 25 26 28 31 31 32 29 30 30 24 23 26 30 29 29 28 28 26 25 21
42 42 42 42 42 42 42 43 42 42 40 33 32 31 32 32 32 33 32 33 30 31 30 29 27 28 26 27 26 27 29 30 30 30 29 32 26 25 22 27 27 25 26 28 29 27 26
42 42 41 42 42 43 42 42 43 41 39 32 33 34 35 30 29 31 32 32 33 35 33 32 32 32 29 32 31 30 29 28 30 29 29 29 28 24 22 25 25 20 24 26 27 29 28
42 42 41 42 43 43 43 42 42 41 40 34 33 33 29 24 22 20 29 32 32 33 34 35 36 33 32 35 31 30 29 29 28 29 29 30 27 27 25 24 14 16 28 26 25 26 29
43 42 42 42 43 43 43 41 42 41 41 37 35 33 29 22 24 20 20 27 31 33 34 35 38 37 38 33 29 27 28 27 27 28 28 30 29 25 23 22 18 23 28 27 26 24 28
43 42 42 42 43 43 42 41 41 41 41 38 36 36 32 27 24 24 23 24 30 33 35 38 40 40 38 35 31 26 24 24 25 28 31 29 28 24 24 20 18 28 28 30 31 27 29
43 43 43 43 43 42 42 41 41 41 41 40 38 37 33 27 26 24 21 21 27 32 31 36 37 37 38 32 29 26 26 27 25 26 26 27 27 25 22 22 21 24 31 32 28 27 31
44 43 43 43 44 42 40 40 42 42 42 41 37 37 31 28 28 27 25 23 23 26 28 32 35 37 36 30 29 27 25 26 25 26 25 25 23 24 25 24 19 31 34 31 33 36 36
44 43 43 44 44 41 40 40 41 42 41 42 36 38 37 34 29 30 30 30 30 28 25 25 32 33 37 35 32 30 26 25 25 23 26 24 25 24 25 25 27 34 35 37 36 36 36

GFSGBSN_sfc_30mbdewp_060.txt.gz
Dewpoint
48 48 47 48 47 46 45 44 46 47 47 48 47 48 46 47 47 48 46 45 44 44 43 44 45 45 44 39 38 41 42 43 46 47 52 45 44 46 42 44 44 40 40 41 45 46 48
48 48 47 46 46 45 44 44 46 47 47 48 49 47 46 46 47 47 44 43 44 45 45 45 44 44 41 34 37 40 40 43 46 46 51 49 44 47 43 42 43 42 39 40 41 40 45
48 48 48 48 46 46 45 44 43 46 47 48 49 47 46 46 47 46 43 44 44 45 44 43 44 43 39 34 37 41 41 44 43 47 49 49 43 45 43 41 41 39 37 38 39 36 35
48 48 47 46 46 46 45 44 44 45 46 46 48 47 46 45 46 45 43 44 45 45 45 45 44 42 35 38 39 38 42 43 48 49 50 50 46 45 41 40 39 35 38 34 36 36 35
48 47 47 47 46 46 45 45 44 44 44 46 47 47 47 46 45 45 45 45 45 45 45 45 42 40 33 40 37 39 39 41 48 50 50 51 46 41 41 36 35 35 32 34 33 36 35
48 47 47 47 46 46 46 47 46 44 44 43 46 48 46 47 46 47 47 46 46 44 44 43 41 36 36 35 38 43 47 45 43 47 46 49 43 39 38 35 29 32 31 33 31 33 34
47 47 46 47 47 46 46 44 46 47 44 44 44 47 46 47 46 46 47 40 34 33 37 32 32 33 34 39 44 44 45 42 44 45 40 41 37 35 36 35 33 33 31 32 32 32 32
47 47 46 47 47 46 46 45 44 45 45 44 44 45 47 47 47 46 43 37 38 38 32 36 36 38 40 42 37 42 44 38 41 39 40 40 34 37 38 36 33 33 30 31 31 31 31
47 47 46 47 46 46 46 46 45 44 45 44 44 44 46 47 48 41 39 40 42 39 33 36 37 38 39 40 39 39 41 40 39 38 37 35 35 38 37 37 34 31 30 28 27 29 29
47 47 46 47 46 46 46 46 45 45 45 44 44 44 46 48 44 42 37 40 42 41 27 33 35 39 41 38 38 43 44 43 38 37 35 35 37 37 36 35 35 31 28 28 27 28 26
46 47 46 46 47 46 46 46 45 45 45 44 44 45 46 48 40 37 39 42 42 39 17 35 36 41 40 36 38 42 46 44 38 38 34 36 35 35 34 34 33 29 29 28 29 28 26
46 46 46 46 46 46 46 45 45 45 45 44 45 46 46 46 45 40 42 43 40 25 21 32 35 36 36 37 38 39 42 46 41 37 37 37 39 39 39 39 36 33 31 31 31 29 24
46 45 46 46 46 46 45 45 45 45 45 44 46 48 47 46 40 43 44 39 24 23 33 33 36 37 36 36 37 37 38 37 35 31 32 35 35 38 40 36 36 33 28 26 25 25 22
45 45 45 46 46 46 45 45 45 44 44 46 47 47 45 44 44 45 42 31 21 27 31 36 37 37 34 37 35 37 34 34 36 32 31 29 28 37 38 37 34 33 28 22 18 19 20
45 45 45 45 45 45 45 44 44 44 45 46 46 43 43 45 45 43 36 23 23 27 31 34 33 32 34 36 35 36 33 35 35 34 28 28 28 37 38 39 38 33 32 28 22 21 21
44 45 45 45 45 45 45 44 43 44 44 45 42 41 43 45 44 42 32 29 31 34 35 34 28 27 27 34 34 34 35 35 35 37 35 32 27 35 38 40 39 36 34 27 27 17 15
44 44 45 45 45 45 44 44 43 43 44 44 42 39 43 46 45 36 29 31 34 36 36 30 29 26 27 29 32 32 31 34 34 36 36 33 29 31 37 35 34 35 34 32 28 25 21
43 43 44 44 44 44 44 44 43 42 43 42 38 36 43 45 38 35 30 33 34 32 33 32 31 30 28 28 28 30 30 30 31 31 30 33 31 28 31 35 38 34 34 32 26 24 21
43 43 44 44 44 44 44 44 43 42 43 42 37 36 44 44 32 32 33 33 34 32 29 29 29 29 30 27 27 30 31 32 32 31 31 31 29 25 28 30 34 34 34 32 29 27 23
43 43 43 43 43 43 43 43 43 41 43 41 35 29 32 38 37 34 32 31 30 33 31 28 28 29 28 27 28 29 29 31 32 29 31 32 29 25 21 23 29 29 33 32 31 28 26
43 43 42 43 43 43 43 43 43 41 42 37 33 31 32 28 33 32 33 32 29 30 31 29 27 27 27 25 27 28 31 31 32 29 31 29 25 24 26 30 29 28 29 31 30 30 27
43 42 42 42 43 43 43 42 42 42 39 32 30 29 31 30 31 32 33 33 32 33 30 30 28 30 28 26 25 27 30 29 28 30 29 30 25 24 21 27 27 24 27 30 29 29 26
43 42 41 42 43 43 43 42 42 41 36 30 32 33 34 29 25 30 30 32 33 34 33 33 33 32 29 31 30 29 30 30 30 28 29 28 27 22 18 25 24 20 23 25 28 29 27
43 42 42 43 43 43 42 42 42 42 38 33 33 32 25 18 20 22 20 25 31 31 32 35 36 33 32 34 32 30 29 29 31 30 31 28 25 25 24 23 16 18 27 26 25 25 29
43 42 42 42 43 43 42 41 42 42 41 35 35 32 28 21 25 22 21 22 27 32 34 34 38 38 39 34 28 27 27 27 27 28 29 30 28 25 22 21 19 22 28 27 25 23 27
44 43 42 42 43 43 42 41 42 42 42 37 36 35 30 25 24 23 22 25 30 32 34 37 40 39 37 34 30 25 24 24 25 27 30 30 29 24 25 20 17 21 29 29 30 24 31
44 43 43 43 43 42 40 42 42 42 42 39 37 36 31 26 26 26 21 20 23 27 26 34 34 36 37 31 29 26 26 27 24 25 27 27 27 25 24 21 23 23 26 33 26 24 32
44 43 43 43 44 41 40 41 41 42 42 40 37 37 32 29 29 28 25 23 23 23 20 31 33 36 35 30 28 27 26 26 25 27 26 24 24 25 26 23 18 26 33 30 32 36 35
45 44 43 44 45 41 40 41 41 42 42 40 35 39 38 34 31 31 32 31 30 28 25 25 31 32 34 34 32 32 26 25 26 23 27 23 24 24 24 23 26 31 33 35 36 36 36

GFSGBSN_sfc_30mbdewp_063.txt.gz
Dewpoint
49 48 48 47 47 46 46 45 43 46 47 48 49 48 46 46 47 46 44 44 45 45 43 44 45 45 44 39 38 42 42 42 45 43 47 47 44 43 41 44 44 41 42 43 48 47 47
49 48 48 47 46 47 46 45 45 44 47 47 48 47 46 45 47 45 43 44 45 45 45 44 44 45 40 32 37 42 42 39 42 45 47 48 44 44 44 44 43 42 40 43 47 46 48
49 48 48 48 47 47 46 45 45 44 44 47 47 48 47 45 45 44 43 44 44 45 43 43 44 43 39 33 37 39 40 38 44 47 45 51 44 45 43 42 43 42 40 42 44 43 42
49 48 48 47 47 47 46 48 47 46 44 44 47 48 47 47 45 46 46 45 45 46 45 46 44 42 33 39 39 40 39 39 47 47 45 50 47 45 42 41 40 39 39 37 40 40 40
49 48 48 48 47 46 46 45 47 48 46 43 44 47 47 46 47 47 48 48 46 45 45 44 42 40 32 41 39 41 41 40 45 46 48 51 46 42 41 38 35 36 33 34 35 38 39
48 48 48 47 47 47 46 45 47 46 46 44 43 45 47 46 48 47 47 48 46 44 44 44 41 35 35 34 39 41 45 45 43 45 46 48 42 39 38 35 28 31 31 33 32 35 35
48 48 47 47 47 47 47 45 44 45 47 44 44 43 45 46 48 48 45 38 32 31 37 33 32 33 35 40 44 43 45 41 41 44 37 43 36 35 36 35 32 32 32 33 32 34 34
48 48 47 47 47 47 46 46 46 45 45 44 44 43 44 46 48 48 42 36 36 37 31 37 37 37 40 42 38 41 44 37 38 35 38 38 32 36 38 35 33 32 31 32 32 33 33
47 48 47 47 47 47 47 46 46 45 45 45 44 44 45 46 48 42 39 39 42 40 33 36 38 37 39 40 38 39 41 39 37 36 36 33 34 38 37 35 32 31 31 31 30 30 30
47 47 47 47 47 47 46 46 46 45 45 46 44 44 45 46 44 41 37 40 42 40 26 33 35 39 42 38 37 41 43 41 38 36 38 36 38 37 36 35 34 30 30 29 28 29 27
47 47 46 47 47 47 46 46 46 46 46 45 45 46 46 46 41 39 38 42 42 38 19 34 35 40 39 37 38 40 46 44 36 38 38 35 36 36 35 35 33 30 28 30 28 27 26
46 47 46 46 46 46 46 46 46 45 45 45 46 47 47 47 46 42 42 43 38 23 20 33 37 36 35 38 37 39 42 46 43 38 38 37 39 38 39 38 34 33 30 30 30 28 24
46 46 46 46 46 46 46 45 45 45 45 45 47 48 46 45 40 43 44 37 24 22 33 32 35 35 35 35 38 39 37 37 35 31 32 36 36 39 40 34 36 32 28 26 24 25 23
45 45 46 46 46 46 46 45 45 45 44 46 47 47 46 44 44 44 42 28 22 27 31 37 37 35 33 36 36 37 35 34 34 33 30 28 28 36 38 35 33 32 26 23 18 20 22
45 45 45 46 45 46 45 45 45 45 45 46 46 43 43 45 44 43 36 22 22 26 30 33 35 33 33 34 35 33 34 34 33 32 27 27 28 36 39 39 37 33 30 26 21 21 20
44 45 45 45 45 45 45 45 45 44 44 45 41 41 42 45 44 41 31 28 30 33 34 35 28 27 30 32 32 32 33 35 34 36 33 30 28 35 38 38 38 35 34 28 25 18 16
44 44 45 45 45 45 45 45 44 44 43 44 41 38 43 46 45 35 27 30 33 35 36 31 29 27 32 32 33 32 32 35 36 37 34 30 29 31 37 35 33 35 33 31 27 23 18
44 44 44 44 44 44 44 44 44 43 43 41 37 36 43 45 37 33 30 33 34 32 34 32 31 29 28 28 30 30 30 31 33 37 31 32 30 27 31 35 37 37 34 31 25 24 22
44 44 44 44 44 44 44 43 44 43 43 41 36 36 41 44 31 31 32 33 33 32 29 28 28 29 29 27 28 30 30 32 32 32 32 32 29 26 28 31 34 35 35 33 29 26 23
43 43 43 43 43 44 43 43 43 42 42 40 33 29 30 36 35 33 32 32 30 33 30 29 28 29 28 27 29 29 30 31 32 30 32 31 29 24 20 22 30 31 33 33 31 29 26
43 43 43 43 43 44 43 43 43 43 40 35 32 30 31 28 31 32 33 33 31 30 31 30 28 28 27 25 27 28 31 31 31 31 31 29 26 26 26 30 28 28 30 33 30 31 28
43 43 43 43 43 43 42 43 42 42 37 32 25 26 30 29 30 31 32 32 33 33 31 29 28 31 30 26 25 27 30 30 28 29 29 29 25 23 22 27 27 25 26 31 33 31 31
43 42 42 43 44 43 42 42 42 42 34 29 32 33 31 27 24 29 27 28 32 33 34 34 34 32 29 31 31 30 31 30 29 28 28 28 26 22 19 25 23 20 22 24 29 31 31
43 42 43 43 43 42 42 42 42 42 37 33 33 31 22 20 21 23 20 20 28 26 31 34 36 33 33 37 32 30 29 30 30 29 31 27 25 22 21 22 16 18 22 25 25 25 30
43 42 42 43 43 42 41 43 42 42 41 35 34 31 26 19 25 22 21 23 28 32 33 34 37 38 39 34 28 26 26 26 27 29 30 28 27 24 21 22 20 20 27 26 25 23 26
43 43 42 43 43 42 42 43 43 42 42 36 36 34 30 23 23 24 21 24 25 28 32 36 38 37 37 33 29 25 22 24 24 27 29 30 28 25 24 20 16 18 28 29 29 24 31
44 43 43 43 43 41 41 41 42 42 42 38 36 35 29 26 26 26 20 20 23 22 20 30 33 35 36 32 28 26 25 26 23 24 27 27 28 26 23 21 21 24 25 32 25 23 34
44 43 43 43 43 40 40 41 42 42 42 38 36 38 33 30 29 29 26 25 24 23 20 27 30 35 35 29 29 28 26 26 25 26 26 26 25 27 26 23 18 26 32 29 30 35 35
44 44 44 44 44 40 40 41 42 42 43 38 35 39 38 34 30 32 33 32 30 27 26 25 29 31 31 32 31 31 27 26 25 23 27 23 24 24 25 23 25 27 33 34 36 36 36

GFSGBSN_sfc_30mbdewp_066.txt.gz
Dewpoint
50 49 49 48 48 47 47 46 45 44 44 47 48 49 47 46 46 44 44 45 45 45 45 45 44 46 42 38 35 40 42 43 45 49 47 47 45 43 40 43 45 44 43 44 46 46 47
50 49 49 48 48 47 48 47 47 46 44 44 47 48 47 46 45 44 44 45 45 45 44 44 44 46 40 28 36 41 42 39 43 45 43 47 46 43 41 43 43 43 42 43 48 46 48
50 49 48 48 47 46 45 47 47 47 48 43 45 47 48 46 46 46 46 45 45 46 44 43 45 42 38 32 37 40 38 37 38 39 44 47 47 42 43 42 45 42 41 46 47 47 46
50 49 48 48 48 47 46 46 47 47 47 47 43 46 47 47 47 46 47 48 47 45 45 45 45 42 32 38 40 40 40 36 41 47 47 49 50 44 42 42 41 39 41 38 43 46 46
50 49 48 48 48 47 46 45 44 45 47 47 44 43 46 48 46 48 47 47 48 45 45 45 42 39 31 40 40 40 41 39 42 48 48 49 50 42 41 39 36 38 32 35 39 44 44
50 49 48 48 48 47 47 46 45 45 46 46 44 43 44 47 46 48 48 47 47 43 43 44 42 36 35 35 41 41 46 43 43 45 44 43 43 38 39 36 28 32 33 34 37 38 42
50 48 48 48 48 48 47 46 46 45 46 47 44 44 43 45 46 49 46 37 32 30 36 33 34 34 35 41 44 41 43 41 43 41 35 38 36 33 36 35 31 33 33 33 33 37 39
50 48 48 47 47 47 47 47 46 46 45 45 45 44 44 45 46 48 41 34 34 36 31 35 38 37 40 42 38 40 44 38 39 35 37 34 32 34 37 34 32 33 31 32 32 34 36
49 48 48 47 47 47 47 47 46 46 45 45 45 44 46 46 47 41 39 39 41 40 33 37 39 37 40 41 38 37 42 39 36 35 34 33 33 38 36 34 32 31 30 31 30 32 31
49 47 48 47 47 47 47 47 46 46 46 46 45 45 47 45 44 40 37 41 41 37 26 33 35 38 41 39 36 41 43 40 37 35 36 35 37 37 36 33 32 30 32 30 30 31 29
48 47 47 47 47 47 47 47 46 46 46 46 45 46 47 46 39 39 39 42 41 36 19 34 36 40 40 38 38 39 45 41 35 37 36 35 36 36 35 34 32 30 31 29 29 28 27
47 47 47 47 47 47 47 46 46 46 46 45 46 47 47 47 45 42 43 42 37 23 17 32 37 35 36 38 37 40 42 45 41 37 38 38 40 38 37 36 33 32 30 30 29 28 24
47 46 46 46 46 46 46 46 46 46 46 45 47 49 46 45 40 44 43 37 25 22 32 30 34 35 36 36 37 38 38 36 32 31 32 36 36 39 39 34 35 31 27 24 23 24 22
46 46 46 46 46 46 46 46 45 45 45 45 47 47 47 44 44 44 41 29 22 28 31 37 37 34 33 37 37 36 35 34 34 34 31 29 28 36 38 34 33 30 26 22 17 20 21
46 45 45 46 46 46 46 45 45 45 44 46 45 42 43 45 45 43 34 21 23 25 30 33 35 33 32 33 35 34 34 33 32 32 27 27 29 37 39 39 36 32 28 25 20 20 19
46 45 45 45 45 45 45 45 45 44 44 46 41 41 42 45 44 40 29 28 29 30 34 35 28 29 29 30 31 31 31 35 34 35 33 30 27 35 37 37 38 34 32 27 24 17 15
45 44 45 45 45 45 45 44 44 44 44 44 41 38 42 46 44 34 26 29 33 35 36 31 29 28 32 30 32 32 30 35 36 35 32 30 28 32 34 33 32 35 32 31 27 23 17
45 44 44 45 44 44 44 44 44 43 44 40 36 36 43 45 36 32 30 32 34 32 36 32 31 29 30 33 32 30 30 31 36 35 29 31 29 27 30 35 36 35 34 31 27 23 23
44 44 44 44 44 44 43 43 43 43 44 39 35 35 39 43 30 30 32 33 33 31 29 28 28 29 29 28 28 30 30 32 33 32 31 31 28 26 27 31 34 35 35 34 29 26 23
44 44 44 43 44 44 43 43 43 41 44 38 32 28 30 35 34 32 31 32 30 33 30 29 28 29 28 26 29 29 30 31 31 32 34 31 28 24 20 21 29 31 32 35 32 29 27
44 44 43 44 44 43 43 43 43 39 41 32 30 28 31 29 31 31 32 33 31 30 31 30 27 30 28 25 27 28 31 31 30 35 31 30 27 27 26 27 29 30 30 31 32 32 29
44 43 43 44 44 42 42 43 42 39 37 31 22 23 28 28 30 31 31 32 33 32 32 30 28 31 30 26 26 26 30 29 29 29 30 27 25 23 22 26 29 27 27 31 32 32 32
44 43 43 44 43 42 43 42 42 39 33 28 31 32 30 25 23 29 24 23 31 30 35 34 34 32 29 31 32 30 31 30 30 28 28 27 26 22 21 24 22 20 23 25 29 33 33
44 43 43 44 43 42 43 43 43 40 35 32 32 30 19 16 22 23 21 20 23 26 28 32 35 33 35 38 33 30 30 30 30 29 30 27 24 22 20 21 16 18 22 23 24 26 31
43 43 43 43 42 42 43 42 42 42 38 34 34 29 24 20 24 22 20 24 28 30 33 34 37 38 38 34 28 26 25 26 28 29 30 27 26 23 21 21 20 20 27 26 25 24 26
43 43 43 43 42 42 43 42 42 43 40 36 35 33 28 21 23 24 22 22 20 24 25 34 36 34 37 33 29 26 22 23 23 27 29 29 28 24 24 20 17 17 27 29 28 24 31
44 43 43 43 41 41 42 43 43 42 41 36 36 33 29 25 25 26 21 21 23 22 19 25 29 32 36 32 29 26 24 26 23 24 26 28 28 26 25 23 22 23 26 29 24 23 34
45 43 44 43 41 40 41 43 43 42 42 36 36 37 32 28 28 29 27 28 27 24 21 24 28 32 35 30 30 28 26 26 25 26 27 26 25 26 26 24 18 26 30 29 28 34 36
45 44 44 44 41 41 41 42 42 42 41 37 35 39 38 32 29 33 33 33 31 28 27 26 29 30 30 30 31 30 27 26 25 23 27 24 25 24 25 24 25 25 29 32 35 35 36

GFSGBSN_sfc_30mbdewp_069.txt.gz
Dewpoint
51 50 49 48 48 47 48 47 48 47 48 45 44 47 49 47 44 45 44 45 45 44 45 44 44 46 43 37 34 40 42 42 45 47 48 48 46 42 36 42 46 44 44 43 46 47 45
51 50 49 49 48 47 47 47 48 48 47 48 44 45 47 48 47 45 45 45 45 46 44 44 45 44 39 26 34 40 39 40 48 48 47 47 46 43 39 42 42 44 43 45 46 47 47
52 51 49 49 48 47 47 46 45 47 47 47 45 43 46 48 47 47 46 47 48 46 46 45 45 42 37 30 36 39 39 37 40 46 43 47 48 44 41 42 45 42 41 44 45 46 45
52 51 49 49 48 47 46 46 46 45 47 47 46 44 44 47 47 47 47 47 47 47 45 46 45 41 31 36 39 41 40 37 42 46 43 47 50 47 42 43 42 40 41 38 44 46 47
52 51 49 49 48 48 46 46 46 45 46 47 46 45 43 46 47 47 48 48 47 46 45 45 41 39 31 39 40 40 43 40 42 46 46 48 48 44 41 39 36 38 34 37 40 45 45
52 51 49 49 48 48 47 47 46 45 46 48 46 45 43 45 47 46 49 47 47 43 43 44 42 33 35 34 40 42 44 43 39 42 44 44 40 39 39 36 28 33 33 36 36 43 43
53 51 49 49 48 48 48 47 46 46 45 45 46 43 43 45 47 47 44 36 31 30 35 33 35 34 35 41 43 41 43 41 42 42 37 37 32 33 37 34 31 34 34 34 37 41 41
53 51 49 49 48 48 48 47 47 46 46 47 45 43 44 46 46 47 41 33 34 36 31 35 38 37 39 43 37 40 44 38 37 35 36 34 31 35 37 34 32 33 34 32 32 39 38
53 51 49 48 48 48 48 47 47 46 46 45 45 44 45 47 45 42 38 39 41 39 33 36 39 38 40 42 37 37 41 38 36 34 33 30 34 35 36 33 32 31 31 31 31 35 34
53 51 48 48 48 48 47 47 47 46 46 45 45 45 47 45 44 40 36 41 41 35 26 34 37 37 41 40 36 40 43 40 38 34 33 33 36 35 36 32 32 30 32 32 31 32 29
53 50 48 48 47 47 47 47 47 46 46 46 46 47 47 46 39 39 39 42 41 34 18 33 36 41 41 38 37 38 44 42 36 36 36 34 35 36 34 33 32 30 32 30 31 29 27
52 49 47 47 47 47 47 47 46 46 46 46 46 47 46 46 44 41 42 40 36 21 20 31 37 36 37 38 37 39 42 43 42 36 37 38 40 38 37 35 32 31 30 29 29 27 25
51 48 47 46 47 47 47 46 46 46 45 46 46 49 46 45 40 43 42 36 24 21 30 30 34 36 36 35 36 37 36 36 35 30 31 35 36 39 38 33 33 30 27 25 24 24 22
50 47 46 46 46 46 46 46 45 45 45 45 47 48 47 44 44 44 41 29 22 27 30 35 37 35 34 36 35 36 35 33 37 36 32 30 27 36 38 34 32 29 26 22 17 20 22
49 47 46 46 46 46 46 45 45 45 45 45 46 42 43 45 45 44 34 21 24 26 31 33 35 30 31 33 35 35 34 34 33 32 27 28 30 37 39 38 35 32 27 24 20 20 19
48 46 45 46 46 46 45 45 45 45 44 46 41 40 42 45 44 40 30 27 28 29 33 35 28 30 28 29 32 31 31 35 34 34 32 29 28 35 37 37 37 33 30 25 24 17 14
48 46 45 45 45 45 45 44 44 44 44 45 40 38 42 45 44 33 27 28 32 34 35 31 29 28 30 30 31 30 30 34 36 33 31 29 28 32 34 33 34 33 30 30 26 22 18
47 45 45 45 44 44 44 44 44 44 43 39 37 34 42 45 35 32 30 31 34 33 36 32 31 29 31 32 32 30 30 31 37 32 29 30 28 28 29 34 36 34 31 29 25 23 22
47 45 45 44 44 44 43 44 44 43 43 37 34 35 38 42 30 30 32 32 33 31 29 28 28 29 29 30 28 30 31 32 36 32 30 31 27 25 27 30 33 34 34 32 28 27 23
46 45 44 44 44 44 43 43 44 41 44 36 31 27 31 34 33 32 31 31 30 32 30 29 28 29 27 27 30 29 29 31 32 32 35 31 27 23 20 22 29 30 33 34 31 27 25
46 45 44 44 44 43 43 43 42 39 43 31 29 26 30 29 30 31 32 33 32 31 31 30 28 30 28 26 27 28 30 30 30 34 31 30 27 26 25 26 30 29 30 32 32 30 26
45 44 44 44 43 43 43 43 41 38 37 29 21 23 28 28 29 31 29 31 32 31 32 30 28 31 30 26 26 27 30 29 30 29 30 28 26 23 23 27 29 27 28 30 31 31 30
45 44 44 44 43 43 43 43 40 38 32 28 31 32 29 24 23 29 24 22 29 28 34 33 35 32 29 32 33 31 31 30 30 28 30 32 27 23 22 23 22 19 22 26 30 32 31
45 44 44 43 42 43 43 43 40 38 34 31 31 28 20 18 23 23 21 21 22 26 27 30 35 32 36 38 36 30 30 30 29 30 29 27 24 23 22 21 17 19 23 24 25 26 32
45 44 44 43 42 44 43 43 41 38 37 33 33 27 22 20 23 21 21 23 26 26 32 34 38 38 35 36 28 26 25 25 28 29 29 27 25 24 21 20 20 21 27 25 24 23 26
45 44 44 43 43 43 43 43 42 40 39 35 34 31 25 22 22 24 21 20 19 20 20 29 32 33 37 34 30 26 22 23 23 27 30 28 27 24 23 21 16 18 27 29 28 25 30
45 44 44 42 43 42 43 42 42 41 39 36 35 32 28 24 26 25 21 22 23 22 19 23 23 32 37 34 30 26 23 25 22 24 26 28 27 26 25 23 23 23 24 28 23 22 31
45 45 43 42 41 42 43 42 42 42 39 36 36 37 30 27 29 27 28 26 26 24 20 23 27 31 33 31 30 27 24 26 25 25 26 26 26 26 26 25 20 26 31 27 26 32 34
45 45 43 41 41 42 43 43 42 41 41 37 36 38 37 29 29 32 32 32 30 28 26 26 28 30 30 29 30 29 26 25 24 23 27 24 25 24 26 24 25 24 28 31 33 34 34

GFSGBSN_sfc_30mbdewp_072.txt.gz
Dewpoint
52 52 51 49 49 48 47 47 48 48 48 48 48 44 46 48 47 47 45 45 46 46 44 44 45 47 43 34 31 37 41 43 44 44 45 45 44 42 36 37 41 40 39 41 41 43 41
54 52 51 50 49 48 47 47 46 46 47 47 49 47 44 47 48 47 47 46 47 47 46 44 46 44 36 23 32 38 38 40 45 43 45 46 44 41 36 37 39 39 40 40 42 43 44
55 53 52 50 49 48 48 47 47 46 46 48 48 47 44 44 48 46 48 46 47 47 45 45 45 40 35 27 35 39 39 37 46 46 45 49 47 41 38 34 41 41 39 41 42 43 43
56 53 52 50 49 48 48 47 47 46 46 47 47 48 46 42 46 46 47 48 47 48 45 46 46 40 29 34 39 40 38 35 42 45 43 48 49 43 39 40 39 38 37 36 40 42 45
57 54 52 50 49 48 48 48 47 47 46 47 47 47 46 43 46 45 47 49 48 47 45 45 41 39 30 39 38 40 43 36 39 44 45 48 48 42 41 36 33 36 29 33 38 42 44
58 54 53 50 49 49 48 48 47 47 46 47 47 47 43 45 46 45 48 47 46 44 43 42 41 35 34 35 38 41 42 42 37 42 42 44 40 38 35 33 26 27 28 31 33 41 42
58 55 53 50 49 49 48 48 47 47 46 47 48 47 44 45 46 45 46 38 34 34 36 34 35 34 37 40 42 40 41 39 38 37 36 39 34 32 32 31 23 25 28 31 34 42 40
58 56 53 50 49 48 48 48 48 47 46 47 47 47 45 46 46 46 42 32 34 37 32 36 38 38 41 42 36 38 42 35 37 32 37 35 32 37 31 32 29 30 28 30 36 41 39
58 56 53 50 49 48 48 48 47 47 46 46 47 45 46 47 46 44 38 38 41 40 33 37 40 38 40 43 36 37 40 38 32 33 35 31 34 38 34 31 30 29 27 30 30 39 38
58 56 53 50 49 48 48 48 47 47 47 46 46 45 47 46 44 40 36 42 42 37 31 33 37 38 40 40 37 41 43 37 37 33 33 35 36 36 33 28 29 28 30 31 33 33 25
58 55 52 49 48 48 48 47 47 47 47 46 45 46 47 46 41 39 39 42 42 37 21 33 37 42 41 38 36 39 45 40 36 34 33 32 36 34 32 30 30 29 33 31 31 26 27
58 55 51 49 48 47 47 47 47 46 46 46 46 47 46 45 44 41 43 41 38 28 22 31 37 36 37 37 36 39 41 44 39 36 37 35 35 37 34 35 32 32 31 31 31 27 24
57 54 50 48 47 47 47 47 46 46 46 46 46 49 47 45 41 44 42 37 30 25 31 30 34 37 35 32 34 37 35 35 33 31 32 34 33 39 39 31 32 31 28 26 23 24 19
56 53 49 48 47 47 47 46 46 46 46 46 47 48 46 43 44 44 41 31 25 28 30 34 36 37 34 34 34 36 34 34 36 35 32 30 28 36 38 31 31 31 26 22 15 17 18
55 52 49 47 46 47 46 46 45 45 45 46 46 44 44 45 45 45 35 28 27 30 32 33 35 31 32 35 35 35 33 35 33 33 31 28 30 38 38 38 34 30 27 24 23 21 20
54 51 48 46 46 46 46 45 45 45 45 46 43 42 43 45 45 40 33 29 30 29 34 34 28 30 26 31 32 32 34 35 34 33 32 31 29 35 37 37 36 32 28 25 28 20 15
53 50 47 46 46 46 45 45 44 45 44 45 42 40 44 46 45 36 32 31 32 34 35 32 29 28 29 29 31 30 31 34 35 32 31 29 29 33 35 33 33 31 29 29 25 24 16
52 49 46 46 46 45 45 44 44 44 44 44 41 36 43 45 36 33 33 32 34 34 36 33 31 31 30 31 31 30 30 32 37 31 28 30 30 29 29 34 36 35 30 28 24 24 24
51 48 46 46 45 44 44 44 44 44 43 39 36 38 39 43 34 33 33 33 34 32 30 29 29 30 30 32 29 30 31 33 37 32 30 30 28 26 28 29 33 33 33 31 29 29 27
50 48 46 45 44 44 43 43 44 42 43 38 34 32 33 37 34 33 31 32 31 33 30 29 28 29 28 28 31 30 30 32 34 33 34 31 28 26 21 23 28 30 31 33 31 28 24
50 48 46 44 44 43 43 43 43 40 44 33 30 27 33 33 31 32 33 33 31 31 32 31 29 30 28 26 28 29 31 30 33 35 31 31 28 26 25 28 31 30 29 31 32 30 26
50 47 45 44 44 43 43 43 40 40 41 29 26 26 28 29 30 32 30 32 32 32 33 31 28 31 29 26 27 27 30 30 30 31 30 30 28 26 25 28 29 28 28 29 31 31 29
49 47 45 45 43 43 43 42 40 40 33 30 33 33 31 25 26 30 27 27 29 30 34 33 35 32 30 34 36 32 31 30 30 30 31 33 28 26 25 24 23 21 23 26 28 30 30
49 47 45 44 43 43 43 41 40 38 34 32 32 32 25 21 25 26 22 22 25 28 29 31 37 33 36 37 37 32 31 30 30 30 32 33 33 30 26 23 20 21 25 25 26 26 29
48 46 45 43 44 43 43 41 39 39 36 34 33 27 21 20 23 21 23 23 25 27 32 34 38 36 36 36 29 26 26 27 28 30 29 28 27 26 24 22 21 22 27 25 24 24 26
48 46 45 43 44 43 43 42 39 38 37 35 34 32 26 21 21 23 20 21 20 20 23 29 30 31 38 35 31 25 21 23 24 28 30 28 28 25 24 21 17 19 27 29 28 21 30
47 47 45 44 43 43 43 42 41 40 38 36 35 33 28 24 26 23 21 22 23 22 20 25 24 34 38 32 30 27 23 25 21 23 26 28 27 26 23 22 21 24 24 29 20 22 31
48 46 45 44 43 43 42 42 40 40 39 38 37 37 30 28 29 28 28 25 25 24 20 24 29 32 34 31 31 29 24 25 24 25 26 26 24 26 26 24 19 26 29 26 25 31 34
47 46 45 44 43 43 42 42 41 40 39 38 34 37 35 30 29 32 32 31 30 27 26 26 29 31 31 30 31 30 26 26 25 22 28 25 26 24 26 23 27 27 28 31 32 31 30

GFSGBSN_sfc_30mbdewp_075.txt.gz
Dewpoint
56 55 53 52 50 49 49 48 48 47 47 47 48 50 46 44 48 48 48 46 46 48 47 44 45 46 43 30 30 35 40 39 43 44 42 44 43 40 35 33 35 42 39 42 48 42 39
57 56 53 52 51 50 49 48 47 47 47 47 48 49 48 45 44 48 47 48 46 48 46 45 46 45 36 24 31 35 36 38 38 41 41 44 41 39 35 30 31 34 36 42 44 43 39
59 57 55 53 51 50 49 49 48 48 46 46 48 48 48 46 43 47 47 48 47 47 47 45 45 40 34 27 33 38 36 37 43 40 41 45 46 42 37 30 32 35 33 38 44 44 44
61 58 56 54 52 50 49 49 48 48 47 46 47 48 48 45 45 46 46 47 48 48 46 45 46 40 29 35 39 36 35 35 42 44 46 48 48 48 41 33 35 35 33 34 36 40 43
62 59 57 54 52 50 49 49 48 48 47 46 48 48 47 45 45 46 45 48 48 47 45 45 41 38 29 38 35 37 38 33 38 41 43 47 47 44 42 33 33 35 28 31 31 38 41
62 61 58 55 52 50 49 49 48 48 47 46 48 48 47 46 46 47 45 48 45 46 43 41 38 37 34 34 38 39 38 38 36 39 41 43 42 39 38 35 25 26 25 27 26 36 38
62 61 58 55 53 50 49 49 48 48 47 47 48 47 46 46 46 47 46 40 37 36 36 33 33 33 36 39 40 38 38 35 36 34 33 39 35 33 31 32 22 19 20 25 25 34 38
62 60 58 56 53 51 49 49 48 48 47 47 47 47 46 47 48 45 45 33 35 38 32 36 37 37 40 41 34 37 39 32 34 31 35 35 32 36 36 31 31 24 21 26 30 36 37
62 61 58 55 53 50 49 48 48 48 47 47 47 45 46 47 47 45 38 35 40 39 32 36 39 37 39 41 37 36 38 34 31 33 32 33 33 37 38 36 34 25 20 29 30 35 36
62 61 59 56 53 50 49 48 48 47 47 47 45 45 47 46 44 40 35 40 41 39 32 33 36 36 40 40 37 38 41 36 34 30 32 35 37 36 37 31 25 26 24 26 27 32 26
61 61 59 56 52 50 48 48 48 47 47 47 46 46 48 46 42 39 40 40 40 38 21 33 35 41 40 37 36 38 42 38 31 34 33 31 34 36 34 29 27 24 28 28 31 30 22
61 61 58 55 51 49 48 48 47 47 47 47 46 46 46 44 43 41 41 40 38 29 22 31 37 35 34 34 35 39 40 42 37 33 33 32 36 37 36 31 30 32 30 29 28 24 21
60 60 58 54 51 49 48 48 47 46 46 46 46 48 46 45 40 43 43 38 30 27 32 31 35 35 31 30 31 35 37 36 34 30 30 33 34 38 39 32 32 30 27 23 21 23 20
60 60 57 53 51 48 48 47 47 46 46 46 47 48 45 43 44 44 41 33 27 29 32 33 35 34 31 32 33 34 35 34 35 33 28 29 28 35 35 29 28 28 24 19 14 15 15
60 59 56 52 50 48 47 47 46 46 46 46 49 45 43 44 45 45 36 30 30 32 34 32 34 31 30 33 33 34 35 35 35 31 28 27 30 38 37 36 32 29 28 25 22 21 17
60 58 55 52 49 47 47 46 46 45 45 47 43 42 43 45 45 42 33 31 31 31 33 33 30 29 27 30 31 31 34 34 32 35 32 29 29 36 37 37 35 31 30 22 27 19 12
59 57 54 51 48 47 47 46 45 45 44 46 41 39 44 46 45 37 31 34 32 33 34 31 28 26 27 28 29 29 33 34 33 32 31 30 28 33 35 32 28 30 27 28 25 24 18
59 56 53 51 49 47 46 45 45 45 45 45 41 36 44 46 37 35 34 32 34 33 34 33 32 31 29 29 28 28 32 32 34 31 29 29 30 29 29 34 35 35 28 25 23 21 22
58 55 53 50 49 47 45 45 44 45 45 41 36 38 41 44 32 34 33 32 33 31 31 30 29 30 31 29 27 29 31 34 37 31 29 29 29 27 27 29 32 31 29 29 26 30 28
56 54 52 50 48 46 45 44 44 44 43 41 35 34 36 40 37 33 30 29 30 33 30 29 29 29 28 28 30 30 30 33 36 33 33 31 28 27 23 25 27 27 27 29 30 29 24
55 53 51 49 47 45 44 44 44 42 42 39 30 27 36 33 32 32 33 31 29 29 31 29 29 29 26 26 27 29 30 31 34 35 32 31 30 27 25 29 31 30 29 29 29 30 27
54 52 50 48 46 45 44 44 43 41 45 33 26 25 28 31 32 31 32 31 30 32 31 29 27 30 28 26 27 27 30 29 30 32 31 31 29 29 27 28 29 29 28 28 29 29 30
53 52 50 47 45 44 43 43 41 43 39 30 32 31 28 27 28 28 27 30 31 32 33 34 33 29 29 34 35 31 31 30 31 31 31 32 29 27 26 25 24 22 23 26 28 29 28
52 51 49 47 45 44 43 42 40 44 38 32 32 30 25 22 23 26 26 29 29 31 31 34 36 31 36 37 36 33 30 30 30 30 32 32 33 33 28 24 20 22 23 23 23 25 25
51 50 48 47 45 44 42 41 40 41 39 33 32 27 21 21 23 24 24 25 27 29 32 35 37 33 37 35 29 27 27 28 28 29 29 31 32 29 26 22 21 21 23 24 23 21 25
50 49 48 46 45 44 41 40 40 40 38 34 33 33 26 21 20 23 22 23 23 26 28 31 31 36 38 34 29 23 21 21 24 27 30 28 28 27 25 21 16 21 26 27 27 20 29
50 49 47 46 44 44 41 40 40 39 37 35 34 35 27 23 25 22 20 20 22 21 22 27 29 35 39 33 31 25 22 24 20 22 26 27 27 25 24 23 22 22 27 28 20 22 30
49 48 47 46 44 44 42 41 41 40 38 36 36 36 30 25 27 27 27 24 24 23 20 25 31 33 34 31 29 29 23 23 22 22 24 24 24 24 24 26 21 26 26 22 29 30 30
48 47 47 45 44 44 42 41 40 40 38 36 33 34 33 28 28 29 28 29 30 28 25 27 31 32 32 32 31 31 24 25 22 20 27 23 24 24 23 23 27 28 28 29 28 28 30

GFSGBSN_sfc_30mbdewp_078.txt.gz
Dewpoint
59 59 57 56 53 52 51 50 49 48 48 48 48 49 49 48 45 45 50 47 48 46 48 46 45 45 43 33 28 38 41 43 47 46 44 43 42 41 39 37 41 43 44 44 45 47 48
62 60 59 57 55 53 51 50 50 49 48 47 47 48 49 49 45 44 47 47 48 46 48 46 45 45 39 27 30 34 36 40 41 41 41 44 42 41 36 34 36 41 39 43 44 43 44
62 61 61 59 56 54 52 50 50 49 49 48 47 48 48 49 45 45 46 47 47 47 48 46 45 43 36 29 32 37 35 36 43 40 40 44 46 43 38 36 31 32 38 43 44 44 42
62 61 61 60 57 55 52 50 50 49 49 48 47 48 48 47 44 44 47 46 47 49 48 46 46 41 33 35 38 35 36 34 40 45 47 48 49 45 43 42 33 33 35 36 42 43 44
62 62 61 61 58 55 53 51 50 49 49 48 47 48 48 46 44 45 48 46 48 48 47 45 43 38 35 37 34 36 36 36 39 41 47 48 47 43 41 39 31 37 33 31 36 42 41
61 61 62 62 58 56 53 51 50 49 49 48 47 48 48 46 45 46 47 46 46 46 46 41 39 37 37 33 37 38 37 36 37 40 41 42 42 38 38 38 29 30 29 31 29 40 35
61 61 61 61 59 56 53 51 49 49 49 48 47 48 47 44 46 48 45 44 40 37 36 33 33 31 36 39 39 36 37 33 37 35 33 38 35 34 36 36 32 28 27 25 27 34 37
61 61 61 60 59 56 54 51 49 49 49 48 47 47 45 46 47 47 45 38 37 39 33 36 38 37 40 40 33 35 37 32 32 32 35 34 31 36 37 36 35 34 26 24 28 39 38
58 61 61 61 59 57 54 51 49 49 48 48 48 45 45 47 47 44 43 36 40 39 34 37 38 36 38 40 36 35 37 32 30 32 31 32 33 35 36 35 36 35 28 27 33 36 38
56 60 61 61 60 57 54 51 49 49 48 48 48 46 46 46 43 42 36 40 40 39 31 33 35 36 40 40 34 37 40 35 33 30 31 32 37 35 35 34 35 30 30 28 31 33 28
56 57 60 61 60 57 54 51 49 49 48 48 47 47 46 46 45 39 40 40 39 39 22 32 34 40 39 36 34 36 41 38 31 33 35 32 34 35 34 32 35 30 30 31 33 31 27
51 55 59 60 59 57 54 51 49 48 48 47 47 47 46 44 45 41 41 39 39 29 21 32 37 35 34 37 37 38 39 39 39 34 35 34 38 38 37 34 34 32 32 33 32 30 24
52 54 56 60 59 56 53 50 49 48 47 47 47 48 46 44 42 43 43 40 30 25 32 30 32 33 29 30 32 36 35 35 33 30 31 34 36 40 41 34 33 32 33 25 22 22 21
52 53 55 59 59 55 53 49 48 47 47 46 47 47 46 42 44 44 42 33 25 28 32 33 34 32 29 31 32 36 34 32 36 34 29 29 26 37 39 33 30 30 26 22 15 18 20
49 53 55 59 58 55 52 49 48 47 46 46 49 47 44 45 45 45 38 28 29 31 34 31 32 30 29 32 32 34 33 32 33 30 28 28 29 37 37 36 34 29 26 25 25 19 18
51 54 56 58 56 54 52 49 47 46 46 47 45 42 43 45 45 43 33 31 30 34 32 32 32 31 28 29 31 32 32 34 34 35 32 30 28 34 36 37 35 34 30 23 24 15 12
49 51 55 57 55 53 51 49 47 46 46 47 44 40 44 46 45 40 29 32 32 33 34 32 30 27 26 28 30 30 33 34 33 33 31 30 29 32 35 33 29 30 32 28 26 24 21
49 53 54 57 54 53 51 49 46 46 45 46 40 36 45 46 37 34 32 34 33 33 34 33 32 31 28 28 28 28 31 31 34 31 30 32 33 29 32 36 36 35 30 28 24 23 23
49 49 54 56 53 52 50 48 46 45 46 44 38 39 42 45 32 33 34 32 33 32 32 31 30 30 32 29 29 30 31 35 33 31 30 30 30 27 28 30 32 31 32 32 28 29 25
49 50 53 55 52 51 50 48 46 45 46 43 37 33 38 40 37 35 30 30 31 34 30 29 29 29 28 29 29 30 31 34 36 33 33 32 29 28 24 26 30 29 28 29 30 28 26
48 50 52 54 51 50 49 47 47 46 46 43 36 34 35 32 34 33 31 29 29 29 31 29 29 29 27 27 28 29 31 33 35 35 32 33 29 26 25 29 31 29 28 27 27 29 26
49 51 52 53 51 49 48 47 46 46 45 39 29 28 33 32 32 32 31 31 28 32 30 27 28 29 28 29 29 30 30 30 32 34 31 32 29 28 26 27 28 28 29 29 28 29 29
49 50 53 52 51 49 48 46 46 45 42 35 33 31 31 29 30 30 30 30 29 33 33 34 32 29 29 35 35 32 31 30 31 32 31 31 28 27 26 25 25 23 25 28 28 29 29
49 51 53 51 50 48 47 46 45 45 43 34 32 30 29 22 26 27 28 32 31 33 32 36 36 32 36 37 36 35 31 30 30 30 32 32 32 33 28 24 20 24 23 24 27 28 29
49 53 52 50 49 47 46 45 43 45 44 35 34 32 26 22 25 26 27 30 29 32 33 34 35 33 38 35 29 27 28 28 28 29 30 34 33 31 27 26 25 21 22 23 22 22 23
49 53 51 50 48 47 45 44 42 46 43 35 34 35 31 24 22 25 26 28 27 30 31 32 31 39 39 35 30 25 24 23 26 28 30 29 29 31 29 22 18 24 26 26 26 21 30
47 52 51 49 48 46 44 43 42 45 41 36 34 36 31 24 25 25 22 24 23 23 27 29 32 35 38 30 29 27 23 24 23 22 26 27 26 25 25 24 24 26 26 28 19 26 31
49 51 50 49 47 44 42 42 42 42 39 38 36 36 33 27 28 27 27 25 24 24 23 27 32 34 35 30 29 28 25 25 21 22 24 24 25 24 25 25 22 26 25 23 30 29 30
52 50 49 48 46 43 42 41 40 40 39 37 33 33 34 30 28 29 30 30 30 29 27 31 32 32 34 33 31 31 26 25 22 20 27 23 26 26 24 26 26 27 28 28 30 30 33

GFSGBSN_sfc_30mbdewp_081.txt.gz
Dewpoint
61 61 61 60 59 57 56 53 51 50 50 49 48 48 49 49 49 45 45 47 48 48 46 48 46 45 44 39 33 39 45 43 45 45 45 43 42 43 39 39 42 41 44 46 46 48 47
61 61 61 61 61 58 57 55 52 50 50 50 49 47 49 49 49 45 45 46 48 48 47 48 46 46 43 34 30 36 36 45 44 45 43 45 43 44 40 38 39 43 42 44 46 46 48
61 62 61 61 60 60 57 56 52 51 50 50 49 48 48 49 47 45 44 46 47 47 48 48 46 44 41 37 35 37 37 38 48 46 42 44 45 44 42 36 38 41 39 40 43 45 44
59 61 62 61 61 61 58 56 53 51 50 50 49 48 48 48 46 45 45 47 46 48 49 48 45 44 38 36 38 36 37 39 46 45 45 49 48 45 43 42 38 37 38 36 39 45 46
56 58 61 61 61 61 58 56 53 51 50 50 49 48 48 47 45 44 45 48 46 48 47 47 44 42 35 37 36 38 38 36 41 45 46 46 47 42 40 38 32 36 33 36 39 44 45
52 55 57 60 61 60 59 56 54 52 50 49 49 48 48 48 44 46 47 47 47 47 45 44 42 37 37 35 38 38 39 35 38 42 40 40 41 37 37 35 28 31 31 34 35 40 41
50 52 55 57 60 60 60 57 54 52 50 49 49 48 48 45 45 47 46 44 40 38 38 34 34 32 37 40 40 37 38 36 38 36 34 38 33 31 34 36 36 34 32 31 34 41 37
46 49 53 56 57 60 60 58 55 52 50 49 49 48 47 45 46 47 45 42 37 39 34 37 38 38 40 40 34 36 37 34 32 32 35 33 31 37 36 36 37 35 29 28 31 39 36
44 46 50 52 56 59 60 58 56 52 50 49 48 48 46 45 47 44 43 41 40 40 34 37 38 37 39 40 36 35 38 32 32 30 32 29 34 37 37 36 35 35 29 27 30 38 40
42 45 47 51 52 55 59 58 56 52 50 49 48 48 47 46 43 43 41 40 40 40 30 33 35 37 41 39 33 37 40 37 33 30 31 31 34 35 36 34 34 33 33 31 33 33 29
41 43 47 49 52 53 59 57 55 52 50 49 48 48 46 46 45 40 40 40 39 39 20 33 35 40 40 37 34 35 42 37 29 32 31 26 36 35 34 32 35 34 35 31 32 32 30
41 43 46 48 50 54 55 57 55 52 50 49 48 47 46 45 45 42 41 40 39 29 19 32 36 37 34 36 37 38 39 39 37 33 35 36 38 36 36 36 36 37 34 35 34 32 26
41 42 44 48 49 52 54 57 54 52 50 48 47 47 46 46 42 42 43 40 28 24 32 29 32 33 34 34 36 35 34 33 32 28 29 36 36 39 40 36 37 36 31 27 25 24 20
40 43 44 47 48 49 53 56 53 50 49 48 47 48 46 44 44 44 41 35 24 26 29 32 33 32 29 31 35 35 34 30 34 34 31 28 26 36 39 36 33 34 32 21 17 20 19
39 42 45 48 48 49 53 55 52 50 49 47 49 46 44 45 45 45 40 26 26 29 31 32 33 30 29 33 32 36 35 29 34 36 29 28 29 38 38 37 34 32 30 26 24 20 20
42 42 45 46 47 49 53 54 51 50 48 48 45 44 43 46 45 43 33 28 30 33 34 32 31 32 28 31 32 34 34 34 34 34 32 30 28 34 36 36 34 32 31 23 23 14 14
41 42 45 46 49 52 55 53 50 50 47 50 42 40 45 46 45 38 28 29 33 32 34 32 33 31 26 28 31 31 32 33 34 33 31 31 28 31 35 32 30 31 30 28 26 24 20
42 43 45 50 51 51 54 52 49 49 47 48 40 36 46 45 35 34 29 34 34 33 34 33 32 31 27 27 29 30 31 31 34 31 30 35 31 28 31 35 36 35 31 30 23 21 23
42 43 46 50 51 52 53 51 49 48 48 44 39 38 42 45 30 30 33 33 33 33 33 33 31 30 32 29 29 31 32 35 33 31 30 31 29 26 28 30 33 32 32 32 30 27 23
42 42 45 49 51 52 52 50 49 48 47 43 37 33 38 40 38 35 33 32 32 33 31 30 29 29 29 31 31 31 32 34 36 34 33 32 30 26 20 23 30 29 29 31 30 25 24
41 43 44 48 52 53 51 50 49 48 48 41 37 33 34 31 32 33 34 31 31 30 31 29 29 29 28 27 29 31 32 34 35 34 32 33 28 25 26 29 31 30 28 29 29 29 25
42 42 44 49 52 52 50 49 49 47 48 40 33 34 34 33 33 32 33 31 30 31 30 28 28 29 29 30 30 29 31 32 32 34 31 33 29 28 25 27 28 27 28 29 29 28 29
42 41 45 48 51 51 50 49 48 47 44 36 34 32 31 31 32 32 31 30 31 32 33 35 32 30 32 34 35 33 32 30 32 32 31 31 28 26 25 25 24 22 25 27 29 29 28
41 42 47 48 52 51 49 48 48 47 39 35 32 30 27 26 29 30 30 32 33 32 32 36 35 34 36 37 36 34 32 30 30 31 33 33 32 31 27 24 20 22 23 25 27 29 30
39 43 46 53 52 50 49 48 48 47 44 34 34 32 27 23 26 29 31 31 32 34 34 35 33 33 38 36 29 28 28 28 29 30 30 35 33 29 26 23 24 23 22 22 21 22 26
39 45 48 52 51 49 49 47 47 46 45 34 34 35 31 25 23 25 29 30 30 30 32 32 32 38 39 35 30 24 23 24 26 28 30 32 33 29 29 23 18 23 26 26 24 24 31
40 45 48 52 50 49 48 47 46 46 42 34 33 36 28 23 25 26 25 26 26 28 30 31 34 34 37 31 28 26 23 26 25 25 26 27 27 27 26 25 24 26 26 27 18 22 31
43 46 48 51 50 48 47 46 45 46 40 33 34 36 29 27 28 29 29 25 24 26 27 30 32 33 33 27 26 27 27 25 21 26 26 25 23 24 25 25 21 27 25 23 28 31 32
44 46 51 50 49 48 46 45 46 46 39 35 31 33 33 29 28 30 31 31 31 30 29 32 30 32 33 30 30 30 26 25 23 20 26 23 25 25 25 25 26 27 28 31 32 32 33

GFSGBSN_sfc_30mbdewp_084.txt.gz
Dewpoint
59 60 61 61 60 61 61 59 57 55 51 51 50 49 48 48 49 48 45 46 46 49 49 47 48 46 44 39 37 35 43 43 42 44 44 42 42 40 38 39 41 42 44 45 48 48 48
57 58 59 60 61 60 60 60 58 56 52 51 50 49 49 48 49 47 46 43 46 48 48 48 48 46 43 34 34 33 40 45 43 42 43 44 41 42 41 39 38 41 45 43 47 47 47
52 54 56 58 58 61 60 61 59 57 53 51 50 49 48 48 49 46 45 45 47 47 48 49 48 45 42 38 37 37 38 44 47 44 42 44 45 44 42 37 40 41 41 45 43 44 46
49 51 53 55 57 57 60 60 59 57 54 51 50 49 49 49 47 46 44 46 47 46 48 48 47 44 37 38 37 38 39 45 45 48 46 45 47 46 43 42 39 37 40 37 43 45 47
45 47 50 52 54 56 58 59 60 57 55 52 50 49 49 49 48 45 46 46 48 47 48 47 45 42 35 39 37 39 39 37 43 47 49 46 46 41 41 37 34 37 32 35 38 42 45
43 43 45 47 50 52 56 58 60 58 55 52 50 49 49 49 45 45 46 47 47 48 44 45 43 38 36 35 38 39 40 38 40 41 39 40 40 38 37 35 28 30 32 34 35 42 41
42 42 43 44 47 50 52 56 59 59 56 53 50 49 48 47 45 46 46 44 39 38 39 35 35 33 37 39 41 37 39 37 37 38 33 36 35 31 34 37 37 33 34 33 36 40 39
41 41 42 44 43 46 50 53 55 59 56 54 51 49 48 46 46 47 44 41 37 38 33 37 38 38 40 40 36 36 39 34 34 32 35 33 31 37 38 38 36 33 29 34 35 40 38
41 40 40 42 43 44 47 50 54 58 56 53 51 49 47 46 46 44 43 42 40 39 34 37 38 37 38 40 35 35 40 36 32 30 31 30 33 37 36 37 36 34 34 32 35 39 38
43 42 43 42 41 45 47 49 51 55 56 53 51 49 47 46 43 43 42 42 40 40 29 32 35 36 39 38 32 38 41 37 32 30 32 33 36 36 34 34 35 30 34 33 34 35 32
43 43 43 43 44 41 46 47 49 54 55 52 51 48 47 46 44 40 39 40 39 38 18 32 35 40 41 37 32 35 41 37 29 31 32 30 34 35 32 32 35 33 36 33 35 34 33
40 40 41 43 43 44 46 45 48 52 54 51 51 48 47 46 45 44 41 40 38 27 19 31 36 35 34 37 37 38 38 38 37 33 35 37 38 36 35 35 35 39 35 35 36 35 28
41 40 40 42 42 43 44 47 49 50 53 50 50 48 46 45 41 43 42 39 27 22 30 28 32 35 33 34 35 35 34 31 29 25 29 35 35 38 40 35 38 38 31 27 26 25 21
41 39 40 39 40 42 43 46 48 49 53 51 49 47 46 46 44 43 41 33 22 24 28 31 31 31 31 33 34 35 32 31 35 34 31 28 26 36 39 37 35 35 30 23 19 21 20
42 40 40 40 42 41 41 45 46 49 52 50 48 47 44 44 45 44 37 25 23 27 30 32 32 30 30 31 33 34 32 30 35 35 30 29 30 37 38 38 35 34 29 27 22 21 19
43 41 40 42 42 43 43 44 46 49 51 49 45 44 43 45 45 42 31 26 29 33 33 33 28 31 27 31 31 32 33 33 33 35 34 31 29 35 36 36 34 32 32 23 22 16 13
43 40 41 43 44 44 45 46 49 52 49 49 43 38 45 46 44 36 27 27 31 33 34 31 31 32 29 30 32 32 31 33 34 34 31 30 29 30 33 32 30 30 28 28 25 24 17
40 40 41 42 43 45 48 51 51 51 49 46 41 33 45 45 34 33 28 30 35 32 34 33 32 31 25 28 29 31 31 32 34 31 30 35 30 27 30 35 36 34 31 28 21 21 22
39 39 40 41 43 46 50 51 51 49 50 44 39 38 44 44 29 30 30 33 34 33 33 33 31 31 33 28 29 32 33 35 33 32 30 32 28 25 26 29 31 31 32 32 28 26 23
39 39 40 40 45 45 48 50 50 48 50 43 38 32 38 40 38 32 31 33 32 33 32 32 29 30 30 31 31 31 32 35 35 34 34 32 29 23 20 23 29 29 30 32 29 25 23
39 39 39 42 43 44 49 51 49 49 48 42 36 33 35 31 32 33 34 32 32 30 31 30 29 29 28 30 30 31 33 34 35 34 32 32 27 25 26 30 30 29 28 30 29 29 25
38 38 38 42 42 46 50 51 49 49 49 39 35 33 35 32 32 32 33 32 31 30 29 28 28 29 30 28 30 30 32 33 31 33 31 32 29 27 25 27 28 26 27 29 29 29 29
38 38 38 42 44 46 50 50 48 48 46 36 34 33 32 32 32 31 32 31 31 32 35 32 30 32 31 32 33 33 31 31 34 32 31 30 28 26 24 25 24 22 24 26 28 30 29
38 39 40 42 44 48 51 50 48 48 43 34 33 32 28 30 31 30 31 32 32 31 33 35 34 32 35 37 35 33 30 30 32 32 33 30 30 29 26 23 19 23 24 25 26 28 30
38 38 40 42 47 49 51 49 48 48 43 33 35 31 25 27 28 30 32 33 34 35 35 33 33 35 38 34 29 28 28 28 29 30 33 34 33 28 25 23 23 25 22 22 22 26 30
38 40 40 43 48 51 50 49 49 48 38 34 34 36 29 26 24 26 31 32 32 32 31 32 35 39 38 32 28 24 24 25 26 28 31 33 32 27 28 23 18 21 26 26 23 21 32
39 40 41 45 47 52 50 49 49 47 39 33 34 37 26 24 27 27 29 28 31 31 30 31 35 34 35 30 27 24 23 26 25 25 27 28 29 28 27 24 24 26 26 26 18 19 31
40 40 44 46 51 50 50 49 48 46 36 34 34 36 28 27 28 30 29 25 26 30 29 31 31 32 31 27 26 26 26 25 24 26 27 26 25 25 25 24 19 27 25 22 24 32 32
39 43 45 49 50 50 49 48 47 44 37 34 31 31 32 29 29 31 31 31 30 30 31 32 29 32 32 28 28 29 26 26 22 24 27 23 24 23 25 24 26 28 28 31 31 32 33

GFSGBSN_sfc_30mbdewp_087.txt.gz
Dewpoint
51 52 53 55 57 58 59 61 60 60 58 56 53 52 50 49 49 49 47 46 44 46 49 49 47 48 44 39 37 38 37 43 42 42 42 42 40 37 36 38 39 39 36 44 48 48 46
47 48 50 52 54 56 57 58 59 60 59 57 54 53 50 49 49 49 46 45 46 46 48 48 47 47 42 34 36 34 37 44 45 43 40 43 41 41 39 39 37 40 39 41 45 47 46
45 45 45 47 49 51 52 56 58 58 60 58 55 53 51 49 49 49 47 44 46 48 47 48 48 45 40 37 40 37 39 44 46 47 41 43 43 43 42 37 40 38 37 41 45 45 46
42 43 44 44 45 46 49 51 55 58 60 58 55 54 51 50 49 48 45 45 46 48 47 49 47 44 38 41 39 38 39 42 46 47 43 44 44 43 43 41 39 36 38 33 43 45 45
42 42 42 43 44 44 45 48 52 54 57 59 56 54 52 50 49 48 46 47 47 48 48 48 45 42 35 40 36 39 40 38 44 46 46 46 42 41 41 36 33 35 31 33 38 43 42
43 42 42 42 42 42 43 43 47 51 52 58 55 54 52 50 49 46 46 47 47 48 44 45 44 39 36 35 39 39 40 39 41 42 38 42 42 34 37 34 26 30 31 34 34 41 40
43 43 43 42 41 41 41 42 44 47 50 55 55 54 52 50 48 46 46 43 39 38 38 35 34 35 36 38 41 37 39 37 38 38 34 35 34 31 35 36 34 31 33 34 37 42 39
42 41 42 42 42 42 41 41 42 45 49 52 56 53 52 49 47 47 44 39 36 37 28 37 37 38 40 40 35 35 41 33 33 32 35 31 31 36 38 37 35 33 32 32 36 39 37
43 43 42 42 42 42 42 41 41 43 45 50 54 53 52 49 46 45 42 41 40 39 31 36 38 37 38 39 34 34 40 36 31 31 30 29 33 37 38 36 33 33 32 33 34 38 38
43 43 42 42 41 42 42 42 40 43 45 48 52 52 51 48 44 43 40 43 40 38 27 29 36 36 38 38 31 37 41 37 31 30 32 32 37 37 36 35 36 31 35 35 36 33 31
44 43 42 44 44 44 43 42 41 40 45 48 51 52 51 48 44 41 39 40 40 37 15 30 34 41 41 34 31 32 41 37 30 31 32 32 34 34 32 34 37 35 36 36 35 34 34
43 43 42 43 42 41 43 43 41 42 45 48 50 52 51 47 45 43 41 40 37 26 16 31 35 33 35 36 37 38 37 37 36 33 35 36 38 36 35 36 37 39 36 36 36 35 28
43 43 43 42 42 41 39 41 41 42 44 47 50 51 49 47 42 44 41 37 24 21 28 28 30 35 33 35 34 34 33 30 28 26 30 33 35 37 40 35 37 38 31 27 25 25 23
44 45 44 43 44 41 39 41 41 43 43 47 49 50 48 47 44 43 40 29 19 22 27 30 32 33 30 35 33 34 31 30 34 34 31 26 23 36 38 36 34 36 28 24 20 22 21
45 46 46 44 44 41 40 45 44 42 44 46 51 48 46 46 44 42 33 20 18 23 28 32 31 29 30 32 32 32 32 29 32 35 28 28 29 37 39 39 38 33 27 27 21 21 20
45 46 44 43 43 41 42 44 42 43 45 47 46 44 44 46 45 41 29 24 26 31 33 32 26 30 27 31 30 31 32 32 33 35 35 32 28 35 37 36 35 33 31 23 22 17 15
46 44 43 42 41 42 43 43 43 44 44 46 44 39 44 45 43 37 26 25 28 34 34 31 29 30 29 30 32 30 30 32 35 34 33 32 29 31 32 32 30 30 28 27 25 24 16
47 44 40 40 40 41 42 44 43 46 47 48 42 32 45 45 34 34 28 28 33 33 35 33 33 33 29 30 30 33 30 32 34 32 31 34 30 28 30 34 36 34 30 27 19 21 21
47 43 41 40 41 42 42 46 44 47 48 44 38 38 45 44 29 30 29 31 32 33 33 33 31 32 32 28 30 32 32 35 33 32 32 32 27 24 24 27 31 31 32 30 27 25 22
46 42 40 40 40 41 45 46 48 50 49 43 39 32 38 40 37 29 30 31 31 34 33 33 31 30 31 30 32 31 33 35 35 33 35 32 28 23 17 21 28 29 30 31 27 24 22
44 42 38 39 40 41 45 45 48 51 48 43 38 33 35 31 32 32 31 33 29 31 31 31 29 29 31 30 30 31 33 34 34 34 33 30 26 25 27 31 30 29 28 30 28 27 23
43 40 39 38 40 45 44 45 50 49 50 42 35 33 34 32 34 31 33 32 30 30 30 29 28 29 29 29 30 30 33 32 31 33 31 31 28 26 25 27 27 26 27 29 29 30 29
41 39 38 38 40 43 45 47 50 50 48 40 36 36 33 32 31 29 31 32 32 32 34 31 30 31 30 31 32 32 31 33 33 31 30 30 28 25 23 24 24 21 23 26 28 30 29
40 39 38 39 42 45 45 49 49 50 44 41 36 34 32 30 30 30 32 33 32 32 32 33 34 31 35 36 34 31 31 32 32 32 32 29 29 27 25 23 17 21 24 26 26 27 30
40 38 39 40 44 46 49 51 49 49 44 39 36 31 30 30 30 31 32 33 35 35 34 33 33 35 37 32 28 27 27 27 29 30 33 33 31 27 24 23 22 24 23 21 24 26 31
38 38 39 40 44 48 51 50 49 49 43 36 35 36 29 28 26 27 33 33 32 32 32 33 37 39 36 31 27 25 23 25 26 28 33 33 31 26 25 22 16 20 26 26 23 19 32
39 39 40 41 46 48 50 49 48 46 40 35 35 36 27 26 28 28 31 31 32 31 31 33 35 35 33 29 26 23 22 26 24 25 26 30 31 27 25 24 23 25 26 25 18 18 31
40 40 41 46 48 49 51 49 49 43 37 34 32 34 29 28 29 30 29 26 30 31 31 32 31 31 30 26 25 26 25 26 26 26 27 25 26 26 27 25 18 27 25 21 23 31 32
40 40 45 49 50 51 50 48 49 43 39 34 28 32 33 29 29 31 31 31 31 30 32 31 29 31 30 27 27 28 26 25 23 22 27 24 25 24 25 23 27 30 28 32 32 32 33

GFSGBSN_sfc_30mbdewp_090.txt.gz
Dewpoint
45 46 46 46 47 49 50 52 53 54 58 59 60 57 54 54 51 50 49 49 47 45 45 49 49 48 43 38 36 38 39 40 43 43 39 39 41 38 33 35 36 36 37 38 40 40 45
44 44 44 44 45 44 46 47 50 51 53 57 60 57 54 54 52 50 49 48 46 46 49 48 49 47 42 31 37 37 36 43 43 43 42 39 41 40 35 34 37 37 37 37 41 40 42
43 43 43 43 43 43 43 44 45 48 50 54 56 58 54 54 52 51 49 47 46 46 48 47 49 45 40 36 40 40 39 40 44 44 44 41 43 40 36 36 38 36 36 38 37 40 44
46 46 45 45 43 42 43 43 44 45 46 51 51 58 55 53 53 51 49 48 46 47 48 48 48 44 37 41 42 41 38 39 47 45 43 43 44 40 39 42 40 35 35 33 38 37 40
45 43 43 44 44 43 42 42 42 43 45 46 49 56 55 53 53 51 48 46 47 48 48 48 45 42 35 40 37 38 40 38 45 45 45 45 43 38 37 36 32 33 29 32 34 39 43
44 43 43 43 43 43 43 43 42 42 43 44 49 52 55 53 52 51 47 47 48 48 46 46 44 39 35 34 38 38 40 39 41 40 37 39 38 34 35 33 25 29 31 33 34 39 39
45 45 44 44 44 43 43 43 42 41 41 43 45 50 54 53 51 49 47 43 41 38 39 35 34 35 35 38 40 37 39 37 39 39 33 37 31 30 33 34 32 34 33 32 35 39 38
44 44 44 44 44 43 43 43 42 42 41 42 46 49 53 51 51 49 46 40 36 36 30 36 37 38 39 40 36 33 40 32 33 31 34 32 31 35 38 35 34 33 34 34 37 39 37
44 45 44 44 44 43 43 43 42 43 41 41 44 49 53 51 49 48 43 41 41 39 28 35 37 37 37 39 33 33 39 35 31 31 32 27 33 36 37 34 32 33 30 32 31 37 39
43 44 43 44 44 43 43 43 42 42 42 42 44 48 53 50 44 43 41 42 42 38 26 30 35 36 37 37 30 38 41 36 29 30 32 32 37 35 35 33 35 30 35 33 35 31 28
44 44 43 44 44 44 45 43 43 41 42 43 44 48 51 47 45 43 42 43 40 36 12 30 34 41 40 34 29 31 41 35 29 30 32 31 35 34 33 34 37 35 37 34 34 34 33
44 44 45 44 44 44 44 43 43 40 42 42 44 47 48 49 46 46 42 40 37 25 10 31 35 33 36 36 37 37 36 36 36 33 35 35 37 36 36 38 39 38 36 36 36 34 26
43 43 43 43 45 44 45 45 44 41 42 43 44 45 46 48 42 47 43 36 26 19 27 29 30 34 33 32 33 33 32 29 27 28 30 32 34 37 39 35 37 37 33 27 25 25 23
43 44 44 44 45 47 43 44 43 41 43 44 44 45 45 46 48 45 40 31 21 19 26 29 32 33 31 32 32 33 29 27 33 33 28 24 22 34 37 36 32 35 30 26 20 21 24
43 43 45 46 47 44 43 43 42 43 43 42 44 45 47 46 48 45 35 26 16 23 28 32 30 28 30 33 32 31 31 29 30 33 28 27 27 38 38 39 38 32 26 27 21 22 23
44 44 45 47 46 43 42 42 42 44 43 44 43 42 43 48 47 42 33 26 23 27 33 30 24 28 28 30 29 30 29 31 33 35 36 31 27 35 37 38 36 33 30 23 22 19 14
44 44 45 47 44 42 41 41 43 44 45 44 42 37 44 48 45 38 28 26 27 31 34 29 28 29 28 29 30 28 28 32 35 34 35 32 28 31 32 33 30 30 27 26 25 23 15
43 44 44 47 43 42 41 41 42 42 43 44 40 32 45 46 34 34 30 27 31 33 35 32 32 31 30 31 31 31 29 31 34 33 31 31 30 28 31 34 35 34 30 25 18 20 20
44 45 45 45 43 41 41 41 43 43 45 42 37 37 45 43 29 31 30 29 32 33 33 32 32 32 29 29 29 32 32 35 34 32 33 31 26 25 26 26 30 31 32 28 25 24 21
46 46 46 43 41 41 42 43 43 45 45 45 37 31 38 40 37 31 30 29 31 35 33 33 31 31 31 30 32 32 33 35 34 33 34 31 26 21 18 21 28 28 31 29 26 21 21
41 41 43 40 39 40 41 44 46 47 48 42 38 34 36 30 33 31 30 32 31 31 32 30 29 29 31 29 30 31 34 33 34 33 33 29 26 25 28 30 29 28 28 31 27 25 22
40 41 41 39 39 42 43 45 47 47 43 40 35 35 35 34 33 32 30 31 29 30 31 29 28 29 30 30 30 30 33 32 30 31 31 30 27 25 25 26 26 25 28 29 30 30 28
42 41 40 39 41 43 46 46 48 46 44 40 38 37 35 34 32 30 30 31 29 32 33 31 29 30 29 31 32 33 33 33 32 30 30 29 27 25 22 24 23 20 23 26 28 30 29
42 41 39 39 41 44 45 47 49 48 44 41 38 36 31 29 30 28 31 33 32 31 31 33 33 31 34 35 32 31 31 31 32 33 31 29 28 26 23 22 16 20 25 26 26 27 29
40 40 40 40 43 44 47 50 50 46 44 41 39 33 31 29 29 29 32 33 34 33 32 32 34 35 36 31 29 28 27 27 29 32 33 31 29 25 23 22 21 23 24 22 24 22 31
39 40 41 40 43 47 49 49 46 45 42 39 36 36 31 29 28 28 33 33 31 31 32 35 38 39 34 29 27 23 22 24 25 28 32 31 29 25 23 21 15 20 26 26 23 18 32
40 40 41 44 46 48 50 47 44 42 38 35 34 35 29 27 28 29 31 31 32 31 31 34 35 34 32 28 25 23 22 26 23 24 26 29 29 25 22 20 23 25 26 25 18 18 31
40 41 43 46 48 49 51 47 43 39 37 32 31 33 30 28 29 30 30 29 31 32 31 33 31 31 29 26 24 25 23 25 25 26 26 24 24 26 27 22 17 27 25 21 22 31 32
40 42 46 50 49 51 50 47 41 39 37 32 28 32 32 29 28 30 30 31 31 30 32 31 29 31 30 27 26 27 26 24 24 22 27 24 25 24 25 23 26 30 28 31 32 32 33

GFSGBSN_sfc_30mbdewp_093.txt.gz
Dewpoint
45 44 43 44 44 44 43 43 44 45 47 50 54 54 56 56 54 53 52 50 49 48 47 47 49 49 42 36 33 38 41 39 42 42 41 38 37 38 34 33 32 31 30 34 37 37 40
46 45 46 46 46 45 44 43 44 43 45 47 50 51 53 57 54 53 52 51 49 47 47 49 48 47 41 32 35 38 36 39 40 41 39 41 37 41 36 33 32 36 33 35 37 36 39
46 46 43 45 46 46 44 44 43 44 44 45 46 47 52 57 54 53 52 51 49 47 47 49 48 46 41 36 39 40 41 39 41 44 42 42 42 40 38 32 37 33 32 37 36 37 38
42 45 46 46 46 45 45 45 44 43 43 44 44 46 51 57 54 52 52 50 48 47 47 48 48 43 37 40 41 42 39 39 47 45 43 43 42 41 37 38 36 35 36 31 36 37 39
42 45 47 47 47 47 45 45 44 43 43 43 43 45 48 54 54 53 51 49 47 49 49 48 46 42 36 40 36 38 39 38 44 44 44 44 43 38 36 30 29 34 28 30 35 38 39
42 44 46 47 46 46 46 45 43 43 44 42 42 44 46 51 53 51 50 48 49 48 46 46 44 39 37 33 37 38 40 39 40 39 37 40 37 34 33 29 25 27 28 31 31 37 36
42 46 45 45 45 45 45 44 45 44 43 42 42 43 45 50 52 50 48 44 40 38 41 37 37 36 35 38 40 37 39 39 40 39 33 36 32 28 32 32 34 32 30 31 36 39 36
44 44 43 44 45 44 44 45 44 43 43 43 42 43 45 51 51 49 47 40 39 37 32 38 38 38 39 39 32 32 40 33 32 30 34 33 30 34 34 35 35 32 30 33 36 38 35
45 45 45 45 44 44 45 45 44 44 44 43 42 43 47 52 49 48 44 42 45 38 29 33 37 37 37 38 33 31 39 35 31 30 32 28 32 37 36 34 33 33 31 33 32 37 36
43 44 45 44 44 45 45 44 44 44 45 42 42 43 47 50 44 44 42 45 46 39 26 28 36 36 37 37 29 37 40 37 28 29 31 31 35 36 34 33 35 30 36 33 33 28 26
43 44 44 44 44 42 43 44 45 45 44 42 43 43 45 48 44 42 44 47 44 36 16 30 34 40 39 31 28 29 40 35 29 30 31 33 34 35 32 34 37 33 37 35 35 34 31
44 44 43 44 44 44 44 46 44 46 44 43 43 44 44 48 46 47 44 44 38 27 17 31 35 34 35 36 36 36 35 36 35 33 36 35 36 36 36 38 39 38 35 35 35 32 24
43 44 43 44 44 45 47 47 46 45 44 43 43 44 44 45 42 47 44 38 27 20 27 29 30 33 32 32 33 33 32 27 27 27 29 31 34 36 39 34 38 36 33 26 23 23 23
44 43 43 43 43 45 47 45 45 44 44 44 44 43 44 45 48 45 41 32 21 23 25 30 32 33 31 30 31 32 29 24 31 32 28 23 22 34 37 36 33 34 31 25 19 21 25
43 43 43 44 44 45 45 45 43 43 43 43 44 43 44 47 47 44 35 26 24 25 28 31 31 28 28 33 31 31 30 28 30 33 28 27 28 37 37 39 38 32 26 27 22 23 24
43 43 43 44 45 46 45 43 42 43 44 45 42 40 39 48 47 41 32 28 28 27 32 29 24 28 26 30 26 29 28 30 32 33 35 31 26 34 37 38 36 32 30 22 22 17 17
43 42 43 44 46 47 45 42 42 43 45 45 40 35 43 48 45 36 27 29 30 29 34 28 28 28 28 29 28 27 28 31 35 35 35 31 29 32 32 33 31 29 26 25 25 22 15
42 45 44 44 46 46 43 43 42 43 44 42 38 31 45 47 33 33 30 31 31 32 33 33 32 31 30 31 29 30 29 31 34 33 30 31 30 28 31 33 35 34 29 24 18 19 19
44 42 41 41 45 42 41 41 42 43 44 40 35 35 45 43 29 30 33 32 32 33 33 32 32 31 30 30 30 32 31 35 34 32 32 30 26 25 24 26 29 30 31 26 25 23 19
42 42 42 42 42 41 41 42 44 44 44 41 37 30 37 39 37 32 31 31 28 34 33 33 31 31 30 31 32 32 32 34 34 34 35 30 25 21 17 21 28 28 30 28 25 18 21
43 43 42 42 40 42 42 44 46 46 45 43 37 33 36 30 32 33 33 30 27 30 33 31 30 30 30 29 30 32 34 33 33 33 32 28 26 26 27 28 29 28 29 29 27 24 21
42 42 42 41 41 42 43 45 46 48 48 41 36 35 35 33 35 32 32 29 30 30 32 29 29 30 30 29 29 30 32 31 30 31 31 30 26 25 25 25 25 25 28 29 30 29 27
40 40 41 42 43 43 44 45 48 46 42 38 37 37 34 35 33 32 29 29 29 31 32 31 30 30 30 31 32 33 33 33 32 30 29 28 26 24 22 24 23 20 23 27 28 30 29
40 40 40 41 43 45 46 48 48 46 42 39 38 36 32 31 33 31 29 31 28 30 31 32 32 30 33 33 32 31 31 32 32 32 31 28 27 25 22 21 14 20 25 26 26 27 29
40 40 41 42 44 48 48 50 47 45 42 39 38 32 31 29 31 30 31 33 33 33 32 33 34 35 35 30 29 28 28 28 29 32 32 30 27 24 22 21 20 22 24 23 23 24 31
40 40 42 44 47 49 50 48 47 45 39 36 35 35 32 29 28 29 32 33 31 31 33 35 37 37 33 28 26 24 23 24 26 29 32 30 28 24 23 18 13 20 25 27 23 18 32
40 41 43 47 50 50 49 47 46 43 37 34 32 34 29 28 28 29 32 32 32 31 32 35 35 33 32 27 24 22 22 25 24 24 29 28 27 23 22 20 21 25 26 25 17 18 31
41 42 45 50 48 47 46 43 41 39 36 32 31 33 30 28 29 30 30 30 31 32 30 33 31 31 29 26 24 24 23 25 25 25 26 24 23 25 25 20 14 27 26 20 22 30 32
41 43 46 51 50 47 43 43 41 38 35 32 29 32 32 29 28 30 30 31 31 31 32 31 29 30 30 26 26 27 25 24 24 22 27 24 24 24 24 21 25 29 27 30 31 32 32

GFSGBSN_sfc_30mbdewp_096.txt.gz
Dewpoint
46 45 46 47 47 46 45 46 45 44 44 44 44 47 48 52 56 56 54 53 50 49 47 48 49 49 43 36 34 34 41 39 39 40 37 37 37 36 34 32 30 26 25 23 26 26 29
44 43 45 46 46 46 45 44 45 45 44 44 44 45 46 49 53 56 54 52 51 48 47 48 49 47 42 35 34 37 36 38 39 38 38 38 38 36 35 35 31 25 25 25 25 25 30
43 44 45 47 47 47 47 46 46 45 44 44 43 44 45 46 51 57 54 52 51 48 48 49 48 46 41 39 37 38 40 38 39 40 40 40 40 39 39 33 34 31 27 29 30 28 32
44 44 44 44 47 47 47 47 47 46 45 44 43 43 44 45 49 56 53 52 49 47 48 48 48 43 39 40 40 40 40 37 44 43 42 43 44 39 38 35 31 30 33 28 28 29 32
44 44 45 46 46 46 47 46 47 46 46 44 43 43 43 44 48 53 52 50 48 48 49 48 45 41 36 40 38 37 38 36 41 44 44 42 41 38 36 29 24 27 28 29 31 32 35
42 46 47 46 45 46 46 46 46 46 46 45 44 43 43 45 48 53 49 49 50 48 47 46 43 38 38 33 36 37 39 39 38 39 38 41 39 34 32 28 20 27 26 26 27 34 35
42 41 45 46 46 46 46 46 46 46 46 45 44 42 43 46 49 50 49 46 41 39 41 33 36 36 35 37 39 37 38 39 39 39 35 35 32 29 30 29 26 30 30 28 35 36 34
42 41 44 44 45 45 46 45 46 46 45 45 44 42 43 46 52 49 46 41 40 39 33 37 37 38 38 39 33 33 40 34 32 31 34 33 29 33 35 34 33 32 29 30 36 38 35
41 41 42 44 44 45 45 45 44 44 46 46 44 43 43 49 50 48 45 42 45 39 31 32 37 35 37 37 32 30 38 34 30 31 31 29 29 35 35 33 33 31 24 31 32 35 34
41 42 43 44 44 44 45 45 44 45 45 47 45 43 43 48 45 46 43 46 46 42 29 30 35 37 37 37 30 35 40 35 29 30 30 31 33 35 34 31 34 26 30 31 34 31 27
41 41 42 44 44 44 44 45 45 46 46 45 46 43 44 45 44 42 44 47 45 39 22 32 35 40 38 33 28 29 40 37 28 30 33 30 34 35 32 34 38 30 34 32 32 30 28
41 42 42 43 43 43 43 44 46 46 45 46 45 43 44 46 47 46 47 45 39 29 20 31 35 34 34 35 35 33 34 36 35 34 36 35 36 37 36 38 39 39 34 33 34 31 24
44 42 42 43 42 42 46 46 46 45 44 45 44 44 44 43 40 46 45 38 29 23 27 30 29 33 32 32 32 32 30 28 28 29 30 31 34 35 39 36 39 36 30 25 22 24 24
43 42 42 43 43 43 45 46 46 45 44 43 43 44 43 42 44 46 39 33 24 25 26 32 32 32 29 28 30 30 27 23 30 32 28 26 25 34 37 36 34 34 32 25 17 19 25
42 42 45 43 45 46 46 45 45 43 43 43 42 44 43 44 45 44 37 27 27 29 30 31 31 28 29 29 29 29 27 27 29 34 28 27 29 37 38 39 38 33 27 27 25 26 22
41 43 43 43 42 46 47 43 44 43 45 44 42 40 38 46 46 41 33 28 30 30 31 30 24 27 24 25 26 27 27 30 32 33 35 31 28 35 37 37 36 33 30 25 26 19 19
43 43 43 42 42 44 45 45 43 44 45 43 40 35 40 47 44 36 29 30 32 32 31 28 27 28 27 27 27 27 28 32 36 35 35 32 30 31 34 34 32 29 26 25 24 22 16
43 43 42 42 43 43 42 43 42 44 43 41 38 31 42 46 32 33 31 33 35 32 32 33 32 30 27 30 27 28 28 33 35 34 31 32 30 29 30 32 34 33 29 24 21 19 20
42 43 43 42 43 41 41 41 42 44 42 40 36 35 44 44 29 30 32 33 34 32 33 33 32 31 31 31 28 31 32 35 34 33 32 30 28 26 25 27 30 30 29 27 25 25 22
42 42 42 42 42 42 43 43 43 45 42 41 35 29 36 38 37 31 31 31 31 33 34 33 32 31 31 32 33 31 32 34 35 35 34 29 27 24 21 25 29 29 30 28 26 23 19
40 41 41 41 44 44 44 44 46 43 43 40 37 32 36 30 32 34 34 32 28 30 33 32 30 30 30 30 31 31 33 32 33 33 32 29 28 27 27 27 29 28 30 28 26 24 22
40 40 41 41 43 45 46 47 48 49 45 40 34 35 36 35 35 33 33 31 28 31 33 31 30 31 30 28 29 30 32 31 30 31 31 30 28 27 25 25 25 26 29 30 29 27 27
40 40 41 41 44 46 48 47 49 50 45 39 40 38 35 34 32 33 30 29 29 32 32 32 31 30 30 31 33 34 33 32 32 30 30 29 28 27 23 24 23 20 24 27 29 30 28
41 41 41 43 45 46 48 49 46 44 43 42 40 37 33 31 33 30 30 29 30 31 31 32 32 31 33 34 32 32 33 33 33 32 31 28 28 28 24 22 17 22 25 26 26 27 29
41 41 42 44 46 49 49 49 45 43 42 40 40 35 33 31 34 32 31 30 32 33 33 34 36 35 34 31 30 28 28 29 30 32 31 30 28 25 23 21 20 22 25 24 24 25 31
41 42 44 47 51 50 49 50 45 41 37 37 36 36 33 30 28 29 31 33 31 32 33 35 37 37 33 30 27 25 22 25 26 30 32 29 27 25 24 19 15 21 24 26 24 18 31
41 42 44 49 50 50 50 48 44 41 37 34 33 35 32 29 29 30 31 31 32 32 33 35 34 33 33 28 25 23 22 25 24 25 26 26 25 24 22 21 20 24 26 24 17 19 32
41 42 46 49 49 48 48 46 42 40 38 34 32 34 32 30 29 30 30 31 32 33 31 34 32 32 31 29 26 24 22 25 24 25 26 23 23 23 24 21 16 27 26 20 22 32 33
42 43 46 49 47 45 44 42 38 39 37 34 31 33 33 31 30 31 31 31 31 31 34 32 31 32 32 30 27 27 25 25 25 20 28 24 24 23 24 21 25 28 26 29 31 32 33

GFSGBSN_sfc_30mbdewp_099.txt.gz
Dewpoint
46 46 45 45 46 48 48 46 45 45 44 44 46 44 45 45 47 51 55 56 53 51 49 47 49 50 44 37 32 34 43 41 37 37 37 35 35 34 32 30 28 25 23 23 24 23 23
44 45 46 46 45 45 49 49 48 47 46 45 44 45 44 45 45 49 52 56 52 51 48 48 50 49 42 35 34 33 37 36 36 36 36 36 36 36 35 33 32 30 28 25 24 24 23
44 43 45 45 45 46 48 48 48 48 48 46 45 43 44 44 45 48 52 54 52 50 48 49 50 45 40 35 35 35 36 37 36 38 38 38 39 37 37 33 33 33 28 26 25 24 22
44 43 43 45 47 47 46 47 48 48 48 47 45 44 44 44 45 47 55 52 52 49 48 49 48 43 35 40 38 37 37 37 37 42 41 41 42 39 38 35 31 29 27 23 23 23 27
44 43 43 42 45 47 47 46 47 47 47 47 46 45 44 44 45 49 53 51 48 49 50 49 43 40 35 41 37 35 35 32 37 43 42 40 42 37 37 34 28 24 23 25 28 29 26
44 42 42 42 43 45 46 47 47 47 47 47 46 46 45 43 45 49 51 51 51 49 48 45 43 38 37 33 34 34 34 37 37 40 39 41 39 36 32 30 20 22 26 26 33 30 26
44 43 41 42 43 44 46 46 46 47 46 47 47 46 44 43 44 48 49 47 41 39 40 35 36 34 33 36 38 35 35 36 37 36 34 36 33 29 29 29 27 26 26 27 34 36 27
47 44 45 42 42 44 46 46 46 46 46 45 47 46 44 44 51 51 47 42 39 40 37 36 34 36 38 38 31 32 37 34 31 30 34 34 29 30 33 34 30 29 27 27 33 35 30
49 48 46 42 43 42 45 45 45 45 45 45 46 45 43 45 49 47 46 41 44 40 35 33 35 36 35 38 30 27 35 31 28 26 30 31 29 32 35 32 30 29 28 27 32 37 35
51 50 45 43 42 42 44 45 43 45 45 47 46 47 43 48 45 46 42 45 46 40 32 31 34 35 37 35 30 31 36 33 27 27 28 27 29 32 32 31 31 30 27 30 33 33 29
52 47 44 42 42 43 44 42 44 44 47 47 46 47 44 44 43 42 44 45 45 37 21 32 35 39 37 32 28 30 37 35 28 27 30 29 31 35 33 35 37 31 29 33 30 28 33
49 45 42 42 43 43 44 46 43 47 47 45 46 46 44 42 43 45 47 45 39 29 22 32 35 33 32 32 28 30 32 36 34 32 33 32 34 37 35 36 37 36 32 30 31 31 28
47 42 42 43 43 43 44 47 46 45 45 45 45 45 43 40 39 47 45 39 28 24 28 30 29 31 30 30 31 27 27 29 27 29 29 29 31 35 39 34 37 37 27 27 26 25 25
42 42 43 43 43 44 45 45 46 44 43 43 44 43 43 39 43 46 40 32 23 26 29 33 29 29 27 27 29 27 25 25 28 29 27 25 27 34 37 36 33 35 33 28 18 22 27
41 44 44 42 43 44 44 44 44 44 43 43 43 42 40 40 42 44 37 26 28 30 30 29 29 26 24 25 26 24 23 27 29 32 30 26 30 35 39 37 37 31 29 27 24 23 21
42 43 43 43 43 42 43 44 44 44 44 44 41 39 37 42 42 41 33 28 31 32 32 29 26 27 22 22 23 25 26 29 31 33 34 35 29 35 37 40 38 36 31 28 28 20 18
43 42 43 43 43 42 42 42 44 44 43 42 38 33 40 44 42 37 27 31 33 33 32 29 27 24 20 20 27 24 26 32 35 35 36 36 33 32 36 32 31 30 26 24 23 22 15
44 42 43 43 43 43 43 42 45 44 42 40 38 31 43 42 32 34 31 34 35 34 32 32 31 27 23 25 25 26 27 33 37 35 35 34 32 30 30 31 32 32 26 24 21 18 21
44 41 42 42 43 43 43 43 44 43 42 39 36 35 44 41 29 30 33 34 35 32 33 33 32 30 29 28 26 28 31 35 34 33 31 29 27 28 26 28 30 29 27 25 25 28 24
44 40 40 41 44 46 46 44 42 44 42 39 36 30 35 38 37 30 32 32 31 33 33 34 31 29 29 29 30 30 30 34 35 34 33 31 28 28 24 27 30 28 26 24 28 23 19
43 41 41 42 42 45 47 49 46 43 43 40 37 34 36 31 32 33 34 33 28 30 34 34 30 28 28 27 27 29 31 31 32 32 31 30 29 28 26 27 28 28 26 24 24 23 23
42 41 41 43 45 47 47 49 48 45 43 39 34 34 36 33 34 34 33 30 27 31 33 32 29 29 28 27 29 27 30 29 29 30 29 30 28 28 24 25 26 26 27 27 26 23 23
42 41 42 44 46 47 49 49 50 46 43 39 40 38 34 35 34 31 29 28 28 31 33 32 32 28 29 33 33 33 33 32 31 29 28 28 29 29 24 25 23 21 24 26 27 28 25
41 42 44 46 48 49 49 49 49 46 42 39 40 36 32 31 33 29 29 29 30 32 32 32 34 31 34 34 33 32 32 32 31 31 31 27 27 28 24 24 19 24 25 26 26 28 28
42 42 45 48 50 51 49 48 47 45 44 41 41 36 33 31 31 31 29 29 32 33 34 35 36 35 33 32 29 27 27 28 30 32 30 30 27 25 24 19 20 22 24 24 24 24 28
42 43 45 50 51 50 49 48 46 45 44 40 37 37 34 30 29 31 30 31 28 31 33 35 36 36 35 30 27 24 20 25 24 29 31 29 28 24 24 21 16 21 24 25 25 18 29
42 43 45 50 50 50 50 48 43 40 37 36 35 37 33 29 30 31 28 28 33 33 32 34 33 34 34 28 25 23 20 25 22 23 25 26 25 24 22 21 19 23 26 24 18 23 30
42 43 45 49 49 49 48 45 41 40 37 36 34 36 35 30 31 31 31 33 33 34 30 35 33 32 32 29 26 24 20 23 23 24 24 22 22 22 22 21 18 26 25 19 25 31 32
42 43 45 50 47 46 45 44 42 40 36 36 34 33 34 33 32 32 31 32 32 32 35 35 33 34 34 31 28 26 23 24 22 16 28 23 23 22 23 21 25 27 27 28 30 32 33

GFSGBSN_sfc_30mbdewp_102.txt.gz
Dewpoint
47 46 45 44 46 46 46 46 48 49 49 48 47 47 45 45 45 45 46 50 53 55 52 49 48 50 47 39 36 43 46 43 40 38 36 35 34 33 30 30 29 28 27 25 24 24 24
47 46 45 44 44 46 48 48 47 48 48 48 47 47 46 45 45 45 46 49 52 53 50 48 49 51 45 36 34 38 40 37 34 34 35 35 36 35 34 33 32 30 29 30 30 30 25
46 46 45 43 44 43 46 48 48 47 47 48 48 47 46 45 45 44 46 50 55 53 50 49 51 47 41 37 34 33 35 34 36 36 36 37 39 37 37 33 33 34 29 31 31 29 27
46 46 45 44 43 43 42 46 47 48 48 47 47 47 46 46 45 44 48 53 53 51 50 50 51 46 38 39 39 35 35 36 36 38 40 40 41 38 37 37 33 31 32 28 27 26 27
48 48 46 45 44 43 43 44 46 47 47 46 47 47 47 46 45 44 53 53 51 49 49 49 46 44 35 41 36 36 36 33 35 41 41 40 41 39 37 34 29 29 25 27 27 28 28
50 49 49 48 47 44 41 44 45 47 45 46 45 46 47 46 45 44 51 51 51 50 49 47 45 39 37 34 35 32 33 32 35 39 40 39 37 34 35 32 22 26 27 27 25 31 36
52 52 51 51 47 45 42 44 43 45 50 49 47 45 47 46 45 48 48 46 41 40 44 38 36 34 34 36 36 35 32 35 36 34 32 37 33 29 28 30 31 28 29 28 26 29 35
52 52 49 46 46 43 43 43 43 45 45 45 46 47 46 45 49 50 48 42 40 43 36 40 38 37 37 38 32 32 34 33 33 30 32 34 29 30 31 30 33 33 30 26 27 34 34
54 48 46 45 43 42 43 42 43 44 43 45 46 47 46 46 48 47 44 43 45 41 36 36 36 37 36 37 30 30 34 32 29 27 26 31 30 30 34 33 33 30 28 26 30 34 34
50 48 42 43 43 43 42 44 45 45 44 45 44 46 46 45 44 45 42 46 46 45 32 32 32 34 36 36 31 30 33 33 26 25 26 28 32 32 32 33 33 28 30 31 34 31 28
49 43 44 44 43 43 44 44 45 47 46 46 45 46 46 45 43 41 45 47 46 41 21 34 34 39 36 33 29 29 35 34 27 25 28 26 31 34 32 33 35 30 34 34 34 32 30
43 43 44 43 44 44 45 46 44 44 45 45 47 45 45 42 42 45 47 44 41 29 21 32 35 34 32 32 24 30 33 35 34 31 29 29 32 35 35 36 36 36 35 32 31 32 27
42 44 44 43 44 43 44 43 44 44 44 45 46 45 43 40 40 46 44 39 27 22 33 28 29 31 32 28 30 25 24 29 29 28 27 30 31 34 38 34 37 36 33 25 25 26 25
42 44 44 43 43 43 44 44 43 42 43 44 45 44 42 40 46 44 41 33 23 29 31 31 29 29 32 27 29 26 24 25 27 28 31 26 27 33 38 36 33 35 33 27 21 23 27
43 43 44 44 43 42 43 44 44 43 43 43 43 41 40 41 45 43 36 26 25 30 32 28 28 24 24 26 26 24 24 27 30 30 30 29 29 36 37 38 37 35 31 30 29 30 28
44 43 43 43 43 43 42 43 44 43 44 43 41 38 40 42 43 39 32 29 30 33 32 30 27 23 20 21 21 24 23 30 32 34 36 35 28 34 36 39 38 36 35 27 28 24 23
43 42 42 43 43 43 43 43 45 44 42 43 40 34 42 43 40 35 28 30 33 32 32 32 31 23 18 20 27 32 28 33 34 35 37 36 31 33 36 34 31 32 26 26 24 22 19
43 42 41 42 44 44 43 43 44 43 43 42 38 30 43 44 32 34 31 34 35 32 32 32 32 26 23 24 27 28 30 34 37 38 34 36 34 30 29 32 32 32 27 24 23 21 24
43 43 41 42 43 45 45 43 44 43 42 39 36 35 42 42 28 30 34 33 34 32 32 33 30 28 29 29 28 29 30 35 34 34 31 30 28 28 26 28 30 29 25 26 30 30 21
43 43 42 42 44 46 47 47 43 44 42 41 38 31 36 38 37 30 32 31 30 34 33 33 31 28 29 27 29 29 30 34 35 33 34 33 29 28 25 27 30 27 25 25 27 23 23
42 42 42 44 45 47 48 48 46 43 43 41 38 33 34 31 33 32 33 31 26 30 33 34 29 28 28 26 28 30 30 31 33 32 31 31 26 27 25 27 28 28 26 24 23 24 24
42 43 43 45 48 49 49 48 49 44 44 40 35 33 34 33 34 31 31 29 27 31 34 30 29 28 31 30 30 28 29 30 29 29 29 30 26 28 24 25 26 25 26 27 26 24 24
42 43 44 47 49 51 49 49 49 45 44 39 40 38 33 33 32 29 28 29 29 32 33 32 32 31 32 33 32 32 31 31 31 30 28 28 29 29 22 25 24 23 24 26 27 28 25
42 43 45 48 51 51 49 51 50 45 44 41 41 37 33 31 31 28 28 30 31 33 32 34 34 33 34 33 33 32 31 31 31 31 30 28 27 29 25 24 20 25 25 26 27 28 29
42 43 46 48 51 49 49 49 48 45 45 44 42 39 35 30 30 30 28 31 31 33 34 35 36 35 35 33 30 27 28 29 29 31 30 30 29 26 24 20 20 22 24 24 25 25 28
42 43 46 49 51 49 49 47 47 45 46 43 38 39 38 31 30 31 29 30 28 31 33 35 36 36 34 32 27 24 22 24 24 28 31 29 28 25 24 21 17 23 25 25 25 20 29
42 43 46 49 50 50 48 47 47 46 45 41 37 38 38 29 31 32 30 30 33 32 33 34 33 34 34 31 26 24 21 24 22 22 24 26 25 23 24 22 22 24 26 25 18 24 30
43 43 45 49 49 51 49 45 42 40 38 38 36 36 38 31 32 32 32 33 33 34 31 35 33 33 33 30 27 24 21 24 23 23 24 22 21 23 23 22 18 26 24 20 27 31 32
43 42 45 47 49 47 45 43 41 39 38 38 36 35 36 35 32 32 32 32 32 32 34 35 33 34 35 32 29 26 24 23 21 18 27 20 23 23 23 24 25 27 27 27 31 32 33

GFSGBSN_sfc_30mbdewp_105.txt.gz
Dewpoint
48 48 47 48 47 46 46 44 48 49 49 48 48 49 48 48 46 46 45 45 47 53 56 53 51 50 48 42 39 41 47 48 43 40 39 36 35 33 30 30 31 30 29 29 30 30 28
49 49 49 48 47 46 45 45 44 47 48 48 48 48 48 48 47 46 45 44 47 52 55 53 49 51 45 37 42 46 43 41 38 36 36 35 35 35 33 32 32 32 32 32 31 31 31
51 51 50 50 49 47 46 45 45 45 46 47 48 48 48 47 47 46 45 45 47 52 54 51 50 48 42 38 37 41 40 36 36 36 35 39 39 36 36 33 35 34 32 33 31 31 31
51 51 51 51 51 51 49 48 45 44 46 47 47 48 47 47 47 46 46 53 53 53 52 53 53 47 40 46 36 36 35 35 36 38 40 40 41 38 36 37 33 31 31 27 28 29 31
52 52 53 54 50 48 47 47 44 44 45 46 47 49 48 48 47 46 47 53 53 52 50 52 48 45 37 40 36 35 36 35 37 41 40 41 41 38 36 31 28 29 22 26 28 30 30
52 53 50 48 47 46 44 44 44 44 44 45 43 47 47 47 47 45 47 51 51 51 49 47 44 38 40 37 36 36 37 36 37 41 41 39 36 32 33 30 17 24 25 26 26 29 30
51 49 46 44 43 44 44 43 43 44 45 45 46 47 47 46 46 47 48 44 40 38 45 39 39 36 38 36 35 33 33 36 36 37 31 38 31 28 29 32 30 29 29 27 29 31 33
50 47 42 44 44 43 43 44 44 43 45 44 46 47 45 46 46 49 47 41 41 40 36 42 41 39 38 38 34 34 34 34 34 27 31 33 29 30 32 31 31 29 30 29 30 31 36
49 43 45 43 44 44 45 45 45 45 45 44 45 46 46 46 46 46 43 43 47 45 37 40 40 39 37 37 32 33 34 33 32 29 27 28 28 31 31 32 32 32 30 28 28 30 34
44 44 45 44 44 44 45 44 44 45 47 45 45 46 45 46 41 43 39 45 47 46 32 32 36 38 38 38 33 34 35 34 29 26 27 27 28 31 31 30 34 30 31 31 34 32 26
43 45 44 44 44 44 44 43 44 45 45 45 45 46 45 46 42 41 44 47 47 43 18 34 35 40 37 34 30 31 35 34 28 28 28 25 32 33 32 31 35 31 34 34 34 33 30
43 44 44 44 43 44 44 43 42 44 46 46 45 46 45 42 43 45 47 47 42 28 19 31 35 36 33 33 28 33 34 35 34 32 30 29 33 33 34 36 36 36 35 34 33 32 26
44 44 45 44 43 43 44 44 42 44 44 45 45 44 43 43 41 46 43 38 25 22 34 29 31 32 31 29 28 29 28 32 28 26 25 29 31 35 37 33 36 36 33 24 24 25 25
44 44 44 44 43 43 43 44 44 43 43 43 44 44 42 45 45 42 40 32 22 29 29 32 30 34 31 31 30 26 25 24 29 30 29 27 25 33 37 35 34 33 33 26 19 23 26
44 44 43 43 43 43 42 44 44 44 44 44 45 42 42 44 44 43 34 26 26 30 33 28 29 25 25 26 26 26 24 27 31 28 29 29 28 36 36 37 36 34 31 35 29 31 27
43 44 42 44 44 44 43 44 44 44 43 44 41 39 41 44 42 39 31 29 31 33 33 34 27 23 22 22 22 26 25 32 33 36 36 34 27 35 35 38 38 35 36 29 29 22 21
43 44 42 42 44 46 46 43 44 44 43 45 40 33 40 45 41 33 28 30 33 34 33 34 30 23 20 22 30 30 31 34 35 38 38 35 31 32 36 35 31 33 29 29 26 24 23
43 43 43 43 44 45 47 47 43 44 43 41 36 30 41 44 29 33 30 33 35 33 32 32 32 28 21 26 28 32 33 35 38 38 35 37 34 28 29 31 33 32 30 25 23 20 24
42 42 43 44 46 47 48 49 47 44 43 41 34 36 40 40 28 29 32 32 34 32 32 33 29 28 29 30 28 31 32 36 37 35 30 32 29 26 26 26 28 30 27 27 29 28 23
43 43 44 45 47 48 48 49 49 44 44 41 35 25 33 37 36 31 30 30 30 34 34 34 33 28 28 28 30 29 31 34 34 33 34 34 28 26 23 26 29 26 27 26 26 23 26
43 43 45 46 48 49 50 49 49 45 44 41 36 30 32 31 32 32 32 31 30 31 33 32 29 31 30 29 29 29 30 30 33 32 31 30 26 26 25 27 28 26 27 26 25 26 24
43 44 45 47 49 51 51 49 49 46 44 40 34 32 35 32 33 31 31 28 31 32 32 31 31 33 32 31 31 30 30 30 30 30 28 31 25 28 23 25 24 24 26 27 26 26 27
43 44 45 48 49 51 50 49 49 47 44 39 39 39 32 32 31 31 27 29 31 33 33 34 33 32 31 32 33 33 31 31 31 29 29 28 28 28 18 23 24 20 24 26 28 28 27
43 44 46 48 51 50 50 50 49 47 44 43 41 40 32 29 31 29 29 31 31 33 32 35 34 32 33 35 34 33 31 31 31 31 31 29 27 28 22 23 17 23 25 26 27 28 29
42 44 46 49 51 49 50 50 48 47 46 44 41 37 35 29 30 29 29 32 32 34 33 34 35 35 35 34 30 27 28 28 30 31 29 30 29 25 23 21 20 23 24 24 24 24 29
42 44 45 49 51 49 49 48 48 46 46 44 40 38 38 30 29 31 29 31 29 30 33 34 35 36 34 33 27 23 22 23 23 25 31 29 28 25 23 20 13 20 25 25 24 18 28
43 44 45 49 50 48 48 46 46 46 46 43 38 38 37 31 30 31 30 30 33 32 32 33 33 34 34 31 26 23 21 24 21 22 24 25 25 23 24 21 22 24 25 25 15 15 30
42 44 44 47 48 50 48 48 46 44 39 38 36 36 37 31 31 32 32 32 33 34 32 34 32 32 32 28 27 24 22 23 22 22 23 23 22 23 23 22 15 26 24 20 23 31 30
42 43 44 46 49 49 50 47 42 40 37 39 37 35 37 34 32 32 32 32 32 33 33 35 33 34 35 31 29 27 24 23 21 16 27 19 23 22 23 22 25 26 26 26 32 32 33

GFSGBSN_sfc_30mbdewp_108.txt.gz
Dewpoint
52 52 52 52 52 52 51 49 48 46 46 46 47 49 49 49 49 48 47 46 44 44 49 54 53 51 49 42 39 41 46 47 44 41 38 36 34 34 30 31 32 30 30 31 31 32 32
52 52 52 53 53 53 52 52 50 48 46 44 46 48 49 50 49 48 47 46 45 44 51 55 52 52 45 37 41 44 47 42 40 37 36 37 34 34 33 32 30 32 32 32 33 32 31
51 51 53 50 51 49 49 51 50 46 48 44 46 47 48 48 48 48 47 46 47 49 49 55 53 50 44 39 44 44 41 39 37 36 35 39 38 33 34 32 35 33 31 32 32 33 32
53 51 50 48 47 47 48 46 45 45 44 44 44 45 45 50 49 48 46 47 52 53 51 54 52 48 41 45 41 41 37 36 37 41 40 41 40 37 35 36 32 32 31 26 27 31 31
51 50 47 43 44 43 44 45 44 44 44 44 45 44 45 47 48 48 46 46 52 53 54 52 47 44 38 44 39 37 36 36 37 41 39 42 39 35 34 30 27 28 22 26 28 31 30
50 47 43 45 44 45 45 44 45 44 43 46 45 46 47 46 47 48 48 47 51 51 50 47 48 41 40 37 36 35 36 38 39 41 40 38 36 32 31 28 16 21 24 26 25 27 29
49 43 45 44 44 44 45 44 46 46 45 45 46 47 46 47 47 47 47 40 37 40 44 40 39 38 38 38 37 36 36 36 39 39 31 37 30 27 28 29 29 29 29 28 29 29 30
43 45 44 45 44 44 44 43 45 46 46 45 45 45 47 46 48 48 46 41 39 40 35 43 40 36 38 36 32 34 36 33 34 29 33 32 28 30 30 30 30 30 29 27 29 31 33
44 45 44 44 44 44 44 43 44 44 47 45 45 45 46 46 46 45 43 44 47 47 35 38 42 39 37 36 33 33 34 34 32 28 27 27 25 30 31 30 31 31 29 29 28 30 35
44 44 45 44 44 44 44 43 46 46 45 45 46 46 45 46 42 42 40 46 47 46 31 33 37 40 39 37 32 35 35 34 30 28 28 28 29 28 29 29 29 29 30 32 32 32 26
45 44 45 44 43 44 44 43 45 46 46 46 46 46 46 44 42 42 43 46 46 42 17 34 36 39 37 35 32 32 35 34 29 27 29 25 29 33 31 31 33 30 33 33 33 31 30
46 44 45 44 44 43 44 44 43 44 44 45 45 45 45 41 44 46 47 47 40 25 17 31 35 35 34 34 30 35 34 35 34 31 31 30 32 32 31 35 36 35 35 33 33 32 25
45 43 45 44 44 44 44 44 44 44 45 45 46 45 45 45 41 46 43 38 25 21 33 29 30 32 31 29 29 29 30 30 27 25 24 29 31 33 36 33 34 36 32 23 22 23 22
45 43 43 45 45 45 44 45 44 44 44 47 47 44 45 45 44 43 40 30 21 28 29 31 32 33 29 31 30 27 25 24 29 30 28 26 23 32 37 33 33 32 32 25 19 22 24
44 44 42 44 46 46 45 44 45 45 45 46 44 41 42 45 43 42 32 25 27 30 33 31 33 26 27 29 27 26 25 25 30 30 28 27 25 36 36 37 36 34 31 35 28 30 27
44 43 43 44 45 46 47 47 44 45 45 47 42 37 38 44 44 37 31 29 32 34 34 33 26 23 22 23 22 26 27 33 35 37 37 34 26 34 36 37 38 35 37 29 30 22 20
43 43 44 45 46 47 48 48 48 44 45 45 37 30 36 43 39 33 29 30 34 34 34 34 29 21 22 27 29 29 32 35 38 38 38 35 32 31 36 33 31 34 32 33 30 28 24
43 44 45 46 47 48 48 49 49 44 44 41 35 21 37 41 30 33 30 32 34 33 34 32 32 24 22 27 32 33 33 35 37 37 34 36 33 28 28 31 33 32 31 29 22 24 25
43 44 45 46 48 49 50 49 49 44 45 40 33 33 37 38 26 29 31 31 33 33 33 33 29 29 29 30 29 32 32 35 37 38 32 35 28 25 23 22 28 29 28 27 29 26 24
42 45 45 47 49 50 51 50 49 44 44 40 33 23 30 35 35 30 29 29 29 34 34 33 32 30 29 29 30 29 30 33 34 34 34 33 27 25 22 26 28 26 27 27 25 23 26
42 45 45 47 49 50 51 49 48 44 45 39 34 31 33 30 30 32 32 31 31 31 33 33 31 33 30 29 29 30 30 30 32 32 32 28 25 26 25 26 26 25 27 27 25 27 22
42 44 46 47 49 51 51 49 48 44 43 38 34 32 34 31 32 31 30 29 31 32 31 31 32 32 32 31 31 29 30 30 29 30 29 31 26 28 22 24 25 24 26 27 28 29 30
42 44 46 48 50 51 50 49 48 44 42 38 38 39 32 30 30 30 27 29 31 33 33 34 33 31 30 32 33 33 33 31 31 29 29 28 27 26 15 23 24 17 24 26 27 28 28
41 44 46 48 51 50 50 50 48 45 44 43 41 40 33 27 30 30 30 32 31 33 32 34 34 31 33 35 34 33 32 31 31 30 31 28 27 27 21 21 10 20 26 26 28 28 28
41 44 46 49 50 49 51 50 48 46 46 41 39 35 33 29 30 29 30 31 31 33 33 34 34 35 36 34 29 26 26 27 28 31 29 30 28 24 22 20 18 21 24 25 25 26 30
41 43 45 49 48 48 50 49 48 46 47 42 37 38 37 31 28 31 30 31 29 29 31 34 35 36 34 32 26 22 20 23 22 23 28 29 28 24 22 16 9 16 25 26 22 20 29
41 43 45 48 50 47 48 49 48 47 47 42 37 37 36 32 30 31 30 30 33 32 32 33 33 33 35 30 26 23 21 24 18 21 22 24 25 22 23 21 20 23 25 24 17 13 29
41 43 44 46 49 49 48 48 48 47 46 39 36 37 36 31 31 32 32 32 32 33 32 33 31 31 31 27 26 25 22 22 23 22 23 20 22 22 23 21 10 26 25 20 21 30 30
42 42 44 45 47 49 50 48 48 42 39 40 36 36 38 34 32 32 32 33 33 33 33 34 32 33 34 31 29 27 23 24 21 15 24 21 23 21 24 22 25 26 24 24 31 30 31

GFSGBSN_sfc_30mbdewp_111.txt.gz
Dewpoint
52 52 52 51 49 49 48 48 48 51 51 51 49 45 46 49 50 50 50 48 47 45 43 46 55 54 47 41 37 40 50 47 44 40 36 35 33 33 27 30 31 30 30 32 32 33 33
52 50 51 45 43 44 44 46 47 47 47 47 48 46 46 47 49 49 48 48 47 47 45 46 54 52 44 36 42 44 45 42 41 38 38 36 34 33 32 32 30 32 32 32 33 32 33
51 49 44 45 45 46 46 47 46 47 46 45 45 44 45 45 47 48 48 48 47 47 47 48 51 49 42 41 46 44 43 39 38 37 36 39 36 33 34 31 35 33 30 31 30 32 32
49 44 46 45 45 45 46 45 45 46 45 43 45 45 44 44 47 49 47 47 47 51 50 50 52 46 40 49 46 42 38 37 40 41 40 41 39 37 34 35 31 31 30 24 26 32 31
44 45 44 45 45 43 44 45 45 46 46 45 46 46 46 47 45 46 48 47 49 53 50 53 47 44 39 48 45 37 37 36 40 39 42 41 37 34 32 29 25 27 21 24 26 31 29
45 46 44 44 44 44 43 44 45 45 46 46 46 46 46 48 47 47 48 47 50 49 50 48 47 39 42 38 42 42 38 39 40 40 40 37 36 29 28 27 16 22 24 25 26 27 29
46 46 45 44 43 43 44 46 45 46 47 46 46 46 46 47 46 47 41 42 38 38 43 38 39 39 40 39 43 42 37 36 40 39 32 36 29 25 27 28 27 28 28 26 28 29 29
46 46 44 43 44 44 44 45 45 45 46 46 45 46 45 46 47 46 45 36 39 39 36 43 40 39 41 39 37 35 37 34 35 32 35 31 26 28 29 29 29 28 27 26 28 30 30
44 45 44 44 43 44 44 45 45 46 46 46 46 46 45 46 46 44 45 43 48 47 34 38 41 39 38 36 33 33 34 35 32 29 28 26 24 29 30 29 29 29 29 27 27 30 32
44 46 44 44 43 45 44 44 45 45 46 46 46 45 45 46 40 41 40 47 48 46 31 31 36 38 38 37 32 35 35 34 32 27 27 27 28 28 28 28 29 27 28 29 28 31 23
44 46 45 44 44 45 45 44 45 46 46 47 46 47 45 45 42 41 45 45 46 41 16 34 36 39 38 34 32 32 35 33 30 27 29 25 27 32 31 31 32 29 34 34 33 31 29
45 44 46 46 44 45 45 45 45 44 46 48 47 47 45 42 44 46 47 46 39 19 18 30 35 34 33 33 31 35 34 35 34 31 31 29 31 31 31 33 34 36 34 34 34 31 24
45 43 45 46 46 45 45 45 44 45 45 47 46 46 45 45 41 44 42 37 23 19 32 29 30 33 30 29 29 30 30 28 25 24 23 28 30 31 35 33 33 35 33 22 19 23 21
43 43 44 46 47 47 46 45 45 45 46 47 46 43 44 44 44 43 39 27 19 27 27 32 32 31 28 30 28 26 25 24 29 29 28 25 21 31 36 33 32 33 31 26 19 21 24
44 44 44 46 47 48 48 48 45 45 46 48 43 40 40 41 44 41 32 25 27 29 32 31 32 26 27 29 27 26 25 25 30 30 26 26 24 34 36 35 35 33 30 35 28 29 26
44 44 46 46 47 48 49 49 48 45 46 46 39 36 34 42 42 36 30 28 31 34 34 32 25 22 22 23 23 25 26 33 34 36 37 34 26 30 35 37 37 34 37 29 29 22 21
44 45 46 46 48 49 49 49 47 45 45 42 35 26 32 41 38 33 29 31 33 34 34 33 28 21 23 27 28 29 32 35 37 38 38 36 31 29 36 33 31 34 32 33 33 28 23
43 45 46 47 48 49 50 49 45 45 44 38 33 25 34 38 28 31 29 32 34 33 34 32 32 23 22 30 33 33 33 35 37 37 34 36 33 28 27 31 34 34 33 30 27 25 24
43 45 46 46 48 50 50 50 45 45 43 36 30 30 34 35 27 28 30 30 32 33 33 33 30 30 29 30 28 33 33 35 37 37 33 35 28 24 20 23 28 29 29 28 30 28 25
44 44 45 47 49 49 50 50 46 44 44 38 30 24 31 34 33 30 29 29 30 33 33 33 32 31 30 30 31 29 30 33 36 37 38 33 27 25 22 26 28 25 27 28 29 23 25
45 43 45 46 48 50 50 50 47 44 43 36 33 31 33 28 29 31 30 30 31 31 32 33 31 32 31 28 29 29 30 30 32 31 33 28 24 26 25 25 25 25 27 27 25 26 22
45 43 45 47 48 50 51 50 48 44 43 38 33 31 32 31 31 29 28 28 30 32 33 31 31 32 32 30 31 29 31 30 29 30 29 30 26 28 21 23 24 24 26 27 28 29 29
45 42 45 48 49 51 49 49 49 45 42 38 38 38 31 29 29 28 28 30 31 33 32 34 33 32 30 32 33 33 33 32 31 30 29 28 26 25 14 23 22 16 24 26 27 28 29
45 42 45 48 50 49 49 49 49 46 45 41 40 39 30 27 29 29 29 30 31 32 33 34 34 31 33 35 34 33 32 31 31 30 31 28 27 26 20 21 10 15 26 25 28 28 29
46 42 45 48 49 49 51 49 47 46 46 40 39 35 32 27 29 29 30 30 31 30 31 34 34 35 36 33 29 25 24 25 27 29 30 30 27 22 18 19 17 18 24 25 26 26 29
46 42 45 47 49 49 50 50 47 47 45 38 36 38 36 29 28 30 30 30 29 29 30 31 34 35 34 30 26 22 16 22 19 20 28 28 27 24 22 13 0 12 24 26 23 21 27
47 42 44 46 50 47 49 49 48 47 47 39 36 37 35 30 30 31 29 29 32 32 32 32 34 33 34 29 26 23 21 24 19 19 21 23 24 22 22 20 18 21 25 23 17 11 26
47 43 43 45 48 49 47 47 47 47 47 41 36 37 35 31 31 32 32 31 33 33 31 32 30 31 31 26 27 25 23 22 23 22 22 20 20 21 23 21 7 25 25 20 20 29 29
48 44 43 44 46 48 49 47 47 46 41 41 35 36 37 33 31 33 32 33 33 34 34 33 31 32 33 30 29 28 24 24 22 18 21 18 22 20 23 20 24 25 25 25 28 30 30

GFSGBSN_sfc_30mbdewp_114.txt.gz
Dewpoint
50 45 45 45 45 45 46 46 46 46 47 48 49 48 48 47 47 48 50 50 50 48 46 43 48 55 46 41 38 42 52 49 41 38 35 33 31 30 25 30 30 28 30 32 32 32 32
46 45 44 45 45 44 44 45 45 45 46 47 46 46 45 46 46 47 48 49 50 48 47 45 50 51 45 38 47 46 43 41 39 38 36 34 33 33 32 31 29 32 32 32 32 32 33
45 46 45 45 44 43 43 44 46 46 47 45 46 46 45 45 45 47 48 49 48 47 47 47 50 50 45 42 48 43 41 40 38 37 37 38 36 32 33 30 34 33 29 30 30 31 30
45 46 44 44 43 42 45 46 46 46 47 47 45 46 46 45 44 47 48 47 48 47 48 49 50 48 41 50 49 41 37 39 41 41 40 39 37 36 34 34 29 29 28 18 25 32 31
45 44 45 44 43 46 46 46 47 46 46 45 45 44 47 47 45 43 47 48 50 51 51 49 46 43 39 50 46 45 38 39 40 42 41 39 36 33 31 27 21 25 19 23 25 29 30
45 44 43 43 44 46 44 44 46 46 45 46 46 46 46 46 47 48 48 49 49 48 47 47 47 38 43 42 44 39 40 41 40 40 38 36 34 28 28 25 12 22 24 25 25 27 29
45 46 43 43 44 45 45 45 45 45 45 45 46 46 47 48 45 44 42 40 39 38 42 37 38 38 42 44 40 38 38 39 40 37 32 35 27 23 25 27 26 26 24 24 25 28 29
45 46 43 44 45 45 45 46 46 46 46 45 46 46 46 47 46 47 42 38 40 42 36 43 41 42 43 41 37 36 37 35 36 31 34 30 24 27 28 28 28 28 26 25 26 29 29
45 46 44 45 45 45 45 45 46 46 47 47 47 45 46 46 45 45 42 43 48 47 34 38 41 40 40 40 36 34 35 35 32 29 30 25 25 29 29 29 28 28 27 26 26 27 30
44 47 46 45 45 45 45 45 45 46 46 47 48 46 47 44 41 42 42 47 48 47 30 31 36 38 38 36 32 35 35 33 32 25 27 26 27 27 27 27 28 26 29 29 27 27 25
44 44 47 45 45 45 45 45 45 45 45 46 46 47 45 44 42 42 44 47 46 41 14 34 36 39 38 32 32 32 35 33 30 28 28 22 27 30 31 30 30 29 32 33 33 31 30
45 44 45 46 46 46 45 45 45 46 46 46 45 45 44 43 43 44 44 42 37 17 17 29 36 34 31 31 33 35 33 34 34 30 30 27 30 30 28 31 32 32 33 33 33 32 24
44 45 45 46 47 48 47 45 45 46 46 47 46 44 44 43 38 43 42 35 20 19 32 27 29 32 29 28 29 30 29 27 23 22 23 27 29 31 32 31 32 34 32 22 18 23 20
45 45 45 46 46 47 49 49 45 46 47 47 46 41 42 43 43 43 37 24 19 27 27 32 32 31 27 29 23 25 26 24 27 29 26 24 20 30 36 33 30 33 32 25 18 19 22
45 45 47 47 47 47 48 49 47 46 47 46 43 38 37 38 43 40 32 26 25 28 31 29 31 26 27 29 27 26 24 25 27 30 25 24 23 33 35 35 34 33 30 35 28 28 25
44 46 47 47 48 48 48 48 48 46 46 45 36 33 31 39 40 35 29 28 31 34 34 31 24 23 22 24 23 25 26 31 33 32 36 32 26 29 35 37 36 35 37 29 29 21 20
44 45 46 47 48 49 50 49 49 46 45 42 32 28 32 39 38 32 28 30 33 34 34 33 28 21 23 29 28 29 31 33 36 37 38 35 31 28 35 33 32 34 32 33 33 29 22
47 43 46 46 48 49 50 50 49 45 45 36 31 25 33 37 29 29 30 31 34 33 34 32 32 25 24 33 33 33 32 34 37 37 33 35 33 28 27 32 34 35 33 33 26 26 25
48 44 45 46 48 50 49 50 49 46 44 33 27 28 34 35 26 27 29 30 32 32 33 32 31 32 29 29 28 33 33 34 37 37 34 35 29 24 16 24 28 28 30 29 29 28 24
49 46 44 46 48 50 51 49 49 47 45 34 30 21 30 33 32 30 29 30 30 33 33 33 33 32 30 30 30 29 30 32 36 37 38 35 27 25 23 25 27 26 26 28 29 25 26
49 47 43 46 47 49 51 50 49 48 45 36 32 31 32 26 29 29 30 30 30 30 33 33 31 32 31 28 28 29 30 30 32 32 34 29 24 26 25 25 25 25 26 27 27 26 22
50 47 44 45 48 49 51 50 49 48 45 37 31 31 31 30 30 28 28 29 31 32 32 31 31 32 31 30 31 30 31 30 29 30 29 30 25 27 21 22 24 23 25 27 29 30 29
50 48 44 45 48 49 51 49 48 47 43 37 38 35 29 29 29 27 28 30 31 33 32 34 33 32 30 31 33 33 33 32 32 30 29 28 26 24 14 22 21 16 22 26 27 28 29
51 48 45 45 48 49 49 49 48 47 46 40 39 34 28 24 28 27 29 30 31 31 32 33 34 31 31 36 35 34 33 32 31 31 31 28 26 26 21 19 8 11 26 26 27 28 29
52 48 45 45 49 49 50 50 47 47 44 39 38 35 30 25 28 29 29 29 31 30 31 33 34 34 36 32 27 24 22 24 27 28 28 30 27 23 17 16 13 17 20 24 26 24 28
52 49 45 44 49 49 50 49 47 47 45 37 36 38 34 29 26 29 29 30 28 27 29 30 34 35 34 29 26 20 14 22 20 20 28 28 27 24 22 12 -3 7 22 26 24 20 25
51 49 45 43 47 48 49 49 47 47 46 38 36 37 34 29 30 31 29 28 31 31 29 32 33 32 33 28 25 23 21 23 19 18 19 22 24 22 21 18 17 19 25 24 18 9 21
51 50 46 43 46 48 48 48 47 46 47 41 36 37 34 30 30 31 32 31 32 32 29 30 30 30 30 25 26 25 23 23 22 22 20 18 16 19 22 21 8 24 25 20 21 25 29
51 51 47 44 44 47 49 48 47 47 45 40 34 36 37 33 30 33 33 33 33 34 33 33 30 31 32 29 29 27 25 24 21 16 21 17 21 16 20 16 20 25 25 25 25 27 29

GFSGBSN_sfc_30mbdewp_117.txt.gz
Dewpoint
47 45 45 44 43 43 47 46 46 45 47 47 47 47 48 48 48 47 48 50 51 50 47 45 46 54 48 42 42 46 52 45 39 37 34 32 30 27 24 29 29 27 30 32 32 32 32
46 46 44 44 43 47 46 45 46 47 47 46 46 46 46 46 46 46 48 48 49 49 48 46 53 51 44 39 49 49 44 39 38 36 36 34 32 32 31 31 27 32 32 31 31 31 32
46 45 45 44 45 45 46 46 46 46 46 45 45 45 46 45 45 48 49 49 49 48 48 48 52 51 43 43 51 49 43 38 38 38 36 37 35 32 32 31 34 33 26 28 29 31 30
45 44 43 43 46 47 45 45 46 44 46 45 45 46 46 46 45 47 48 48 48 48 47 48 51 47 41 51 51 46 40 41 41 41 39 38 37 35 33 33 28 28 25 13 24 30 31
47 45 44 44 46 47 45 45 45 44 45 45 46 47 46 45 45 46 48 50 51 49 50 50 46 42 40 51 45 44 40 39 41 41 40 39 35 32 31 26 20 25 14 23 23 29 30
47 45 45 45 46 45 46 46 46 44 45 45 46 47 47 47 47 48 48 47 46 45 44 43 45 38 43 42 44 40 42 42 40 38 36 34 32 28 28 22 4 19 22 24 23 26 27
47 46 44 45 44 45 44 45 45 46 47 46 46 47 46 46 45 44 42 41 37 36 41 36 38 39 42 44 43 39 39 39 39 34 31 34 25 21 24 26 24 26 24 24 25 26 27
46 47 42 46 44 45 46 46 46 47 48 47 47 48 46 46 46 45 43 40 41 41 33 41 41 42 44 42 36 35 37 36 34 31 33 27 24 27 27 28 28 27 26 25 26 28 29
44 47 46 43 45 45 45 45 46 46 47 48 46 47 47 44 44 44 45 44 48 47 33 37 41 39 41 40 35 34 35 35 31 29 29 23 27 29 28 28 27 28 26 25 25 27 29
45 45 47 46 45 45 46 45 46 45 45 46 46 45 47 45 40 43 42 47 47 46 30 32 36 38 40 37 32 35 36 33 31 25 27 25 27 27 27 27 28 26 28 28 28 30 25
45 45 46 47 47 47 46 46 46 46 47 46 45 45 45 45 42 41 43 45 46 40 15 33 36 39 37 32 31 31 36 33 29 28 27 21 27 29 30 29 29 26 31 32 32 31 30
46 46 45 47 47 47 48 48 46 47 47 47 46 45 44 41 41 42 43 41 34 17 17 30 34 33 30 32 33 34 32 33 34 29 29 27 29 30 27 29 31 30 31 31 32 29 24
45 46 47 47 46 46 46 49 48 46 47 48 47 45 43 42 35 43 42 33 19 19 31 25 28 32 28 28 29 30 28 25 23 22 23 26 28 30 31 29 32 34 31 21 18 22 19
44 46 47 47 48 47 48 47 47 47 47 48 46 41 41 40 42 43 35 23 19 25 26 32 31 31 26 27 23 25 25 24 26 28 26 24 18 29 35 31 28 31 30 24 18 18 20
47 45 47 48 47 48 49 49 46 48 48 47 43 36 35 37 42 39 30 24 24 26 31 29 30 24 26 28 26 25 24 25 27 29 25 24 24 32 35 35 33 33 30 34 28 28 25
49 44 46 47 47 49 49 49 49 48 48 45 34 30 32 39 40 35 29 28 31 34 34 31 22 23 21 23 22 25 26 29 31 32 33 32 25 28 34 36 36 35 37 29 29 21 18
50 48 44 46 47 49 50 50 50 48 47 44 30 28 33 39 37 32 28 31 33 34 34 32 27 22 25 30 30 29 30 31 36 37 37 36 31 27 34 33 33 34 31 32 32 29 22
51 49 45 46 47 48 50 51 50 48 45 34 31 25 33 37 29 29 29 31 34 33 34 33 32 27 28 33 31 33 32 33 37 36 33 36 33 28 28 32 35 36 34 33 27 27 27
51 50 48 44 47 48 50 51 50 47 45 36 26 28 34 35 26 27 29 30 32 32 33 32 31 31 30 30 28 32 33 35 37 36 34 34 30 24 18 25 29 29 31 32 29 28 25
52 51 49 45 46 48 50 51 51 48 46 34 29 19 28 32 31 29 29 30 30 33 33 33 32 32 30 29 30 29 29 32 36 36 38 36 28 25 22 23 27 24 26 28 28 27 25
52 51 49 46 45 48 49 51 51 48 45 35 31 29 31 25 28 29 30 30 30 30 32 33 30 32 31 27 27 28 30 30 32 32 35 32 25 26 26 26 25 24 25 27 27 27 23
52 51 50 47 45 47 48 51 49 47 43 36 30 29 30 30 30 28 29 29 30 31 32 30 30 31 31 28 29 28 30 30 28 30 29 29 26 26 23 23 23 23 24 28 28 29 28
51 52 50 47 45 48 50 50 49 46 42 36 37 34 28 29 28 26 27 30 30 32 32 34 33 31 29 30 32 32 32 32 32 31 29 28 26 25 16 21 20 15 20 26 27 28 28
51 52 50 47 45 49 48 49 48 46 44 39 38 33 27 23 27 26 29 30 31 31 30 33 34 31 31 35 34 34 33 32 32 31 31 28 26 25 21 19 1 10 26 26 26 27 29
51 51 51 47 46 50 50 49 47 45 44 38 39 34 30 25 27 28 29 29 31 30 30 32 33 34 35 32 27 23 21 23 27 28 30 30 27 23 18 16 13 13 17 24 25 22 28
52 51 51 47 45 49 50 48 48 47 41 36 37 37 33 27 23 29 28 29 27 27 28 30 33 35 33 29 26 17 11 20 19 21 29 28 27 24 21 12 -4 2 19 26 26 20 23
52 51 51 47 44 49 49 49 47 47 44 37 35 36 33 29 29 30 28 28 30 29 27 30 32 32 32 28 25 22 20 23 17 17 17 23 24 23 22 18 15 17 24 25 18 5 20
52 51 51 48 44 46 49 49 47 46 46 38 36 36 33 29 29 31 31 30 32 31 28 29 30 30 29 26 25 24 23 23 22 21 19 17 17 19 21 20 5 23 25 20 20 22 28
53 52 51 49 46 44 48 49 48 47 46 40 34 36 36 32 30 32 32 33 33 33 32 33 30 30 31 28 28 27 26 24 22 16 21 18 19 14 20 16 22 24 25 25 23 24 26